GFSMA_prec_precacc_030.txt.gz
Total_Precipitation_Accumulation
0.00 0.00 0.00 0.00 0.00 0.00 0.03 0.04 0.06 0.12 0.14 0.13 0.11 0.11 0.07 0.05 0.03 0.01 0.00 0.01 0.01 0.01 0.00 0.00 0.04 0.17 0.27 0.28 0.25 0.20 0.19 0.18 0.22 0.27 0.26 0.17 0.13 0.17 0.20 0.14 0.08 0.03 0.02
0.00 0.00 0.00 0.00 0.00 0.01 0.01 0.02 0.03 0.04 0.05 0.06 0.10 0.10 0.06 0.05 0.03 0.03 0.02 0.02 0.02 0.01 0.00 0.01 0.01 0.08 0.22 0.26 0.31 0.30 0.27 0.22 0.19 0.23 0.24 0.18 0.16 0.19 0.17 0.14 0.08 0.05 0.02
0.00 0.00 0.00 0.00 0.00 0.00 0.00 0.00 0.00 0.02 0.04 0.07 0.12 0.19 0.16 0.09 0.06 0.05 0.04 0.05 0.06 0.08 0.07 0.01 0.00 0.03 0.10 0.19 0.25 0.24 0.23 0.26 0.22 0.20 0.22 0.20 0.16 0.19 0.27 0.18 0.13 0.10 0.08
0.00 0.00 0.00 0.00 0.00 0.00 0.00 0.00 0.00 0.00 0.01 0.04 0.05 0.04 0.02 0.04 0.04 0.03 0.02 0.03 0.07 0.11 0.16 0.15 0.08 0.04 0.05 0.07 0.14 0.20 0.26 0.24 0.23 0.25 0.23 0.18 0.15 0.16 0.22 0.24 0.23 0.22 0.17
0.00 0.00 0.00 0.00 0.00 0.00 0.00 0.00 0.00 0.00 0.00 0.00 0.00 0.01 0.01 0.01 0.02 0.03 0.02 0.01 0.01 0.03 0.08 0.10 0.13 0.13 0.11 0.11 0.12 0.16 0.22 0.29 0.42 0.37 0.34 0.37 0.36 0.24 0.18 0.17 0.22 0.35 0.37
0.00 0.00 0.00 0.00 0.00 0.00 0.00 0.00 0.00 0.00 0.00 0.00 0.00 0.00 0.00 0.02 0.02 0.03 0.03 0.02 0.02 0.02 0.02 0.04 0.05 0.07 0.11 0.19 0.26 0.26 0.26 0.22 0.23 0.50 0.97 1.03 0.66 0.53 0.52 0.42 0.29 0.28 0.40
0.00 0.00 0.00 0.00 0.00 0.00 0.00 0.00 0.00 0.00 0.00 0.00 0.01 0.00 0.00 0.00 0.01 0.04 0.05 0.08 0.08 0.07 0.05 0.05 0.06 0.04 0.04 0.09 0.17 0.30 0.37 0.37 0.33 0.30 0.32 0.80 1.47 1.23 0.78 0.62 0.62 0.48 0.40
0.00 0.00 0.00 0.00 0.00 0.00 0.00 0.00 0.00 0.00 0.00 0.00 0.01 0.01 0.00 0.00 0.00 0.01 0.03 0.07 0.08 0.10 0.11 0.07 0.08 0.07 0.03 0.02 0.02 0.07 0.21 0.48 0.54 0.42 0.42 0.60 0.73 1.00 1.13 0.88 0.75 0.75 0.74
0.00 0.00 0.00 0.00 0.00 0.00 0.00 0.00 0.00 0.00 0.00 0.00 0.00 0.02 0.02 0.01 0.01 0.00 0.01 0.05 0.06 0.06 0.07 0.07 0.06 0.09 0.06 0.04 0.05 0.06 0.06 0.09 0.17 0.28 0.32 0.45 0.85 1.36 1.23 0.99 0.66 0.52 0.54
0.00 0.00 0.00 0.00 0.00 0.00 0.00 0.00 0.00 0.00 0.00 0.00 0.00 0.00 0.02 0.04 0.04 0.02 0.00 0.00 0.04 0.07 0.08 0.08 0.08 0.07 0.07 0.07 0.10 0.14 0.08 0.04 0.06 0.10 0.17 0.29 0.45 0.63 1.06 1.35 1.26 0.90 0.60
0.00 0.00 0.00 0.00 0.00 0.00 0.00 0.00 0.00 0.00 0.00 0.00 0.00 0.00 0.01 0.01 0.01 0.03 0.01 0.01 0.03 0.05 0.05 0.09 0.10 0.11 0.09 0.07 0.04 0.03 0.05 0.07 0.06 0.05 0.11 0.16 0.31 0.50 0.67 0.74 0.81 1.04 1.06
0.00 0.00 0.00 0.00 0.00 0.00 0.00 0.00 0.00 0.00 0.00 0.00 0.00 0.00 0.00 0.00 0.00 0.01 0.01 0.00 0.03 0.07 0.04 0.06 0.08 0.09 0.10 0.12 0.07 0.04 0.03 0.02 0.06 0.09 0.10 0.14 0.16 0.29 0.46 0.71 0.84 0.69 0.70
0.00 0.00 0.00 0.00 0.00 0.00 0.00 0.00 0.01 0.02 0.03 0.06 0.09 0.13 0.21 0.26 0.27 0.27 0.22 0.12 0.09 0.10 0.11 0.04 0.06 0.05 0.06 0.14 0.15 0.08 0.02 0.01 0.01 0.04 0.11 0.15 0.15 0.20 0.37 0.56 0.71 0.94 0.93
0.00 0.00 0.00 0.00 0.00 0.01 0.02 0.07 0.12 0.19 0.31 0.43 0.46 0.47 0.44 0.39 0.33 0.29 0.25 0.23 0.17 0.07 0.05 0.08 0.07 0.11 0.09 0.09 0.12 0.15 0.10 0.05 0.05 0.05 0.07 0.12 0.19 0.21 0.21 0.35 0.60 0.70 0.74
0.00 0.00 0.00 0.01 0.04 0.10 0.15 0.19 0.21 0.28 0.32 0.27 0.24 0.21 0.19 0.17 0.14 0.12 0.10 0.10 0.15 0.07 0.01 0.00 0.02 0.05 0.09 0.10 0.09 0.17 0.25 0.19 0.14 0.12 0.12 0.12 0.12 0.20 0.36 0.36 0.38 0.58 0.81
0.00 0.01 0.04 0.12 0.18 0.17 0.12 0.11 0.10 0.09 0.10 0.10 0.08 0.07 0.06 0.05 0.05 0.06 0.05 0.03 0.03 0.04 0.02 0.00 0.00 0.00 0.00 0.03 0.08 0.15 0.31 0.41 0.25 0.19 0.20 0.20 0.21 0.20 0.19 0.37 0.62 0.64 0.66
0.01 0.05 0.09 0.08 0.06 0.07 0.06 0.05 0.04 0.03 0.03 0.02 0.01 0.01 0.01 0.01 0.01 0.01 0.02 0.02 0.03 0.03 0.02 0.00 0.00 0.00 0.00 0.01 0.03 0.10 0.22 0.41 0.52 0.36 0.23 0.25 0.27 0.28 0.31 0.26 0.32 0.66 0.93
0.01 0.01 0.03 0.08 0.10 0.06 0.03 0.03 0.02 0.00 0.00 0.00 0.00 0.00 0.00 0.00 0.00 0.00 0.01 0.01 0.01 0.01 0.02 0.01 0.00 0.00 0.00 0.00 0.00 0.02 0.10 0.24 0.42 0.53 0.49 0.31 0.24 0.28 0.33 0.43 0.42 0.38 0.49
0.04 0.08 0.11 0.07 0.03 0.01 0.00 0.00 0.00 0.00 0.00 0.00 0.00 0.00 0.00 0.00 0.00 0.00 0.00 0.01 0.01 0.01 0.01 0.01 0.00 0.00 0.00 0.00 0.00 0.01 0.03 0.07 0.16 0.30 0.43 0.55 0.44 0.27 0.25 0.30 0.39 0.48 0.43
0.07 0.07 0.05 0.02 0.01 0.00 0.00 0.00 0.00 0.00 0.00 0.00 0.00 0.00 0.00 0.00 0.00 0.00 0.00 0.00 0.01 0.02 0.02 0.02 0.00 0.00 0.00 0.00 0.01 0.02 0.03 0.05 0.05 0.13 0.30 0.49 0.55 0.48 0.31 0.23 0.27 0.30 0.38
0.04 0.02 0.01 0.00 0.00 0.00 0.00 0.00 0.00 0.00 0.00 0.00 0.00 0.00 0.00 0.00 0.00 0.00 0.00 0.00 0.01 0.02 0.02 0.04 0.03 0.02 0.01 0.01 0.02 0.03 0.03 0.04 0.06 0.08 0.18 0.36 0.52 0.59 0.60 0.37 0.21 0.23 0.29
0.01 0.00 0.00 0.00 0.00 0.00 0.00 0.00 0.00 0.00 0.00 0.00 0.01 0.00 0.00 0.00 0.01 0.00 0.00 0.00 0.00 0.03 0.06 0.07 0.06 0.05 0.02 0.02 0.03 0.06 0.07 0.06 0.07 0.08 0.11 0.24 0.40 0.52 0.65 0.67 0.48 0.34 0.27
0.00 0.00 0.00 0.00 0.00 0.00 0.00 0.00 0.00 0.00 0.01 0.01 0.01 0.01 0.01 0.00 0.00 0.01 0.01 0.01 0.01 0.01 0.02 0.04 0.08 0.05 0.03 0.02 0.04 0.10 0.09 0.09 0.07 0.04 0.09 0.19 0.31 0.43 0.49 0.67 0.72 0.51 0.44
0.00 0.00 0.00 0.00 0.00 0.00 0.00 0.00 0.00 0.01 0.01 0.01 0.01 0.01 0.02 0.01 0.01 0.02 0.04 0.08 0.06 0.04 0.03 0.02 0.06 0.04 0.02 0.03 0.06 0.10 0.13 0.14 0.10 0.03 0.07 0.18 0.24 0.35 0.37 0.45 0.66 0.86 0.73
0.00 0.00 0.00 0.00 0.00 0.00 0.00 0.00 0.00 0.04 0.06 0.03 0.01 0.02 0.04 0.05 0.03 0.04 0.19 0.31 0.15 0.06 0.03 0.04 0.04 0.03 0.02 0.02 0.03 0.17 0.25 0.28 0.21 0.07 0.06 0.14 0.15 0.24 0.36 0.50 0.63 0.69 0.88
0.00 0.00 0.00 0.00 0.00 0.00 0.01 0.00 0.02 0.13 0.19 0.09 0.05 0.04 0.03 0.03 0.07 0.08 0.31 0.38 0.32 0.07 0.03 0.06 0.06 0.04 0.02 0.04 0.04 0.21 0.31 0.29 0.21 0.16 0.05 0.11 0.12 0.15 0.33 0.45 0.48 0.69 0.81

GFSMA_prec_precacc_033.txt.gz
Total_Precipitation_Accumulation
0.00 0.00 0.00 0.00 0.00 0.00 0.03 0.04 0.06 0.12 0.14 0.13 0.11 0.11 0.07 0.05 0.03 0.01 0.00 0.01 0.01 0.01 0.00 0.00 0.04 0.17 0.27 0.28 0.25 0.20 0.19 0.18 0.22 0.27 0.26 0.18 0.14 0.18 0.21 0.14 0.08 0.03 0.02
0.00 0.00 0.00 0.00 0.00 0.01 0.01 0.02 0.03 0.04 0.05 0.06 0.10 0.10 0.06 0.05 0.03 0.03 0.02 0.02 0.02 0.01 0.00 0.01 0.01 0.08 0.22 0.26 0.31 0.30 0.27 0.22 0.19 0.23 0.24 0.18 0.16 0.19 0.18 0.15 0.08 0.05 0.02
0.00 0.00 0.00 0.00 0.00 0.00 0.00 0.00 0.00 0.02 0.04 0.07 0.12 0.19 0.16 0.09 0.06 0.05 0.04 0.05 0.06 0.08 0.07 0.01 0.00 0.03 0.10 0.19 0.25 0.24 0.23 0.26 0.22 0.20 0.22 0.20 0.16 0.20 0.33 0.23 0.13 0.10 0.08
0.00 0.00 0.00 0.00 0.00 0.00 0.00 0.00 0.00 0.00 0.01 0.04 0.05 0.04 0.02 0.04 0.04 0.03 0.02 0.03 0.07 0.11 0.16 0.15 0.08 0.04 0.05 0.07 0.14 0.20 0.26 0.24 0.23 0.25 0.23 0.18 0.15 0.16 0.24 0.32 0.33 0.24 0.20
0.00 0.00 0.00 0.00 0.00 0.00 0.00 0.00 0.00 0.00 0.00 0.00 0.00 0.01 0.01 0.01 0.02 0.03 0.02 0.01 0.01 0.03 0.08 0.10 0.13 0.13 0.11 0.11 0.12 0.16 0.22 0.29 0.42 0.37 0.34 0.37 0.36 0.24 0.18 0.17 0.23 0.40 0.50
0.00 0.00 0.00 0.00 0.00 0.00 0.00 0.00 0.00 0.00 0.00 0.00 0.00 0.00 0.00 0.02 0.02 0.03 0.03 0.02 0.02 0.02 0.02 0.04 0.05 0.07 0.11 0.19 0.26 0.26 0.26 0.22 0.23 0.50 0.97 1.03 0.66 0.53 0.52 0.42 0.29 0.28 0.46
0.00 0.00 0.00 0.00 0.00 0.00 0.00 0.00 0.00 0.00 0.00 0.00 0.01 0.00 0.00 0.00 0.01 0.04 0.05 0.08 0.08 0.07 0.05 0.05 0.06 0.04 0.04 0.09 0.17 0.30 0.37 0.37 0.33 0.30 0.32 0.80 1.47 1.23 0.78 0.62 0.62 0.48 0.40
0.00 0.00 0.00 0.00 0.00 0.00 0.00 0.00 0.00 0.00 0.00 0.00 0.01 0.01 0.00 0.00 0.00 0.01 0.03 0.07 0.08 0.12 0.12 0.08 0.08 0.07 0.03 0.02 0.02 0.07 0.21 0.48 0.54 0.42 0.42 0.60 0.73 1.00 1.13 0.88 0.75 0.75 0.74
0.00 0.00 0.00 0.00 0.00 0.00 0.00 0.00 0.00 0.00 0.00 0.00 0.00 0.02 0.02 0.01 0.01 0.00 0.01 0.05 0.07 0.07 0.08 0.09 0.08 0.09 0.06 0.04 0.05 0.06 0.06 0.09 0.17 0.28 0.32 0.45 0.85 1.36 1.23 0.99 0.66 0.52 0.54
0.00 0.00 0.00 0.00 0.00 0.00 0.00 0.00 0.00 0.00 0.00 0.00 0.00 0.00 0.02 0.05 0.04 0.02 0.00 0.00 0.04 0.07 0.11 0.13 0.14 0.13 0.11 0.08 0.10 0.14 0.08 0.04 0.06 0.10 0.17 0.29 0.45 0.63 1.06 1.35 1.26 0.90 0.60
0.00 0.00 0.00 0.00 0.00 0.00 0.00 0.00 0.00 0.00 0.00 0.00 0.00 0.00 0.01 0.01 0.01 0.03 0.01 0.01 0.03 0.05 0.06 0.11 0.15 0.21 0.25 0.26 0.15 0.07 0.05 0.07 0.06 0.05 0.11 0.16 0.31 0.50 0.67 0.74 0.81 1.04 1.06
0.00 0.00 0.00 0.00 0.00 0.00 0.00 0.00 0.00 0.00 0.00 0.00 0.00 0.00 0.00 0.00 0.00 0.01 0.01 0.00 0.03 0.07 0.04 0.07 0.08 0.12 0.18 0.28 0.30 0.20 0.05 0.03 0.06 0.09 0.10 0.14 0.16 0.29 0.46 0.71 0.84 0.69 0.70
0.00 0.00 0.00 0.00 0.00 0.00 0.00 0.00 0.01 0.02 0.03 0.06 0.09 0.13 0.21 0.26 0.27 0.27 0.22 0.13 0.09 0.10 0.11 0.04 0.06 0.05 0.07 0.20 0.37 0.38 0.23 0.12 0.03 0.04 0.11 0.15 0.15 0.20 0.37 0.56 0.71 0.94 0.93
0.00 0.00 0.00 0.00 0.00 0.01 0.02 0.07 0.12 0.19 0.31 0.43 0.46 0.47 0.45 0.39 0.34 0.30 0.26 0.24 0.18 0.07 0.05 0.08 0.07 0.11 0.11 0.13 0.25 0.34 0.27 0.18 0.14 0.08 0.07 0.12 0.19 0.21 0.21 0.35 0.60 0.70 0.74
0.00 0.00 0.00 0.01 0.04 0.10 0.15 0.19 0.21 0.28 0.32 0.27 0.24 0.22 0.20 0.20 0.20 0.16 0.13 0.16 0.21 0.10 0.01 0.00 0.02 0.05 0.11 0.15 0.21 0.33 0.43 0.35 0.24 0.17 0.14 0.12 0.12 0.20 0.36 0.36 0.38 0.58 0.81
0.00 0.01 0.04 0.12 0.18 0.17 0.12 0.11 0.10 0.09 0.10 0.10 0.08 0.07 0.06 0.05 0.06 0.07 0.08 0.06 0.05 0.05 0.02 0.00 0.00 0.00 0.00 0.03 0.09 0.19 0.39 0.46 0.29 0.22 0.22 0.21 0.21 0.20 0.19 0.37 0.62 0.64 0.66
0.01 0.05 0.09 0.08 0.06 0.08 0.07 0.05 0.04 0.04 0.03 0.02 0.02 0.02 0.01 0.01 0.01 0.01 0.02 0.03 0.04 0.05 0.02 0.00 0.00 0.00 0.00 0.01 0.03 0.10 0.22 0.42 0.53 0.36 0.23 0.25 0.27 0.28 0.31 0.26 0.32 0.66 0.93
0.01 0.02 0.04 0.09 0.11 0.07 0.04 0.03 0.02 0.00 0.00 0.00 0.00 0.00 0.00 0.00 0.00 0.00 0.01 0.01 0.01 0.01 0.02 0.01 0.00 0.00 0.00 0.00 0.00 0.02 0.10 0.24 0.42 0.53 0.49 0.31 0.24 0.28 0.33 0.43 0.42 0.38 0.49
0.04 0.08 0.12 0.08 0.03 0.01 0.00 0.00 0.00 0.00 0.00 0.00 0.00 0.00 0.00 0.00 0.00 0.00 0.00 0.01 0.01 0.01 0.01 0.01 0.00 0.00 0.00 0.00 0.00 0.01 0.03 0.07 0.16 0.30 0.43 0.55 0.44 0.27 0.25 0.30 0.39 0.48 0.43
0.07 0.07 0.05 0.02 0.01 0.00 0.00 0.00 0.00 0.00 0.00 0.00 0.00 0.00 0.00 0.00 0.00 0.00 0.00 0.00 0.01 0.02 0.02 0.02 0.00 0.00 0.00 0.00 0.01 0.02 0.03 0.05 0.05 0.13 0.30 0.49 0.55 0.48 0.31 0.23 0.27 0.30 0.38
0.04 0.02 0.01 0.00 0.00 0.00 0.00 0.00 0.00 0.00 0.00 0.00 0.00 0.00 0.00 0.00 0.00 0.00 0.01 0.00 0.01 0.02 0.02 0.04 0.03 0.02 0.01 0.01 0.02 0.03 0.03 0.04 0.06 0.08 0.18 0.36 0.52 0.59 0.60 0.37 0.21 0.23 0.29
0.01 0.00 0.00 0.00 0.00 0.00 0.00 0.00 0.00 0.00 0.00 0.00 0.01 0.00 0.00 0.00 0.01 0.01 0.00 0.00 0.00 0.03 0.06 0.07 0.06 0.05 0.02 0.02 0.03 0.06 0.07 0.06 0.07 0.08 0.11 0.24 0.40 0.52 0.65 0.67 0.48 0.34 0.27
0.00 0.00 0.00 0.00 0.00 0.00 0.00 0.00 0.00 0.00 0.01 0.01 0.01 0.01 0.01 0.00 0.00 0.01 0.01 0.01 0.01 0.01 0.02 0.04 0.08 0.05 0.03 0.02 0.04 0.10 0.09 0.09 0.07 0.04 0.09 0.19 0.31 0.43 0.49 0.67 0.72 0.51 0.44
0.00 0.00 0.00 0.00 0.00 0.00 0.00 0.00 0.00 0.01 0.01 0.01 0.01 0.01 0.02 0.01 0.01 0.02 0.04 0.08 0.06 0.04 0.03 0.03 0.06 0.05 0.03 0.03 0.07 0.10 0.15 0.17 0.12 0.04 0.07 0.18 0.24 0.35 0.37 0.45 0.66 0.86 0.73
0.00 0.00 0.00 0.00 0.00 0.00 0.00 0.00 0.00 0.04 0.06 0.03 0.01 0.02 0.04 0.05 0.03 0.04 0.20 0.32 0.15 0.06 0.03 0.05 0.05 0.04 0.03 0.04 0.04 0.20 0.27 0.28 0.21 0.07 0.06 0.14 0.15 0.25 0.36 0.50 0.63 0.69 0.88
0.00 0.00 0.00 0.00 0.00 0.00 0.01 0.01 0.03 0.13 0.19 0.09 0.05 0.04 0.03 0.03 0.09 0.14 0.35 0.39 0.32 0.07 0.03 0.06 0.06 0.04 0.02 0.04 0.04 0.21 0.31 0.31 0.21 0.18 0.05 0.11 0.12 0.16 0.33 0.45 0.48 0.69 0.81

GFSMA_prec_precacc_036.txt.gz
Total_Precipitation_Accumulation
0.00 0.00 0.00 0.00 0.00 0.00 0.03 0.04 0.06 0.12 0.14 0.13 0.11 0.11 0.07 0.05 0.03 0.01 0.00 0.01 0.01 0.01 0.00 0.00 0.04 0.17 0.27 0.28 0.25 0.20 0.19 0.18 0.24 0.33 0.32 0.25 0.20 0.21 0.23 0.19 0.09 0.03 0.02
0.00 0.00 0.00 0.00 0.00 0.01 0.01 0.02 0.03 0.04 0.05 0.06 0.10 0.10 0.06 0.05 0.03 0.03 0.02 0.02 0.02 0.01 0.00 0.01 0.01 0.08 0.22 0.26 0.31 0.30 0.27 0.22 0.19 0.24 0.30 0.27 0.23 0.24 0.21 0.18 0.15 0.08 0.02
0.00 0.00 0.00 0.00 0.00 0.00 0.00 0.00 0.00 0.02 0.04 0.07 0.12 0.19 0.16 0.09 0.06 0.05 0.04 0.05 0.06 0.08 0.07 0.01 0.00 0.03 0.10 0.19 0.25 0.24 0.23 0.26 0.22 0.20 0.23 0.22 0.21 0.23 0.38 0.27 0.19 0.18 0.10
0.00 0.00 0.00 0.00 0.00 0.00 0.00 0.00 0.00 0.00 0.01 0.04 0.05 0.04 0.02 0.04 0.04 0.03 0.02 0.03 0.07 0.11 0.16 0.15 0.08 0.04 0.05 0.07 0.14 0.20 0.26 0.24 0.23 0.25 0.23 0.18 0.18 0.19 0.27 0.40 0.39 0.39 0.30
0.00 0.00 0.00 0.00 0.00 0.00 0.00 0.00 0.00 0.00 0.00 0.00 0.00 0.01 0.01 0.01 0.02 0.03 0.02 0.01 0.01 0.03 0.08 0.10 0.13 0.13 0.11 0.11 0.12 0.16 0.22 0.29 0.42 0.37 0.34 0.37 0.36 0.25 0.21 0.19 0.27 0.47 0.65
0.00 0.00 0.00 0.00 0.00 0.00 0.00 0.00 0.00 0.00 0.00 0.00 0.00 0.00 0.00 0.02 0.02 0.03 0.03 0.02 0.02 0.02 0.02 0.04 0.05 0.07 0.11 0.19 0.26 0.26 0.26 0.22 0.23 0.50 0.97 1.03 0.67 0.53 0.52 0.42 0.29 0.29 0.50
0.00 0.00 0.00 0.00 0.00 0.00 0.00 0.00 0.00 0.00 0.00 0.00 0.01 0.00 0.00 0.00 0.01 0.04 0.05 0.08 0.08 0.07 0.05 0.05 0.06 0.04 0.04 0.09 0.17 0.30 0.37 0.37 0.33 0.30 0.32 0.80 1.47 1.23 0.78 0.62 0.62 0.48 0.40
0.00 0.00 0.00 0.00 0.00 0.00 0.00 0.00 0.00 0.00 0.00 0.00 0.01 0.01 0.00 0.00 0.00 0.01 0.03 0.07 0.08 0.12 0.12 0.08 0.08 0.07 0.03 0.02 0.02 0.07 0.21 0.48 0.54 0.42 0.42 0.60 0.73 1.00 1.13 0.88 0.75 0.75 0.74
0.00 0.00 0.00 0.00 0.00 0.00 0.00 0.00 0.00 0.00 0.00 0.00 0.00 0.02 0.02 0.01 0.01 0.00 0.01 0.05 0.07 0.07 0.08 0.09 0.08 0.09 0.06 0.04 0.05 0.06 0.06 0.09 0.17 0.28 0.32 0.45 0.85 1.36 1.23 0.99 0.66 0.52 0.54
0.00 0.00 0.00 0.00 0.00 0.00 0.00 0.00 0.00 0.00 0.00 0.00 0.00 0.00 0.02 0.05 0.04 0.03 0.00 0.00 0.04 0.07 0.11 0.13 0.14 0.14 0.13 0.11 0.11 0.15 0.09 0.04 0.06 0.10 0.18 0.29 0.45 0.63 1.06 1.35 1.26 0.90 0.60
0.00 0.00 0.00 0.00 0.00 0.00 0.00 0.00 0.00 0.00 0.00 0.00 0.00 0.00 0.01 0.01 0.01 0.03 0.01 0.01 0.03 0.05 0.06 0.11 0.15 0.21 0.26 0.28 0.21 0.14 0.11 0.10 0.06 0.06 0.11 0.16 0.31 0.50 0.67 0.74 0.81 1.04 1.06
0.00 0.00 0.00 0.00 0.00 0.00 0.00 0.00 0.00 0.00 0.00 0.00 0.00 0.00 0.00 0.00 0.00 0.01 0.02 0.00 0.03 0.07 0.04 0.07 0.08 0.12 0.18 0.28 0.33 0.26 0.14 0.10 0.12 0.12 0.11 0.14 0.16 0.29 0.46 0.71 0.84 0.69 0.70
0.00 0.00 0.00 0.00 0.00 0.00 0.00 0.00 0.01 0.02 0.03 0.06 0.09 0.13 0.21 0.26 0.27 0.28 0.23 0.13 0.09 0.10 0.11 0.04 0.06 0.05 0.07 0.20 0.38 0.43 0.34 0.24 0.12 0.12 0.15 0.15 0.15 0.20 0.37 0.56 0.71 0.94 0.93
0.00 0.00 0.00 0.00 0.00 0.01 0.02 0.07 0.12 0.19 0.31 0.43 0.46 0.47 0.45 0.40 0.34 0.31 0.30 0.29 0.22 0.07 0.05 0.08 0.07 0.11 0.11 0.13 0.26 0.35 0.29 0.27 0.32 0.31 0.17 0.13 0.19 0.21 0.21 0.35 0.60 0.70 0.74
0.00 0.00 0.00 0.01 0.04 0.10 0.15 0.19 0.21 0.28 0.32 0.27 0.24 0.22 0.20 0.20 0.20 0.16 0.15 0.19 0.27 0.12 0.01 0.00 0.02 0.05 0.11 0.15 0.21 0.35 0.47 0.44 0.35 0.33 0.33 0.24 0.16 0.22 0.37 0.36 0.38 0.58 0.81
0.00 0.01 0.04 0.12 0.18 0.17 0.12 0.11 0.10 0.09 0.10 0.10 0.09 0.08 0.07 0.06 0.06 0.08 0.09 0.07 0.07 0.07 0.03 0.00 0.00 0.00 0.00 0.03 0.09 0.19 0.40 0.51 0.34 0.28 0.32 0.34 0.30 0.24 0.21 0.39 0.63 0.64 0.66
0.01 0.05 0.09 0.08 0.06 0.08 0.07 0.06 0.05 0.04 0.04 0.03 0.02 0.02 0.01 0.01 0.01 0.01 0.02 0.03 0.04 0.05 0.03 0.00 0.00 0.00 0.00 0.01 0.03 0.10 0.22 0.43 0.54 0.38 0.26 0.29 0.33 0.31 0.32 0.27 0.32 0.66 0.93
0.01 0.02 0.04 0.09 0.11 0.07 0.04 0.03 0.02 0.00 0.00 0.00 0.00 0.00 0.00 0.00 0.00 0.00 0.01 0.01 0.01 0.01 0.02 0.01 0.00 0.00 0.00 0.00 0.00 0.02 0.10 0.24 0.42 0.53 0.49 0.31 0.25 0.28 0.33 0.43 0.42 0.38 0.49
0.04 0.08 0.12 0.08 0.03 0.01 0.00 0.00 0.00 0.00 0.00 0.00 0.00 0.00 0.00 0.00 0.00 0.00 0.00 0.01 0.01 0.01 0.01 0.01 0.00 0.00 0.00 0.00 0.00 0.01 0.03 0.07 0.16 0.30 0.43 0.55 0.44 0.27 0.26 0.30 0.39 0.48 0.43
0.07 0.07 0.05 0.02 0.01 0.00 0.00 0.00 0.00 0.00 0.00 0.00 0.00 0.00 0.00 0.00 0.00 0.00 0.00 0.00 0.01 0.02 0.02 0.02 0.00 0.00 0.00 0.00 0.01 0.02 0.03 0.05 0.05 0.13 0.30 0.49 0.55 0.48 0.31 0.23 0.27 0.30 0.38
0.04 0.02 0.01 0.00 0.00 0.00 0.00 0.00 0.00 0.00 0.00 0.00 0.00 0.00 0.00 0.00 0.00 0.00 0.01 0.00 0.01 0.02 0.02 0.04 0.03 0.02 0.01 0.01 0.02 0.03 0.03 0.04 0.06 0.08 0.18 0.36 0.52 0.59 0.60 0.37 0.21 0.23 0.29
0.02 0.00 0.00 0.00 0.00 0.00 0.00 0.00 0.00 0.00 0.00 0.00 0.01 0.00 0.00 0.00 0.01 0.01 0.00 0.00 0.01 0.03 0.06 0.07 0.06 0.05 0.02 0.02 0.03 0.06 0.07 0.06 0.07 0.08 0.11 0.24 0.40 0.52 0.65 0.67 0.48 0.34 0.27
0.01 0.00 0.00 0.00 0.00 0.00 0.00 0.00 0.00 0.00 0.01 0.01 0.01 0.01 0.01 0.00 0.00 0.01 0.01 0.01 0.01 0.01 0.03 0.05 0.09 0.05 0.03 0.02 0.04 0.10 0.09 0.09 0.07 0.04 0.09 0.19 0.31 0.43 0.49 0.67 0.72 0.51 0.44
0.01 0.00 0.00 0.00 0.00 0.00 0.00 0.00 0.00 0.01 0.01 0.01 0.01 0.01 0.02 0.01 0.01 0.02 0.05 0.08 0.06 0.04 0.03 0.03 0.07 0.05 0.03 0.03 0.07 0.10 0.15 0.18 0.13 0.04 0.07 0.18 0.24 0.35 0.37 0.45 0.66 0.86 0.73
0.00 0.00 0.00 0.00 0.00 0.00 0.00 0.00 0.00 0.04 0.06 0.03 0.01 0.02 0.04 0.06 0.03 0.05 0.23 0.34 0.16 0.06 0.03 0.05 0.05 0.05 0.04 0.04 0.05 0.23 0.31 0.31 0.22 0.07 0.06 0.14 0.15 0.25 0.36 0.50 0.63 0.69 0.88
0.00 0.00 0.00 0.00 0.00 0.00 0.01 0.01 0.03 0.14 0.19 0.09 0.05 0.04 0.03 0.03 0.09 0.15 0.37 0.41 0.33 0.07 0.03 0.06 0.06 0.04 0.02 0.04 0.04 0.21 0.31 0.31 0.22 0.19 0.05 0.12 0.12 0.16 0.34 0.45 0.48 0.69 0.81

GFSMA_prec_precacc_042.txt.gz
Total_Precipitation_Accumulation
0.00 0.00 0.00 0.00 0.00 0.00 0.03 0.04 0.06 0.12 0.14 0.13 0.11 0.11 0.07 0.05 0.03 0.01 0.00 0.01 0.01 0.01 0.00 0.00 0.04 0.17 0.27 0.28 0.25 0.20 0.19 0.18 0.24 0.35 0.35 0.27 0.24 0.28 0.32 0.28 0.20 0.14 0.08
0.00 0.00 0.00 0.00 0.00 0.01 0.01 0.02 0.03 0.04 0.05 0.06 0.10 0.10 0.06 0.05 0.03 0.03 0.02 0.02 0.02 0.01 0.00 0.01 0.01 0.08 0.22 0.26 0.31 0.30 0.27 0.22 0.19 0.24 0.32 0.31 0.29 0.31 0.29 0.26 0.26 0.26 0.21
0.00 0.00 0.00 0.00 0.00 0.00 0.00 0.00 0.00 0.02 0.04 0.07 0.12 0.19 0.16 0.09 0.06 0.05 0.04 0.05 0.06 0.08 0.07 0.01 0.00 0.03 0.10 0.19 0.25 0.24 0.23 0.26 0.22 0.20 0.23 0.23 0.24 0.28 0.44 0.33 0.32 0.34 0.27
0.00 0.00 0.00 0.00 0.00 0.00 0.00 0.00 0.00 0.00 0.01 0.04 0.05 0.04 0.02 0.04 0.04 0.03 0.02 0.03 0.07 0.11 0.16 0.15 0.08 0.04 0.05 0.07 0.14 0.20 0.26 0.24 0.23 0.25 0.23 0.18 0.19 0.20 0.30 0.46 0.47 0.54 0.55
0.00 0.00 0.00 0.00 0.00 0.00 0.00 0.00 0.00 0.00 0.00 0.00 0.00 0.01 0.01 0.01 0.02 0.03 0.02 0.01 0.01 0.03 0.08 0.10 0.13 0.13 0.11 0.11 0.12 0.16 0.22 0.29 0.42 0.37 0.34 0.37 0.36 0.25 0.22 0.22 0.32 0.53 0.87
0.00 0.00 0.00 0.00 0.00 0.00 0.00 0.00 0.00 0.00 0.00 0.00 0.00 0.00 0.00 0.02 0.02 0.03 0.03 0.02 0.02 0.02 0.02 0.04 0.05 0.07 0.11 0.19 0.26 0.26 0.26 0.22 0.23 0.51 0.97 1.03 0.67 0.53 0.52 0.43 0.30 0.31 0.53
0.00 0.00 0.00 0.00 0.00 0.00 0.00 0.00 0.00 0.00 0.00 0.00 0.01 0.00 0.00 0.00 0.01 0.04 0.05 0.08 0.08 0.07 0.05 0.05 0.06 0.04 0.04 0.09 0.17 0.30 0.37 0.37 0.33 0.31 0.34 0.81 1.48 1.23 0.78 0.62 0.62 0.48 0.40
0.00 0.00 0.00 0.00 0.00 0.00 0.00 0.00 0.00 0.00 0.00 0.00 0.01 0.01 0.00 0.00 0.00 0.01 0.03 0.07 0.08 0.12 0.12 0.08 0.08 0.07 0.03 0.02 0.02 0.07 0.21 0.48 0.54 0.44 0.46 0.64 0.76 1.02 1.15 0.88 0.75 0.75 0.74
0.00 0.00 0.00 0.00 0.00 0.00 0.00 0.00 0.00 0.00 0.00 0.00 0.00 0.02 0.02 0.01 0.01 0.00 0.01 0.05 0.07 0.07 0.08 0.09 0.08 0.09 0.06 0.04 0.05 0.06 0.06 0.09 0.18 0.30 0.35 0.49 0.89 1.40 1.26 1.01 0.66 0.52 0.54
0.00 0.00 0.00 0.00 0.00 0.00 0.00 0.00 0.00 0.00 0.00 0.00 0.00 0.00 0.02 0.05 0.04 0.03 0.00 0.00 0.04 0.07 0.11 0.13 0.14 0.14 0.13 0.11 0.11 0.15 0.09 0.04 0.06 0.11 0.20 0.33 0.51 0.70 1.11 1.37 1.26 0.90 0.60
0.00 0.00 0.00 0.00 0.00 0.00 0.00 0.00 0.00 0.00 0.00 0.00 0.00 0.00 0.01 0.01 0.01 0.03 0.01 0.01 0.03 0.05 0.06 0.11 0.15 0.21 0.26 0.28 0.21 0.14 0.12 0.10 0.08 0.07 0.13 0.19 0.35 0.57 0.75 0.82 0.83 1.04 1.06
0.00 0.00 0.00 0.00 0.00 0.00 0.00 0.00 0.00 0.00 0.00 0.00 0.00 0.00 0.00 0.00 0.00 0.02 0.03 0.01 0.03 0.07 0.04 0.07 0.08 0.12 0.18 0.28 0.33 0.26 0.14 0.11 0.14 0.15 0.17 0.21 0.23 0.35 0.52 0.79 0.94 0.73 0.70
0.00 0.00 0.00 0.00 0.00 0.00 0.00 0.00 0.01 0.02 0.03 0.06 0.09 0.13 0.21 0.26 0.28 0.28 0.25 0.14 0.09 0.10 0.11 0.04 0.06 0.05 0.07 0.20 0.38 0.43 0.34 0.25 0.14 0.14 0.21 0.25 0.28 0.38 0.59 0.73 0.86 1.11 0.98
0.00 0.00 0.00 0.00 0.00 0.01 0.02 0.07 0.12 0.19 0.31 0.43 0.46 0.47 0.45 0.41 0.36 0.33 0.34 0.33 0.25 0.07 0.05 0.08 0.07 0.11 0.11 0.13 0.26 0.35 0.29 0.28 0.35 0.34 0.21 0.18 0.30 0.36 0.42 0.53 0.77 0.84 0.85
0.00 0.00 0.00 0.01 0.04 0.10 0.15 0.19 0.21 0.28 0.32 0.27 0.24 0.23 0.21 0.22 0.21 0.17 0.16 0.21 0.31 0.15 0.01 0.00 0.02 0.05 0.11 0.15 0.21 0.35 0.47 0.44 0.37 0.35 0.38 0.33 0.25 0.28 0.50 0.62 0.65 0.78 0.94
0.00 0.01 0.04 0.12 0.18 0.17 0.12 0.11 0.10 0.09 0.10 0.10 0.09 0.08 0.07 0.06 0.06 0.08 0.09 0.08 0.08 0.09 0.04 0.00 0.00 0.00 0.00 0.03 0.09 0.19 0.40 0.51 0.34 0.29 0.35 0.41 0.44 0.42 0.38 0.57 0.83 0.85 0.80
0.01 0.05 0.09 0.08 0.06 0.08 0.07 0.06 0.05 0.04 0.04 0.03 0.02 0.02 0.01 0.01 0.01 0.01 0.02 0.03 0.04 0.05 0.03 0.00 0.00 0.00 0.00 0.01 0.03 0.10 0.22 0.43 0.54 0.38 0.27 0.32 0.41 0.47 0.52 0.46 0.48 0.79 1.05
0.01 0.02 0.04 0.09 0.11 0.07 0.04 0.03 0.02 0.00 0.00 0.00 0.00 0.00 0.00 0.00 0.00 0.00 0.01 0.01 0.01 0.01 0.02 0.01 0.00 0.00 0.00 0.00 0.00 0.02 0.10 0.24 0.42 0.53 0.49 0.31 0.26 0.33 0.42 0.55 0.54 0.49 0.60
0.04 0.08 0.12 0.08 0.03 0.01 0.00 0.00 0.00 0.00 0.00 0.00 0.00 0.00 0.00 0.00 0.00 0.00 0.00 0.01 0.01 0.01 0.02 0.02 0.00 0.00 0.00 0.00 0.00 0.01 0.03 0.07 0.16 0.30 0.43 0.55 0.44 0.27 0.27 0.31 0.41 0.51 0.45
0.07 0.07 0.05 0.02 0.01 0.00 0.00 0.00 0.00 0.00 0.00 0.00 0.00 0.00 0.00 0.00 0.00 0.00 0.00 0.01 0.01 0.02 0.02 0.03 0.01 0.00 0.00 0.00 0.01 0.02 0.03 0.05 0.05 0.13 0.30 0.49 0.55 0.48 0.31 0.23 0.27 0.31 0.39
0.04 0.03 0.03 0.02 0.01 0.00 0.00 0.00 0.00 0.00 0.00 0.00 0.00 0.00 0.00 0.00 0.00 0.01 0.01 0.00 0.02 0.03 0.03 0.05 0.03 0.02 0.01 0.01 0.02 0.03 0.03 0.04 0.06 0.08 0.18 0.36 0.52 0.59 0.60 0.37 0.21 0.23 0.29
0.06 0.06 0.04 0.04 0.01 0.00 0.00 0.00 0.00 0.00 0.00 0.00 0.01 0.00 0.00 0.00 0.01 0.01 0.00 0.00 0.01 0.04 0.07 0.09 0.08 0.06 0.03 0.02 0.03 0.06 0.07 0.06 0.07 0.08 0.11 0.24 0.40 0.52 0.65 0.67 0.48 0.34 0.27
0.06 0.03 0.01 0.00 0.00 0.00 0.00 0.00 0.00 0.00 0.01 0.01 0.01 0.01 0.01 0.00 0.00 0.01 0.01 0.01 0.01 0.01 0.04 0.08 0.14 0.07 0.04 0.02 0.05 0.10 0.09 0.09 0.07 0.04 0.09 0.19 0.31 0.43 0.49 0.67 0.72 0.51 0.44
0.03 0.00 0.00 0.00 0.00 0.00 0.00 0.00 0.00 0.01 0.01 0.01 0.01 0.01 0.02 0.01 0.01 0.02 0.06 0.10 0.06 0.04 0.03 0.03 0.08 0.06 0.03 0.04 0.08 0.11 0.16 0.19 0.13 0.04 0.07 0.20 0.24 0.35 0.37 0.45 0.66 0.86 0.73
0.00 0.00 0.00 0.00 0.00 0.00 0.00 0.00 0.00 0.04 0.06 0.03 0.01 0.02 0.04 0.06 0.04 0.07 0.27 0.36 0.16 0.06 0.03 0.05 0.06 0.05 0.05 0.06 0.09 0.30 0.38 0.36 0.24 0.07 0.06 0.14 0.15 0.25 0.36 0.50 0.63 0.69 0.88
0.00 0.00 0.00 0.00 0.00 0.00 0.01 0.01 0.03 0.14 0.19 0.09 0.05 0.04 0.03 0.04 0.11 0.18 0.42 0.44 0.36 0.08 0.03 0.06 0.06 0.04 0.02 0.04 0.04 0.22 0.31 0.32 0.22 0.19 0.05 0.12 0.12 0.16 0.34 0.45 0.48 0.69 0.81

GFSMA_prec_precacc_045.txt.gz
Total_Precipitation_Accumulation
0.00 0.00 0.00 0.00 0.00 0.00 0.03 0.04 0.06 0.12 0.14 0.13 0.11 0.11 0.07 0.05 0.03 0.01 0.00 0.01 0.01 0.01 0.00 0.00 0.04 0.17 0.27 0.28 0.25 0.20 0.19 0.18 0.24 0.35 0.35 0.27 0.24 0.29 0.33 0.29 0.21 0.15 0.09
0.03 0.00 0.00 0.00 0.00 0.01 0.01 0.02 0.03 0.04 0.05 0.06 0.10 0.10 0.06 0.05 0.03 0.03 0.02 0.02 0.02 0.01 0.00 0.01 0.01 0.08 0.22 0.26 0.31 0.30 0.27 0.22 0.19 0.24 0.32 0.31 0.29 0.31 0.29 0.27 0.27 0.29 0.25
0.04 0.01 0.00 0.00 0.00 0.00 0.00 0.00 0.00 0.02 0.04 0.07 0.12 0.19 0.16 0.09 0.06 0.05 0.04 0.05 0.06 0.08 0.07 0.01 0.00 0.03 0.10 0.19 0.25 0.24 0.23 0.26 0.22 0.20 0.23 0.23 0.24 0.28 0.44 0.34 0.33 0.35 0.30
0.03 0.00 0.00 0.00 0.00 0.00 0.00 0.00 0.00 0.00 0.01 0.04 0.05 0.04 0.02 0.04 0.04 0.03 0.02 0.03 0.07 0.11 0.16 0.15 0.08 0.04 0.05 0.07 0.14 0.20 0.26 0.24 0.23 0.25 0.23 0.18 0.19 0.20 0.30 0.46 0.48 0.54 0.56
0.00 0.00 0.00 0.00 0.00 0.00 0.00 0.00 0.00 0.00 0.00 0.00 0.00 0.01 0.01 0.01 0.02 0.03 0.02 0.01 0.01 0.03 0.08 0.10 0.13 0.13 0.11 0.11 0.12 0.16 0.22 0.29 0.42 0.37 0.34 0.37 0.36 0.25 0.22 0.22 0.32 0.53 0.87
0.00 0.00 0.00 0.00 0.00 0.00 0.00 0.00 0.00 0.00 0.00 0.00 0.00 0.00 0.00 0.02 0.02 0.03 0.03 0.02 0.02 0.02 0.02 0.04 0.05 0.07 0.11 0.19 0.26 0.26 0.26 0.23 0.23 0.51 0.98 1.03 0.68 0.53 0.52 0.43 0.30 0.31 0.53
0.00 0.00 0.00 0.00 0.00 0.00 0.00 0.00 0.00 0.00 0.00 0.00 0.01 0.00 0.00 0.00 0.01 0.04 0.05 0.08 0.08 0.07 0.05 0.05 0.06 0.04 0.04 0.09 0.17 0.30 0.37 0.37 0.33 0.32 0.34 0.81 1.48 1.23 0.78 0.63 0.62 0.48 0.40
0.00 0.00 0.00 0.00 0.00 0.00 0.00 0.00 0.00 0.00 0.00 0.00 0.01 0.01 0.00 0.00 0.00 0.01 0.03 0.07 0.08 0.12 0.12 0.08 0.08 0.07 0.03 0.02 0.02 0.07 0.21 0.48 0.54 0.44 0.46 0.64 0.76 1.02 1.15 0.89 0.77 0.75 0.74
0.00 0.00 0.00 0.00 0.00 0.00 0.00 0.00 0.00 0.00 0.00 0.00 0.00 0.02 0.02 0.01 0.01 0.00 0.01 0.05 0.07 0.07 0.08 0.09 0.08 0.09 0.06 0.04 0.05 0.06 0.06 0.09 0.18 0.30 0.35 0.49 0.89 1.40 1.26 1.02 0.68 0.53 0.54
0.00 0.00 0.00 0.00 0.00 0.00 0.00 0.00 0.00 0.00 0.00 0.00 0.00 0.00 0.02 0.05 0.05 0.03 0.00 0.00 0.04 0.07 0.11 0.13 0.14 0.14 0.13 0.11 0.11 0.15 0.09 0.04 0.06 0.11 0.20 0.33 0.52 0.70 1.11 1.38 1.28 0.92 0.61
0.00 0.00 0.00 0.00 0.00 0.00 0.00 0.00 0.00 0.00 0.00 0.00 0.00 0.00 0.01 0.01 0.01 0.03 0.01 0.01 0.03 0.05 0.06 0.11 0.15 0.21 0.26 0.28 0.21 0.14 0.12 0.10 0.08 0.07 0.13 0.19 0.35 0.57 0.76 0.83 0.87 1.07 1.09
0.00 0.00 0.00 0.00 0.00 0.00 0.00 0.00 0.00 0.00 0.00 0.00 0.00 0.00 0.00 0.01 0.01 0.02 0.04 0.02 0.03 0.07 0.04 0.07 0.08 0.12 0.18 0.28 0.33 0.26 0.14 0.11 0.14 0.15 0.17 0.21 0.23 0.36 0.52 0.80 0.95 0.81 0.77
0.00 0.00 0.00 0.00 0.00 0.00 0.00 0.00 0.01 0.02 0.03 0.06 0.09 0.13 0.21 0.26 0.29 0.30 0.28 0.16 0.11 0.12 0.11 0.04 0.06 0.05 0.07 0.20 0.38 0.43 0.34 0.25 0.14 0.14 0.21 0.25 0.28 0.38 0.59 0.73 0.86 1.14 1.22
0.00 0.00 0.00 0.00 0.00 0.01 0.02 0.07 0.12 0.19 0.31 0.43 0.46 0.47 0.45 0.41 0.37 0.34 0.37 0.38 0.29 0.08 0.05 0.08 0.07 0.11 0.11 0.13 0.26 0.35 0.29 0.28 0.35 0.34 0.21 0.18 0.30 0.36 0.42 0.54 0.78 0.84 0.87
0.00 0.00 0.00 0.01 0.04 0.10 0.15 0.19 0.22 0.28 0.32 0.28 0.25 0.23 0.21 0.22 0.21 0.18 0.16 0.21 0.32 0.17 0.02 0.00 0.02 0.05 0.11 0.15 0.21 0.35 0.47 0.44 0.37 0.35 0.38 0.33 0.25 0.28 0.50 0.62 0.68 0.81 1.01
0.00 0.01 0.04 0.12 0.18 0.17 0.12 0.12 0.11 0.10 0.11 0.10 0.09 0.08 0.07 0.06 0.06 0.08 0.09 0.08 0.08 0.11 0.05 0.00 0.00 0.00 0.00 0.03 0.09 0.19 0.40 0.51 0.34 0.29 0.35 0.41 0.44 0.42 0.38 0.58 0.85 0.90 0.91
0.01 0.05 0.09 0.08 0.06 0.08 0.08 0.06 0.05 0.04 0.04 0.03 0.02 0.02 0.01 0.01 0.01 0.01 0.02 0.03 0.04 0.05 0.03 0.00 0.00 0.00 0.00 0.01 0.03 0.10 0.22 0.43 0.54 0.38 0.27 0.32 0.41 0.47 0.52 0.46 0.50 0.84 1.18
0.01 0.02 0.04 0.09 0.11 0.07 0.04 0.03 0.02 0.00 0.00 0.00 0.00 0.00 0.00 0.00 0.00 0.00 0.01 0.01 0.01 0.01 0.02 0.01 0.00 0.00 0.00 0.00 0.00 0.02 0.10 0.24 0.42 0.53 0.49 0.31 0.26 0.33 0.42 0.55 0.56 0.54 0.71
0.04 0.08 0.12 0.08 0.04 0.01 0.00 0.00 0.00 0.00 0.00 0.00 0.00 0.00 0.00 0.00 0.00 0.00 0.00 0.01 0.01 0.01 0.02 0.03 0.01 0.00 0.00 0.00 0.00 0.02 0.03 0.07 0.16 0.30 0.43 0.55 0.44 0.27 0.27 0.31 0.41 0.53 0.50
0.07 0.07 0.05 0.02 0.01 0.01 0.01 0.01 0.00 0.00 0.00 0.00 0.00 0.00 0.00 0.00 0.00 0.00 0.01 0.01 0.01 0.02 0.03 0.03 0.01 0.00 0.00 0.00 0.02 0.02 0.03 0.05 0.05 0.13 0.30 0.49 0.55 0.48 0.31 0.23 0.27 0.31 0.39
0.04 0.03 0.03 0.02 0.03 0.03 0.01 0.00 0.00 0.00 0.00 0.00 0.00 0.00 0.00 0.00 0.00 0.01 0.02 0.01 0.03 0.04 0.04 0.05 0.04 0.02 0.02 0.01 0.02 0.04 0.04 0.04 0.06 0.08 0.18 0.36 0.52 0.59 0.60 0.37 0.21 0.23 0.30
0.06 0.06 0.04 0.04 0.01 0.00 0.00 0.00 0.00 0.00 0.00 0.00 0.01 0.00 0.00 0.00 0.01 0.01 0.00 0.00 0.01 0.05 0.09 0.10 0.09 0.07 0.03 0.02 0.03 0.07 0.08 0.07 0.08 0.08 0.11 0.24 0.40 0.52 0.65 0.67 0.48 0.34 0.27
0.06 0.03 0.01 0.00 0.00 0.00 0.00 0.00 0.00 0.00 0.01 0.01 0.01 0.01 0.01 0.00 0.00 0.01 0.01 0.01 0.01 0.01 0.05 0.12 0.18 0.09 0.06 0.03 0.06 0.12 0.10 0.10 0.07 0.04 0.09 0.19 0.31 0.43 0.49 0.67 0.72 0.51 0.44
0.03 0.00 0.00 0.00 0.00 0.00 0.00 0.00 0.00 0.01 0.01 0.01 0.01 0.01 0.02 0.01 0.01 0.02 0.07 0.12 0.07 0.04 0.03 0.04 0.10 0.07 0.04 0.04 0.09 0.12 0.17 0.21 0.15 0.05 0.08 0.20 0.24 0.35 0.37 0.45 0.66 0.86 0.73
0.00 0.00 0.00 0.00 0.00 0.00 0.00 0.00 0.00 0.04 0.06 0.03 0.01 0.02 0.04 0.06 0.04 0.08 0.30 0.37 0.16 0.06 0.04 0.05 0.07 0.07 0.07 0.09 0.12 0.34 0.40 0.39 0.26 0.08 0.07 0.15 0.15 0.25 0.36 0.50 0.63 0.69 0.88
0.00 0.00 0.00 0.00 0.00 0.00 0.01 0.01 0.03 0.14 0.19 0.09 0.05 0.04 0.03 0.04 0.11 0.19 0.44 0.46 0.36 0.09 0.03 0.07 0.06 0.04 0.04 0.05 0.05 0.24 0.33 0.34 0.24 0.21 0.05 0.12 0.12 0.16 0.34 0.46 0.48 0.69 0.81

GFSMA_prec_precacc_048.txt.gz
Total_Precipitation_Accumulation
0.04 0.02 0.01 0.00 0.00 0.00 0.03 0.04 0.06 0.12 0.14 0.13 0.11 0.11 0.07 0.05 0.03 0.01 0.00 0.01 0.01 0.01 0.00 0.00 0.04 0.17 0.27 0.28 0.25 0.20 0.19 0.18 0.24 0.35 0.35 0.27 0.24 0.29 0.33 0.29 0.21 0.16 0.11
0.10 0.04 0.01 0.00 0.00 0.01 0.01 0.02 0.03 0.04 0.05 0.06 0.10 0.10 0.06 0.05 0.03 0.03 0.02 0.02 0.02 0.01 0.00 0.01 0.01 0.08 0.22 0.26 0.31 0.30 0.27 0.22 0.19 0.24 0.32 0.31 0.29 0.31 0.29 0.27 0.27 0.29 0.26
0.12 0.07 0.02 0.00 0.00 0.00 0.00 0.00 0.00 0.02 0.04 0.07 0.12 0.19 0.16 0.09 0.06 0.05 0.04 0.05 0.06 0.08 0.07 0.01 0.00 0.03 0.10 0.19 0.25 0.24 0.23 0.26 0.22 0.20 0.23 0.23 0.24 0.28 0.44 0.34 0.33 0.35 0.31
0.07 0.02 0.00 0.01 0.00 0.00 0.00 0.00 0.00 0.00 0.01 0.04 0.05 0.04 0.02 0.04 0.04 0.03 0.02 0.03 0.07 0.11 0.16 0.15 0.08 0.04 0.05 0.07 0.14 0.20 0.26 0.24 0.23 0.25 0.23 0.19 0.19 0.20 0.30 0.46 0.48 0.54 0.57
0.00 0.00 0.00 0.00 0.00 0.00 0.00 0.00 0.00 0.00 0.00 0.00 0.00 0.01 0.01 0.01 0.02 0.03 0.02 0.01 0.01 0.03 0.08 0.10 0.13 0.13 0.11 0.11 0.12 0.16 0.22 0.29 0.42 0.37 0.34 0.37 0.37 0.26 0.23 0.22 0.32 0.53 0.87
0.00 0.00 0.00 0.00 0.00 0.00 0.00 0.00 0.00 0.00 0.00 0.00 0.00 0.00 0.00 0.02 0.02 0.03 0.03 0.02 0.02 0.02 0.02 0.04 0.05 0.07 0.11 0.19 0.26 0.26 0.26 0.23 0.23 0.51 0.98 1.04 0.68 0.53 0.53 0.44 0.31 0.31 0.53
0.00 0.00 0.00 0.00 0.00 0.00 0.00 0.00 0.00 0.00 0.00 0.00 0.01 0.00 0.00 0.00 0.01 0.04 0.05 0.08 0.08 0.07 0.05 0.05 0.06 0.04 0.04 0.09 0.17 0.30 0.37 0.37 0.33 0.32 0.34 0.81 1.48 1.23 0.79 0.63 0.63 0.49 0.40
0.00 0.00 0.00 0.00 0.00 0.00 0.00 0.00 0.00 0.00 0.00 0.00 0.01 0.01 0.00 0.00 0.00 0.01 0.03 0.07 0.08 0.12 0.12 0.08 0.08 0.07 0.03 0.02 0.02 0.07 0.21 0.48 0.54 0.44 0.46 0.64 0.76 1.02 1.15 0.89 0.77 0.76 0.74
0.00 0.00 0.00 0.00 0.00 0.00 0.00 0.00 0.00 0.00 0.00 0.00 0.00 0.02 0.02 0.01 0.01 0.00 0.01 0.05 0.07 0.07 0.08 0.09 0.08 0.09 0.06 0.04 0.05 0.06 0.06 0.09 0.18 0.30 0.35 0.49 0.89 1.40 1.26 1.02 0.68 0.54 0.56
0.00 0.00 0.00 0.00 0.00 0.00 0.00 0.00 0.00 0.00 0.00 0.00 0.00 0.00 0.02 0.05 0.05 0.03 0.00 0.00 0.04 0.07 0.11 0.13 0.14 0.14 0.13 0.11 0.11 0.15 0.09 0.04 0.06 0.11 0.20 0.33 0.52 0.70 1.12 1.38 1.28 0.93 0.64
0.00 0.00 0.00 0.00 0.00 0.00 0.00 0.00 0.00 0.00 0.00 0.00 0.00 0.00 0.01 0.01 0.01 0.04 0.02 0.01 0.03 0.05 0.06 0.11 0.15 0.21 0.26 0.28 0.21 0.14 0.12 0.10 0.08 0.07 0.13 0.19 0.35 0.57 0.76 0.83 0.87 1.08 1.11
0.00 0.00 0.00 0.00 0.00 0.00 0.00 0.00 0.00 0.00 0.00 0.00 0.01 0.01 0.01 0.02 0.01 0.04 0.07 0.04 0.04 0.07 0.04 0.07 0.08 0.12 0.18 0.28 0.33 0.26 0.14 0.11 0.14 0.15 0.17 0.21 0.23 0.36 0.52 0.80 0.96 0.82 0.78
0.00 0.00 0.00 0.00 0.00 0.00 0.00 0.00 0.01 0.02 0.04 0.08 0.11 0.16 0.23 0.28 0.30 0.32 0.30 0.18 0.13 0.12 0.11 0.04 0.06 0.05 0.07 0.20 0.38 0.43 0.34 0.25 0.14 0.14 0.21 0.25 0.28 0.38 0.59 0.73 0.87 1.15 1.22
0.00 0.00 0.00 0.00 0.00 0.01 0.02 0.08 0.13 0.20 0.33 0.45 0.49 0.49 0.47 0.42 0.38 0.35 0.39 0.40 0.31 0.08 0.05 0.08 0.07 0.11 0.11 0.13 0.26 0.35 0.29 0.28 0.35 0.34 0.21 0.18 0.30 0.36 0.42 0.54 0.78 0.85 0.88
0.00 0.00 0.00 0.01 0.04 0.10 0.16 0.20 0.24 0.31 0.35 0.31 0.28 0.26 0.22 0.23 0.21 0.18 0.17 0.22 0.33 0.18 0.02 0.00 0.02 0.05 0.11 0.15 0.21 0.35 0.47 0.44 0.37 0.35 0.38 0.33 0.25 0.28 0.50 0.62 0.68 0.81 1.01
0.00 0.01 0.04 0.12 0.18 0.17 0.13 0.14 0.13 0.12 0.13 0.13 0.11 0.08 0.07 0.06 0.06 0.08 0.09 0.08 0.09 0.11 0.05 0.00 0.00 0.00 0.00 0.03 0.09 0.19 0.40 0.51 0.34 0.29 0.35 0.41 0.44 0.42 0.38 0.58 0.85 0.90 0.93
0.01 0.05 0.09 0.08 0.07 0.09 0.09 0.10 0.08 0.05 0.04 0.03 0.02 0.02 0.01 0.01 0.01 0.01 0.02 0.03 0.04 0.05 0.03 0.00 0.00 0.00 0.00 0.01 0.03 0.10 0.22 0.43 0.54 0.38 0.27 0.32 0.41 0.47 0.52 0.46 0.50 0.84 1.19
0.01 0.02 0.04 0.09 0.11 0.09 0.07 0.05 0.03 0.01 0.00 0.00 0.00 0.00 0.00 0.00 0.00 0.00 0.01 0.01 0.01 0.01 0.02 0.01 0.00 0.00 0.00 0.00 0.01 0.03 0.10 0.24 0.42 0.53 0.49 0.31 0.26 0.33 0.42 0.55 0.56 0.54 0.71
0.04 0.08 0.12 0.08 0.04 0.02 0.01 0.00 0.00 0.00 0.00 0.00 0.00 0.00 0.00 0.00 0.00 0.00 0.00 0.01 0.01 0.01 0.02 0.03 0.01 0.00 0.00 0.00 0.00 0.02 0.03 0.07 0.16 0.30 0.43 0.55 0.44 0.27 0.27 0.31 0.42 0.53 0.50
0.07 0.07 0.05 0.03 0.01 0.01 0.02 0.01 0.00 0.00 0.00 0.00 0.00 0.00 0.00 0.00 0.00 0.00 0.01 0.01 0.01 0.03 0.03 0.03 0.01 0.00 0.00 0.00 0.02 0.02 0.03 0.05 0.05 0.13 0.31 0.49 0.55 0.48 0.31 0.23 0.27 0.31 0.39
0.04 0.03 0.03 0.02 0.03 0.03 0.01 0.00 0.00 0.00 0.00 0.00 0.00 0.00 0.00 0.00 0.00 0.01 0.02 0.01 0.03 0.04 0.04 0.05 0.04 0.03 0.02 0.02 0.03 0.04 0.04 0.04 0.07 0.08 0.18 0.36 0.52 0.59 0.60 0.37 0.21 0.23 0.30
0.06 0.06 0.04 0.04 0.01 0.00 0.00 0.00 0.00 0.00 0.00 0.00 0.01 0.00 0.00 0.00 0.01 0.01 0.00 0.00 0.01 0.05 0.09 0.11 0.10 0.08 0.04 0.03 0.04 0.08 0.09 0.08 0.09 0.09 0.13 0.25 0.41 0.52 0.65 0.67 0.48 0.34 0.27
0.06 0.03 0.01 0.00 0.00 0.00 0.00 0.00 0.00 0.00 0.01 0.01 0.01 0.01 0.01 0.00 0.00 0.01 0.01 0.01 0.01 0.02 0.06 0.14 0.21 0.11 0.07 0.05 0.07 0.13 0.12 0.12 0.09 0.06 0.11 0.22 0.32 0.43 0.49 0.67 0.72 0.51 0.44
0.03 0.01 0.00 0.00 0.00 0.00 0.00 0.00 0.00 0.01 0.01 0.01 0.01 0.01 0.02 0.01 0.01 0.03 0.07 0.13 0.08 0.04 0.03 0.04 0.12 0.10 0.06 0.07 0.12 0.16 0.20 0.24 0.17 0.06 0.09 0.23 0.25 0.36 0.38 0.45 0.66 0.86 0.73
0.00 0.00 0.00 0.00 0.00 0.00 0.00 0.00 0.00 0.04 0.06 0.03 0.01 0.02 0.04 0.06 0.04 0.08 0.31 0.39 0.17 0.07 0.04 0.05 0.07 0.07 0.08 0.09 0.14 0.40 0.46 0.46 0.31 0.09 0.09 0.19 0.17 0.26 0.37 0.50 0.64 0.69 0.88
0.00 0.00 0.00 0.00 0.00 0.00 0.01 0.01 0.03 0.14 0.20 0.09 0.05 0.04 0.03 0.04 0.11 0.19 0.44 0.47 0.38 0.10 0.04 0.07 0.06 0.05 0.04 0.07 0.06 0.28 0.36 0.39 0.27 0.23 0.08 0.16 0.14 0.17 0.36 0.47 0.49 0.70 0.81

GFSMA_prec_precacc_054.txt.gz
Total_Precipitation_Accumulation
0.43 0.28 0.19 0.02 0.01 0.01 0.03 0.04 0.06 0.12 0.14 0.13 0.11 0.11 0.07 0.05 0.03 0.01 0.00 0.01 0.01 0.01 0.00 0.00 0.04 0.17 0.27 0.28 0.25 0.20 0.19 0.18 0.24 0.35 0.35 0.28 0.25 0.29 0.33 0.29 0.21 0.16 0.12
0.18 0.09 0.07 0.05 0.03 0.02 0.01 0.02 0.03 0.04 0.05 0.06 0.10 0.10 0.06 0.05 0.03 0.03 0.02 0.02 0.02 0.01 0.00 0.01 0.01 0.08 0.22 0.26 0.31 0.30 0.27 0.22 0.19 0.24 0.32 0.32 0.30 0.31 0.29 0.27 0.27 0.29 0.26
0.12 0.08 0.04 0.02 0.01 0.00 0.00 0.00 0.00 0.02 0.04 0.07 0.12 0.19 0.16 0.09 0.06 0.05 0.04 0.05 0.06 0.08 0.07 0.01 0.00 0.03 0.10 0.19 0.25 0.24 0.23 0.26 0.22 0.20 0.23 0.24 0.25 0.30 0.45 0.34 0.33 0.36 0.31
0.07 0.02 0.00 0.01 0.00 0.00 0.00 0.00 0.00 0.00 0.01 0.04 0.05 0.04 0.02 0.04 0.04 0.03 0.02 0.03 0.07 0.11 0.16 0.15 0.08 0.04 0.05 0.07 0.14 0.20 0.26 0.24 0.23 0.25 0.24 0.19 0.20 0.21 0.31 0.47 0.48 0.54 0.57
0.00 0.00 0.00 0.00 0.00 0.00 0.00 0.00 0.00 0.00 0.00 0.00 0.00 0.01 0.01 0.01 0.02 0.03 0.02 0.01 0.01 0.03 0.08 0.10 0.13 0.13 0.11 0.11 0.12 0.16 0.22 0.29 0.42 0.37 0.34 0.38 0.37 0.26 0.23 0.23 0.32 0.54 0.88
0.00 0.00 0.00 0.00 0.00 0.00 0.00 0.00 0.00 0.00 0.00 0.00 0.00 0.00 0.00 0.02 0.02 0.03 0.03 0.02 0.02 0.02 0.02 0.04 0.05 0.07 0.11 0.19 0.26 0.26 0.26 0.23 0.23 0.51 0.98 1.04 0.68 0.54 0.53 0.44 0.31 0.32 0.55
0.00 0.00 0.00 0.00 0.00 0.00 0.00 0.00 0.00 0.00 0.00 0.00 0.01 0.00 0.00 0.00 0.01 0.04 0.05 0.08 0.08 0.07 0.05 0.05 0.06 0.04 0.04 0.09 0.17 0.30 0.37 0.37 0.33 0.32 0.34 0.81 1.48 1.24 0.79 0.63 0.63 0.49 0.42
0.00 0.00 0.00 0.00 0.00 0.00 0.00 0.00 0.00 0.00 0.00 0.00 0.01 0.01 0.00 0.00 0.00 0.01 0.03 0.07 0.08 0.12 0.12 0.08 0.08 0.07 0.03 0.02 0.02 0.07 0.21 0.48 0.54 0.44 0.46 0.64 0.76 1.02 1.15 0.89 0.77 0.76 0.75
0.00 0.00 0.00 0.00 0.00 0.00 0.00 0.00 0.00 0.00 0.00 0.00 0.00 0.02 0.02 0.01 0.01 0.00 0.01 0.05 0.07 0.07 0.08 0.09 0.08 0.09 0.06 0.04 0.05 0.06 0.06 0.09 0.18 0.30 0.35 0.49 0.89 1.40 1.26 1.02 0.68 0.55 0.56
0.00 0.00 0.00 0.00 0.00 0.00 0.00 0.00 0.00 0.00 0.00 0.00 0.00 0.00 0.02 0.05 0.05 0.03 0.00 0.00 0.04 0.07 0.11 0.13 0.14 0.14 0.13 0.11 0.11 0.15 0.09 0.04 0.06 0.11 0.20 0.33 0.52 0.70 1.12 1.38 1.28 0.93 0.64
0.00 0.00 0.00 0.00 0.00 0.00 0.00 0.00 0.00 0.00 0.00 0.00 0.00 0.00 0.01 0.01 0.02 0.07 0.05 0.02 0.03 0.05 0.06 0.11 0.15 0.21 0.26 0.28 0.21 0.14 0.12 0.10 0.08 0.07 0.13 0.19 0.35 0.57 0.76 0.83 0.87 1.08 1.11
0.00 0.00 0.00 0.00 0.00 0.00 0.00 0.00 0.00 0.00 0.00 0.01 0.01 0.03 0.05 0.06 0.06 0.09 0.14 0.08 0.05 0.07 0.04 0.07 0.08 0.12 0.18 0.28 0.33 0.26 0.14 0.11 0.14 0.15 0.17 0.21 0.23 0.36 0.52 0.80 0.96 0.82 0.78
0.00 0.00 0.00 0.00 0.00 0.00 0.00 0.01 0.02 0.03 0.06 0.11 0.14 0.19 0.27 0.31 0.33 0.35 0.34 0.21 0.13 0.12 0.11 0.04 0.06 0.05 0.07 0.20 0.38 0.43 0.34 0.25 0.14 0.14 0.21 0.25 0.28 0.38 0.59 0.73 0.87 1.15 1.22
0.00 0.00 0.00 0.00 0.00 0.01 0.02 0.08 0.14 0.22 0.36 0.50 0.54 0.54 0.51 0.46 0.40 0.37 0.40 0.41 0.31 0.08 0.05 0.08 0.07 0.11 0.11 0.13 0.26 0.35 0.29 0.28 0.35 0.34 0.21 0.18 0.30 0.36 0.42 0.54 0.78 0.85 0.88
0.00 0.00 0.00 0.01 0.04 0.10 0.16 0.20 0.25 0.33 0.39 0.35 0.33 0.31 0.26 0.24 0.22 0.18 0.17 0.22 0.34 0.18 0.02 0.00 0.02 0.05 0.11 0.15 0.21 0.35 0.47 0.44 0.37 0.35 0.38 0.33 0.25 0.28 0.50 0.62 0.68 0.81 1.01
0.00 0.01 0.04 0.12 0.18 0.17 0.13 0.14 0.15 0.15 0.16 0.16 0.14 0.11 0.09 0.07 0.06 0.08 0.09 0.08 0.09 0.11 0.05 0.00 0.00 0.00 0.00 0.03 0.09 0.19 0.40 0.51 0.34 0.29 0.35 0.41 0.44 0.42 0.38 0.58 0.86 0.90 0.93
0.01 0.05 0.09 0.08 0.07 0.09 0.09 0.10 0.09 0.07 0.06 0.04 0.02 0.02 0.02 0.02 0.01 0.01 0.02 0.03 0.04 0.05 0.03 0.00 0.00 0.00 0.00 0.01 0.03 0.10 0.22 0.43 0.54 0.38 0.27 0.33 0.41 0.47 0.53 0.47 0.50 0.84 1.19
0.01 0.02 0.04 0.09 0.11 0.09 0.07 0.05 0.03 0.01 0.00 0.00 0.01 0.00 0.00 0.00 0.00 0.00 0.01 0.01 0.01 0.01 0.02 0.01 0.00 0.00 0.00 0.00 0.01 0.03 0.10 0.24 0.42 0.53 0.49 0.31 0.26 0.33 0.42 0.55 0.56 0.54 0.71
0.04 0.08 0.12 0.08 0.04 0.02 0.01 0.00 0.00 0.00 0.00 0.00 0.00 0.00 0.00 0.00 0.00 0.00 0.00 0.01 0.01 0.01 0.02 0.03 0.01 0.00 0.00 0.00 0.00 0.02 0.03 0.07 0.16 0.30 0.43 0.55 0.45 0.28 0.27 0.32 0.42 0.53 0.50
0.07 0.07 0.05 0.03 0.01 0.01 0.02 0.01 0.00 0.00 0.00 0.00 0.01 0.01 0.00 0.00 0.00 0.00 0.01 0.01 0.01 0.03 0.03 0.03 0.01 0.00 0.00 0.00 0.02 0.03 0.04 0.05 0.06 0.13 0.31 0.49 0.55 0.48 0.31 0.24 0.27 0.31 0.39
0.04 0.03 0.03 0.02 0.03 0.04 0.02 0.00 0.00 0.00 0.01 0.01 0.00 0.00 0.00 0.00 0.00 0.01 0.02 0.01 0.03 0.04 0.04 0.05 0.04 0.03 0.02 0.02 0.04 0.05 0.05 0.06 0.07 0.09 0.18 0.36 0.52 0.60 0.61 0.38 0.22 0.24 0.30
0.06 0.06 0.04 0.04 0.01 0.00 0.00 0.00 0.00 0.00 0.00 0.00 0.01 0.00 0.00 0.00 0.01 0.01 0.00 0.00 0.01 0.05 0.10 0.12 0.12 0.10 0.05 0.04 0.07 0.13 0.13 0.11 0.11 0.11 0.16 0.27 0.43 0.54 0.66 0.69 0.51 0.35 0.27
0.06 0.03 0.01 0.00 0.01 0.03 0.00 0.00 0.00 0.00 0.01 0.01 0.01 0.01 0.01 0.00 0.00 0.01 0.01 0.01 0.01 0.02 0.09 0.17 0.26 0.15 0.13 0.10 0.11 0.17 0.14 0.14 0.12 0.08 0.15 0.25 0.35 0.46 0.50 0.68 0.72 0.52 0.44
0.03 0.01 0.00 0.01 0.02 0.03 0.00 0.00 0.00 0.01 0.01 0.01 0.01 0.01 0.02 0.01 0.01 0.03 0.07 0.13 0.09 0.05 0.04 0.05 0.14 0.12 0.08 0.07 0.12 0.17 0.22 0.27 0.19 0.07 0.11 0.27 0.26 0.38 0.39 0.46 0.67 0.86 0.73
0.00 0.00 0.00 0.01 0.02 0.03 0.00 0.00 0.00 0.04 0.06 0.03 0.01 0.02 0.04 0.06 0.04 0.08 0.31 0.39 0.18 0.07 0.04 0.06 0.08 0.08 0.08 0.09 0.15 0.44 0.50 0.52 0.38 0.14 0.14 0.25 0.20 0.29 0.38 0.51 0.65 0.70 0.88
0.00 0.00 0.00 0.01 0.01 0.01 0.01 0.01 0.03 0.14 0.20 0.10 0.05 0.04 0.03 0.04 0.11 0.19 0.45 0.47 0.39 0.11 0.04 0.07 0.07 0.05 0.05 0.08 0.09 0.33 0.47 0.55 0.36 0.29 0.12 0.25 0.19 0.22 0.41 0.52 0.52 0.71 0.82

GFSMA_prec_precacc_060.txt.gz
Total_Precipitation_Accumulation
0.44 0.30 0.20 0.03 0.01 0.01 0.04 0.04 0.07 0.12 0.14 0.13 0.11 0.11 0.07 0.05 0.03 0.01 0.00 0.01 0.01 0.01 0.00 0.00 0.04 0.17 0.27 0.28 0.25 0.20 0.19 0.18 0.24 0.36 0.36 0.28 0.25 0.31 0.35 0.30 0.22 0.16 0.12
0.21 0.12 0.08 0.06 0.04 0.02 0.01 0.03 0.03 0.04 0.05 0.06 0.10 0.10 0.06 0.05 0.03 0.03 0.02 0.02 0.02 0.01 0.00 0.01 0.01 0.08 0.22 0.26 0.31 0.30 0.27 0.22 0.19 0.24 0.33 0.32 0.30 0.32 0.30 0.29 0.29 0.30 0.27
0.12 0.08 0.04 0.02 0.01 0.00 0.00 0.00 0.00 0.02 0.04 0.07 0.12 0.19 0.16 0.09 0.06 0.05 0.04 0.05 0.06 0.08 0.07 0.01 0.00 0.03 0.10 0.19 0.25 0.24 0.23 0.26 0.22 0.20 0.24 0.24 0.25 0.30 0.46 0.34 0.34 0.37 0.31
0.07 0.02 0.00 0.01 0.00 0.00 0.00 0.00 0.00 0.00 0.01 0.04 0.05 0.04 0.02 0.04 0.04 0.03 0.02 0.03 0.07 0.11 0.16 0.15 0.08 0.04 0.05 0.07 0.14 0.20 0.26 0.24 0.23 0.25 0.24 0.19 0.20 0.21 0.32 0.47 0.48 0.55 0.58
0.00 0.00 0.00 0.00 0.00 0.00 0.00 0.00 0.00 0.00 0.00 0.00 0.00 0.01 0.01 0.01 0.02 0.03 0.02 0.01 0.01 0.03 0.08 0.10 0.13 0.13 0.11 0.11 0.12 0.16 0.22 0.29 0.42 0.37 0.34 0.38 0.37 0.26 0.24 0.23 0.32 0.54 0.88
0.00 0.00 0.00 0.00 0.00 0.00 0.00 0.00 0.00 0.00 0.00 0.00 0.00 0.00 0.00 0.02 0.02 0.03 0.03 0.02 0.02 0.02 0.02 0.04 0.05 0.07 0.11 0.19 0.26 0.26 0.26 0.23 0.24 0.51 0.98 1.04 0.68 0.54 0.53 0.44 0.31 0.32 0.55
0.00 0.00 0.00 0.00 0.00 0.00 0.00 0.00 0.00 0.00 0.00 0.00 0.01 0.00 0.00 0.00 0.01 0.04 0.05 0.08 0.08 0.07 0.05 0.05 0.06 0.04 0.04 0.09 0.17 0.30 0.37 0.37 0.33 0.32 0.34 0.81 1.48 1.24 0.79 0.63 0.63 0.49 0.42
0.00 0.00 0.00 0.00 0.00 0.00 0.00 0.00 0.00 0.00 0.00 0.00 0.01 0.01 0.00 0.00 0.00 0.01 0.03 0.07 0.08 0.12 0.12 0.08 0.08 0.07 0.03 0.02 0.02 0.07 0.21 0.48 0.54 0.44 0.46 0.64 0.76 1.02 1.15 0.89 0.77 0.76 0.75
0.00 0.00 0.00 0.00 0.00 0.00 0.00 0.00 0.00 0.00 0.00 0.00 0.00 0.02 0.02 0.01 0.01 0.00 0.01 0.05 0.07 0.07 0.08 0.09 0.08 0.09 0.06 0.04 0.05 0.06 0.06 0.09 0.18 0.30 0.35 0.49 0.89 1.40 1.26 1.02 0.68 0.55 0.56
0.00 0.00 0.00 0.00 0.00 0.00 0.00 0.00 0.00 0.00 0.00 0.00 0.00 0.00 0.02 0.05 0.05 0.03 0.00 0.00 0.04 0.07 0.11 0.13 0.14 0.14 0.13 0.11 0.11 0.15 0.09 0.04 0.06 0.11 0.20 0.33 0.52 0.70 1.12 1.38 1.28 0.93 0.64
0.00 0.00 0.00 0.00 0.00 0.00 0.00 0.00 0.00 0.00 0.00 0.00 0.00 0.00 0.01 0.01 0.02 0.07 0.05 0.02 0.03 0.05 0.06 0.11 0.15 0.21 0.26 0.28 0.21 0.14 0.12 0.10 0.08 0.07 0.13 0.19 0.35 0.57 0.76 0.83 0.87 1.08 1.11
0.00 0.00 0.00 0.00 0.00 0.00 0.00 0.00 0.00 0.00 0.00 0.01 0.01 0.03 0.05 0.06 0.06 0.09 0.14 0.08 0.05 0.07 0.04 0.07 0.08 0.12 0.18 0.28 0.33 0.26 0.14 0.11 0.14 0.15 0.17 0.21 0.23 0.36 0.52 0.80 0.96 0.82 0.78
0.00 0.00 0.00 0.00 0.00 0.00 0.00 0.01 0.02 0.03 0.06 0.11 0.14 0.19 0.27 0.31 0.33 0.35 0.36 0.22 0.14 0.12 0.11 0.04 0.06 0.05 0.07 0.20 0.38 0.43 0.34 0.25 0.14 0.14 0.21 0.25 0.28 0.38 0.59 0.73 0.87 1.15 1.22
0.00 0.01 0.00 0.00 0.00 0.01 0.02 0.08 0.14 0.22 0.36 0.50 0.54 0.54 0.51 0.46 0.41 0.37 0.41 0.42 0.33 0.08 0.05 0.08 0.07 0.11 0.11 0.13 0.26 0.35 0.29 0.28 0.35 0.34 0.21 0.18 0.30 0.36 0.42 0.54 0.78 0.85 0.88
0.00 0.00 0.00 0.01 0.04 0.10 0.16 0.20 0.25 0.33 0.39 0.35 0.33 0.31 0.26 0.24 0.22 0.18 0.17 0.23 0.35 0.19 0.02 0.00 0.02 0.05 0.11 0.15 0.21 0.35 0.47 0.44 0.37 0.35 0.38 0.33 0.25 0.28 0.50 0.62 0.68 0.81 1.01
0.00 0.01 0.04 0.12 0.18 0.17 0.13 0.14 0.15 0.15 0.16 0.16 0.14 0.11 0.09 0.07 0.06 0.08 0.09 0.08 0.09 0.13 0.05 0.00 0.00 0.00 0.00 0.03 0.09 0.19 0.40 0.51 0.34 0.29 0.35 0.41 0.44 0.42 0.38 0.58 0.86 0.91 0.94
0.01 0.05 0.09 0.08 0.07 0.09 0.09 0.10 0.09 0.07 0.06 0.04 0.02 0.02 0.02 0.02 0.01 0.01 0.02 0.03 0.05 0.05 0.03 0.00 0.00 0.00 0.00 0.01 0.03 0.10 0.22 0.43 0.54 0.38 0.27 0.33 0.41 0.47 0.53 0.47 0.50 0.85 1.20
0.01 0.02 0.04 0.09 0.11 0.09 0.07 0.05 0.03 0.01 0.00 0.00 0.01 0.00 0.00 0.00 0.00 0.00 0.01 0.01 0.01 0.01 0.02 0.01 0.00 0.00 0.00 0.00 0.01 0.03 0.10 0.24 0.42 0.53 0.49 0.31 0.26 0.33 0.42 0.55 0.56 0.55 0.71
0.04 0.08 0.12 0.08 0.04 0.02 0.01 0.00 0.00 0.00 0.00 0.00 0.00 0.00 0.00 0.00 0.00 0.00 0.00 0.01 0.01 0.01 0.02 0.03 0.01 0.00 0.00 0.00 0.00 0.02 0.03 0.07 0.16 0.30 0.43 0.55 0.45 0.28 0.28 0.32 0.42 0.53 0.50
0.07 0.07 0.05 0.03 0.01 0.01 0.02 0.01 0.00 0.00 0.00 0.00 0.01 0.01 0.00 0.00 0.00 0.00 0.01 0.01 0.01 0.03 0.03 0.03 0.01 0.00 0.00 0.00 0.02 0.03 0.04 0.05 0.06 0.13 0.31 0.49 0.55 0.48 0.31 0.24 0.28 0.31 0.40
0.04 0.03 0.03 0.02 0.03 0.04 0.02 0.00 0.00 0.00 0.01 0.01 0.00 0.00 0.00 0.00 0.00 0.01 0.02 0.01 0.03 0.04 0.04 0.05 0.04 0.03 0.02 0.02 0.04 0.06 0.07 0.06 0.07 0.09 0.18 0.36 0.52 0.60 0.61 0.38 0.22 0.25 0.31
0.06 0.06 0.04 0.04 0.01 0.00 0.00 0.00 0.00 0.00 0.00 0.01 0.01 0.00 0.00 0.00 0.01 0.01 0.00 0.00 0.01 0.05 0.10 0.12 0.12 0.10 0.06 0.06 0.10 0.15 0.14 0.11 0.12 0.11 0.16 0.27 0.43 0.54 0.66 0.69 0.51 0.35 0.27
0.06 0.03 0.01 0.00 0.01 0.03 0.00 0.00 0.00 0.00 0.01 0.01 0.01 0.01 0.01 0.00 0.00 0.01 0.01 0.01 0.01 0.02 0.09 0.17 0.26 0.16 0.15 0.11 0.12 0.17 0.14 0.15 0.12 0.08 0.16 0.25 0.35 0.46 0.50 0.68 0.72 0.52 0.44
0.03 0.01 0.00 0.01 0.02 0.03 0.00 0.00 0.00 0.01 0.01 0.01 0.01 0.01 0.02 0.01 0.01 0.03 0.07 0.13 0.09 0.05 0.04 0.05 0.14 0.12 0.08 0.07 0.13 0.18 0.24 0.27 0.20 0.07 0.12 0.35 0.26 0.38 0.39 0.46 0.67 0.86 0.73
0.00 0.00 0.00 0.01 0.02 0.03 0.00 0.00 0.00 0.04 0.06 0.03 0.01 0.02 0.04 0.06 0.04 0.08 0.31 0.39 0.18 0.07 0.04 0.06 0.08 0.08 0.08 0.09 0.15 0.46 0.53 0.56 0.40 0.15 0.15 0.27 0.20 0.29 0.38 0.51 0.65 0.70 0.89
0.00 0.00 0.00 0.01 0.01 0.01 0.01 0.01 0.03 0.14 0.20 0.10 0.05 0.04 0.03 0.04 0.11 0.19 0.45 0.47 0.39 0.11 0.04 0.07 0.07 0.05 0.05 0.08 0.09 0.35 0.50 0.59 0.38 0.30 0.12 0.26 0.19 0.23 0.45 0.52 0.52 0.71 0.82

GFSMA_prec_precacc_063.txt.gz
Total_Precipitation_Accumulation
0.44 0.30 0.20 0.03 0.01 0.01 0.04 0.04 0.07 0.12 0.14 0.13 0.11 0.11 0.07 0.05 0.03 0.01 0.00 0.01 0.01 0.01 0.00 0.00 0.04 0.17 0.27 0.28 0.25 0.20 0.19 0.18 0.24 0.36 0.36 0.28 0.25 0.31 0.35 0.30 0.22 0.16 0.13
0.21 0.12 0.08 0.06 0.04 0.02 0.01 0.03 0.03 0.04 0.05 0.06 0.10 0.10 0.06 0.05 0.03 0.03 0.02 0.02 0.02 0.01 0.00 0.01 0.01 0.08 0.22 0.26 0.31 0.30 0.27 0.22 0.19 0.24 0.33 0.32 0.30 0.32 0.30 0.29 0.29 0.30 0.27
0.12 0.08 0.04 0.02 0.01 0.00 0.00 0.00 0.00 0.02 0.04 0.07 0.12 0.19 0.16 0.09 0.06 0.05 0.04 0.05 0.06 0.08 0.07 0.01 0.00 0.03 0.10 0.19 0.25 0.24 0.23 0.26 0.22 0.20 0.24 0.24 0.25 0.30 0.46 0.34 0.34 0.37 0.31
0.07 0.02 0.00 0.01 0.00 0.00 0.00 0.00 0.00 0.00 0.01 0.04 0.05 0.04 0.02 0.04 0.04 0.03 0.02 0.03 0.07 0.11 0.16 0.15 0.08 0.04 0.05 0.07 0.14 0.20 0.26 0.24 0.23 0.25 0.24 0.19 0.20 0.21 0.32 0.47 0.48 0.55 0.58
0.00 0.00 0.00 0.00 0.00 0.00 0.00 0.00 0.00 0.00 0.00 0.00 0.00 0.01 0.01 0.01 0.02 0.03 0.02 0.01 0.01 0.03 0.08 0.10 0.13 0.13 0.11 0.11 0.12 0.16 0.22 0.30 0.42 0.37 0.34 0.38 0.37 0.26 0.24 0.23 0.32 0.54 0.88
0.00 0.00 0.00 0.00 0.00 0.00 0.00 0.00 0.00 0.00 0.00 0.00 0.00 0.00 0.00 0.02 0.02 0.03 0.03 0.02 0.02 0.02 0.02 0.04 0.05 0.07 0.11 0.19 0.26 0.26 0.26 0.23 0.24 0.51 0.98 1.04 0.68 0.54 0.53 0.44 0.31 0.32 0.55
0.00 0.00 0.00 0.00 0.00 0.00 0.00 0.00 0.00 0.00 0.00 0.00 0.01 0.00 0.00 0.00 0.01 0.04 0.05 0.08 0.08 0.07 0.05 0.05 0.06 0.04 0.04 0.09 0.17 0.30 0.37 0.37 0.33 0.32 0.35 0.81 1.48 1.24 0.79 0.63 0.63 0.49 0.42
0.00 0.00 0.00 0.00 0.00 0.00 0.00 0.00 0.00 0.00 0.00 0.00 0.01 0.01 0.00 0.00 0.00 0.01 0.03 0.07 0.08 0.12 0.12 0.08 0.08 0.07 0.03 0.02 0.02 0.07 0.21 0.48 0.54 0.44 0.46 0.64 0.76 1.02 1.15 0.89 0.77 0.76 0.75
0.00 0.00 0.00 0.00 0.00 0.00 0.00 0.00 0.00 0.00 0.00 0.00 0.00 0.02 0.02 0.01 0.01 0.00 0.01 0.05 0.07 0.07 0.08 0.09 0.08 0.09 0.06 0.04 0.05 0.06 0.06 0.09 0.18 0.30 0.35 0.49 0.89 1.40 1.26 1.02 0.68 0.55 0.56
0.00 0.00 0.00 0.00 0.00 0.00 0.00 0.00 0.00 0.00 0.00 0.00 0.00 0.00 0.02 0.05 0.05 0.03 0.00 0.00 0.04 0.07 0.11 0.13 0.14 0.14 0.13 0.11 0.11 0.15 0.09 0.04 0.06 0.11 0.20 0.33 0.52 0.70 1.12 1.38 1.28 0.93 0.64
0.00 0.00 0.00 0.00 0.00 0.00 0.00 0.00 0.00 0.00 0.00 0.00 0.00 0.00 0.01 0.01 0.02 0.07 0.05 0.02 0.03 0.05 0.06 0.11 0.15 0.21 0.26 0.28 0.21 0.14 0.12 0.10 0.08 0.07 0.13 0.19 0.35 0.57 0.76 0.83 0.87 1.08 1.11
0.00 0.00 0.00 0.00 0.00 0.00 0.00 0.00 0.00 0.00 0.00 0.01 0.01 0.03 0.05 0.06 0.06 0.09 0.14 0.08 0.05 0.07 0.04 0.07 0.08 0.12 0.18 0.28 0.33 0.26 0.14 0.11 0.14 0.15 0.17 0.21 0.23 0.36 0.52 0.80 0.96 0.82 0.78
0.00 0.00 0.01 0.01 0.00 0.00 0.00 0.01 0.02 0.03 0.06 0.11 0.14 0.19 0.27 0.31 0.33 0.35 0.36 0.23 0.14 0.12 0.11 0.04 0.06 0.05 0.07 0.20 0.38 0.43 0.34 0.25 0.14 0.14 0.21 0.25 0.28 0.38 0.59 0.73 0.87 1.15 1.22
0.01 0.02 0.01 0.00 0.00 0.01 0.02 0.08 0.14 0.22 0.36 0.50 0.54 0.54 0.51 0.46 0.41 0.37 0.41 0.42 0.33 0.08 0.05 0.08 0.07 0.11 0.11 0.13 0.26 0.35 0.29 0.28 0.35 0.34 0.21 0.18 0.30 0.36 0.42 0.54 0.78 0.85 0.88
0.02 0.00 0.00 0.01 0.04 0.10 0.16 0.20 0.25 0.33 0.39 0.35 0.33 0.31 0.26 0.24 0.22 0.18 0.17 0.23 0.35 0.19 0.02 0.00 0.02 0.05 0.11 0.15 0.21 0.35 0.47 0.44 0.37 0.35 0.38 0.33 0.25 0.28 0.50 0.62 0.68 0.81 1.01
0.01 0.01 0.04 0.12 0.18 0.17 0.13 0.14 0.15 0.15 0.16 0.16 0.14 0.11 0.09 0.07 0.06 0.08 0.09 0.08 0.09 0.15 0.08 0.00 0.00 0.00 0.00 0.03 0.09 0.19 0.40 0.51 0.34 0.29 0.35 0.41 0.44 0.42 0.38 0.58 0.86 0.91 0.94
0.01 0.05 0.09 0.08 0.07 0.09 0.09 0.10 0.09 0.07 0.06 0.04 0.02 0.02 0.02 0.02 0.01 0.01 0.02 0.03 0.05 0.07 0.03 0.00 0.00 0.00 0.00 0.01 0.03 0.10 0.22 0.43 0.54 0.38 0.27 0.33 0.41 0.47 0.53 0.47 0.50 0.85 1.20
0.01 0.02 0.04 0.09 0.11 0.09 0.07 0.05 0.03 0.01 0.00 0.00 0.01 0.00 0.00 0.00 0.00 0.00 0.01 0.01 0.01 0.01 0.02 0.01 0.00 0.00 0.00 0.00 0.01 0.03 0.10 0.24 0.42 0.53 0.49 0.31 0.26 0.33 0.42 0.55 0.56 0.55 0.71
0.04 0.08 0.12 0.08 0.04 0.02 0.01 0.00 0.00 0.00 0.00 0.00 0.00 0.00 0.00 0.00 0.00 0.00 0.00 0.01 0.01 0.01 0.02 0.03 0.01 0.00 0.00 0.00 0.00 0.02 0.03 0.07 0.16 0.30 0.43 0.55 0.45 0.28 0.28 0.32 0.42 0.53 0.50
0.07 0.07 0.05 0.03 0.01 0.01 0.02 0.01 0.00 0.00 0.00 0.00 0.01 0.01 0.00 0.00 0.00 0.00 0.01 0.01 0.01 0.03 0.03 0.03 0.01 0.00 0.00 0.00 0.02 0.03 0.04 0.05 0.06 0.13 0.31 0.49 0.55 0.48 0.31 0.24 0.28 0.31 0.40
0.04 0.03 0.03 0.02 0.03 0.04 0.02 0.00 0.00 0.00 0.01 0.01 0.00 0.00 0.00 0.00 0.00 0.01 0.02 0.01 0.03 0.04 0.04 0.05 0.04 0.03 0.02 0.02 0.04 0.06 0.08 0.06 0.07 0.09 0.18 0.36 0.52 0.60 0.61 0.38 0.22 0.25 0.31
0.06 0.06 0.04 0.04 0.01 0.00 0.00 0.00 0.00 0.00 0.00 0.01 0.01 0.00 0.00 0.00 0.01 0.01 0.00 0.00 0.01 0.05 0.10 0.12 0.12 0.10 0.06 0.06 0.10 0.15 0.14 0.12 0.12 0.11 0.16 0.27 0.43 0.54 0.66 0.69 0.51 0.35 0.27
0.06 0.03 0.01 0.00 0.01 0.03 0.00 0.00 0.00 0.00 0.01 0.01 0.01 0.01 0.01 0.00 0.00 0.01 0.01 0.01 0.01 0.02 0.09 0.17 0.26 0.16 0.15 0.11 0.12 0.17 0.14 0.15 0.13 0.08 0.16 0.26 0.35 0.46 0.50 0.68 0.72 0.52 0.44
0.03 0.01 0.00 0.01 0.02 0.03 0.00 0.00 0.00 0.01 0.01 0.01 0.01 0.01 0.02 0.01 0.01 0.03 0.07 0.13 0.09 0.05 0.04 0.05 0.14 0.12 0.08 0.07 0.13 0.18 0.25 0.28 0.20 0.07 0.12 0.35 0.26 0.38 0.39 0.46 0.67 0.86 0.73
0.00 0.00 0.00 0.01 0.02 0.03 0.00 0.00 0.00 0.04 0.06 0.03 0.01 0.02 0.04 0.06 0.04 0.08 0.31 0.39 0.18 0.07 0.04 0.06 0.08 0.08 0.08 0.09 0.15 0.46 0.53 0.56 0.40 0.15 0.15 0.27 0.20 0.29 0.38 0.51 0.65 0.70 0.89
0.00 0.00 0.00 0.01 0.01 0.01 0.01 0.01 0.03 0.14 0.20 0.10 0.05 0.04 0.03 0.04 0.11 0.19 0.45 0.47 0.39 0.11 0.04 0.07 0.07 0.05 0.05 0.08 0.09 0.35 0.50 0.59 0.39 0.31 0.12 0.26 0.19 0.25 0.49 0.52 0.52 0.71 0.82

GFSMA_prec_precacc_066.txt.gz
Total_Precipitation_Accumulation
0.44 0.30 0.20 0.03 0.01 0.01 0.04 0.04 0.07 0.12 0.14 0.13 0.11 0.11 0.07 0.05 0.03 0.01 0.00 0.01 0.01 0.01 0.00 0.00 0.04 0.17 0.27 0.28 0.25 0.20 0.19 0.18 0.24 0.36 0.36 0.28 0.25 0.31 0.35 0.30 0.22 0.16 0.13
0.21 0.12 0.08 0.06 0.04 0.02 0.01 0.03 0.03 0.04 0.05 0.06 0.10 0.10 0.06 0.05 0.03 0.03 0.02 0.02 0.02 0.01 0.00 0.01 0.01 0.08 0.22 0.26 0.31 0.30 0.27 0.22 0.19 0.24 0.33 0.32 0.30 0.32 0.30 0.29 0.29 0.30 0.27
0.12 0.08 0.04 0.02 0.01 0.00 0.00 0.00 0.00 0.02 0.04 0.07 0.12 0.19 0.16 0.09 0.06 0.05 0.04 0.05 0.06 0.08 0.07 0.01 0.00 0.03 0.10 0.19 0.25 0.24 0.23 0.26 0.22 0.20 0.24 0.24 0.25 0.30 0.46 0.34 0.34 0.37 0.31
0.07 0.02 0.00 0.01 0.00 0.00 0.00 0.00 0.00 0.00 0.01 0.04 0.05 0.04 0.02 0.04 0.04 0.03 0.02 0.03 0.07 0.11 0.16 0.15 0.08 0.04 0.05 0.07 0.14 0.20 0.26 0.24 0.23 0.25 0.24 0.19 0.20 0.21 0.32 0.47 0.48 0.55 0.58
0.00 0.00 0.00 0.00 0.00 0.00 0.00 0.00 0.00 0.00 0.00 0.00 0.00 0.01 0.01 0.01 0.02 0.03 0.02 0.01 0.01 0.03 0.08 0.10 0.13 0.13 0.11 0.11 0.12 0.16 0.22 0.30 0.42 0.37 0.34 0.38 0.37 0.26 0.24 0.23 0.32 0.54 0.88
0.00 0.00 0.00 0.00 0.00 0.00 0.00 0.00 0.00 0.00 0.00 0.00 0.00 0.00 0.00 0.02 0.02 0.03 0.03 0.02 0.02 0.02 0.02 0.04 0.05 0.07 0.11 0.19 0.26 0.26 0.26 0.23 0.25 0.52 0.99 1.04 0.68 0.54 0.53 0.44 0.31 0.32 0.55
0.00 0.00 0.00 0.00 0.00 0.00 0.00 0.00 0.00 0.00 0.00 0.00 0.01 0.00 0.00 0.00 0.01 0.04 0.05 0.08 0.08 0.07 0.05 0.05 0.06 0.04 0.04 0.09 0.17 0.30 0.37 0.37 0.33 0.32 0.36 0.83 1.49 1.24 0.79 0.63 0.63 0.49 0.42
0.00 0.00 0.00 0.00 0.00 0.00 0.00 0.00 0.00 0.00 0.00 0.00 0.01 0.01 0.00 0.00 0.00 0.01 0.03 0.07 0.08 0.12 0.12 0.08 0.08 0.07 0.03 0.02 0.02 0.07 0.21 0.48 0.54 0.44 0.46 0.64 0.76 1.02 1.15 0.89 0.77 0.76 0.75
0.00 0.00 0.00 0.00 0.00 0.00 0.00 0.00 0.00 0.00 0.00 0.00 0.00 0.02 0.02 0.01 0.01 0.00 0.01 0.05 0.07 0.07 0.08 0.09 0.08 0.09 0.06 0.04 0.05 0.06 0.06 0.09 0.18 0.30 0.35 0.49 0.89 1.40 1.26 1.02 0.68 0.55 0.56
0.00 0.00 0.00 0.00 0.00 0.00 0.00 0.00 0.00 0.00 0.00 0.00 0.00 0.00 0.02 0.05 0.05 0.03 0.00 0.00 0.04 0.07 0.11 0.13 0.14 0.14 0.13 0.11 0.11 0.15 0.09 0.04 0.06 0.11 0.20 0.33 0.52 0.70 1.12 1.38 1.28 0.93 0.64
0.00 0.00 0.00 0.00 0.00 0.00 0.00 0.00 0.00 0.00 0.00 0.00 0.00 0.00 0.01 0.01 0.02 0.07 0.05 0.02 0.03 0.05 0.06 0.11 0.15 0.21 0.26 0.28 0.21 0.14 0.12 0.10 0.08 0.07 0.13 0.19 0.35 0.58 0.76 0.83 0.87 1.09 1.12
0.00 0.00 0.00 0.00 0.00 0.00 0.00 0.00 0.00 0.00 0.00 0.01 0.01 0.03 0.05 0.06 0.06 0.09 0.14 0.08 0.05 0.07 0.04 0.07 0.08 0.12 0.18 0.28 0.33 0.26 0.14 0.11 0.14 0.15 0.17 0.21 0.23 0.36 0.52 0.80 0.96 0.82 0.78
0.00 0.00 0.01 0.01 0.00 0.00 0.00 0.01 0.02 0.03 0.06 0.11 0.14 0.19 0.27 0.31 0.33 0.35 0.36 0.23 0.14 0.13 0.11 0.04 0.06 0.05 0.07 0.20 0.38 0.43 0.34 0.25 0.14 0.14 0.21 0.25 0.28 0.38 0.59 0.73 0.87 1.15 1.22
0.02 0.03 0.03 0.02 0.01 0.01 0.02 0.08 0.14 0.22 0.36 0.50 0.54 0.54 0.51 0.46 0.41 0.37 0.41 0.42 0.34 0.09 0.05 0.08 0.07 0.11 0.11 0.13 0.26 0.35 0.29 0.28 0.35 0.34 0.21 0.18 0.30 0.36 0.42 0.54 0.78 0.85 0.88
0.02 0.02 0.05 0.03 0.04 0.10 0.16 0.20 0.25 0.33 0.39 0.35 0.33 0.31 0.26 0.24 0.22 0.18 0.17 0.24 0.36 0.20 0.02 0.00 0.02 0.05 0.11 0.15 0.21 0.35 0.47 0.44 0.37 0.35 0.38 0.33 0.25 0.28 0.50 0.62 0.68 0.81 1.01
0.05 0.08 0.06 0.12 0.18 0.17 0.13 0.14 0.15 0.15 0.16 0.16 0.14 0.11 0.09 0.07 0.06 0.08 0.09 0.08 0.09 0.16 0.09 0.00 0.00 0.00 0.00 0.03 0.09 0.19 0.40 0.51 0.34 0.29 0.35 0.41 0.44 0.42 0.38 0.58 0.86 0.91 0.94
0.05 0.06 0.09 0.08 0.07 0.09 0.09 0.10 0.09 0.07 0.06 0.04 0.02 0.02 0.02 0.02 0.01 0.01 0.02 0.03 0.05 0.07 0.03 0.00 0.00 0.00 0.00 0.01 0.03 0.10 0.22 0.43 0.54 0.38 0.27 0.33 0.41 0.47 0.53 0.47 0.50 0.85 1.20
0.01 0.02 0.04 0.09 0.11 0.09 0.07 0.05 0.03 0.01 0.00 0.00 0.01 0.00 0.00 0.00 0.00 0.00 0.01 0.01 0.01 0.01 0.02 0.01 0.00 0.00 0.00 0.00 0.01 0.03 0.10 0.24 0.42 0.53 0.49 0.31 0.26 0.33 0.42 0.55 0.56 0.55 0.71
0.04 0.08 0.12 0.08 0.04 0.02 0.01 0.00 0.00 0.00 0.00 0.00 0.00 0.00 0.00 0.00 0.00 0.00 0.00 0.01 0.01 0.01 0.02 0.03 0.01 0.00 0.00 0.00 0.00 0.02 0.03 0.07 0.16 0.30 0.43 0.55 0.45 0.28 0.28 0.32 0.42 0.53 0.50
0.07 0.07 0.05 0.03 0.01 0.01 0.02 0.01 0.00 0.00 0.00 0.00 0.01 0.01 0.00 0.00 0.00 0.00 0.01 0.01 0.01 0.03 0.03 0.03 0.01 0.00 0.00 0.00 0.02 0.03 0.04 0.05 0.06 0.13 0.31 0.49 0.55 0.48 0.31 0.24 0.28 0.31 0.40
0.04 0.03 0.03 0.02 0.03 0.04 0.02 0.00 0.00 0.00 0.01 0.01 0.00 0.00 0.00 0.00 0.00 0.01 0.02 0.01 0.03 0.04 0.04 0.05 0.04 0.03 0.02 0.02 0.04 0.06 0.08 0.06 0.07 0.09 0.18 0.36 0.52 0.60 0.61 0.38 0.22 0.25 0.31
0.06 0.06 0.04 0.04 0.01 0.00 0.00 0.00 0.00 0.00 0.00 0.01 0.01 0.00 0.00 0.00 0.01 0.01 0.00 0.00 0.01 0.05 0.10 0.12 0.12 0.10 0.06 0.06 0.10 0.15 0.14 0.12 0.12 0.11 0.16 0.27 0.43 0.54 0.66 0.69 0.51 0.35 0.27
0.06 0.03 0.01 0.00 0.01 0.03 0.00 0.00 0.00 0.00 0.01 0.01 0.01 0.01 0.01 0.00 0.00 0.01 0.01 0.01 0.01 0.02 0.09 0.17 0.26 0.16 0.15 0.11 0.12 0.17 0.14 0.16 0.13 0.08 0.16 0.26 0.35 0.46 0.50 0.68 0.72 0.52 0.44
0.03 0.01 0.00 0.01 0.02 0.03 0.00 0.00 0.00 0.01 0.01 0.01 0.01 0.01 0.02 0.01 0.01 0.03 0.07 0.13 0.09 0.05 0.04 0.05 0.14 0.12 0.08 0.07 0.13 0.18 0.25 0.29 0.20 0.07 0.12 0.35 0.26 0.38 0.39 0.46 0.67 0.86 0.73
0.00 0.00 0.00 0.01 0.02 0.03 0.00 0.00 0.00 0.04 0.06 0.03 0.01 0.02 0.04 0.06 0.04 0.08 0.31 0.39 0.18 0.07 0.04 0.06 0.08 0.08 0.08 0.09 0.15 0.46 0.53 0.56 0.40 0.15 0.15 0.27 0.20 0.29 0.38 0.51 0.65 0.70 0.89
0.00 0.00 0.00 0.01 0.01 0.01 0.01 0.01 0.03 0.14 0.20 0.10 0.05 0.04 0.03 0.04 0.11 0.19 0.45 0.47 0.39 0.11 0.04 0.07 0.07 0.05 0.05 0.08 0.09 0.35 0.50 0.59 0.39 0.31 0.12 0.26 0.19 0.26 0.50 0.52 0.52 0.71 0.82

GFSMA_prec_precacc_069.txt.gz
Total_Precipitation_Accumulation
0.44 0.30 0.20 0.04 0.02 0.01 0.04 0.04 0.07 0.12 0.14 0.13 0.11 0.11 0.07 0.05 0.03 0.01 0.00 0.01 0.01 0.01 0.00 0.00 0.04 0.17 0.27 0.28 0.25 0.20 0.19 0.18 0.24 0.36 0.36 0.28 0.25 0.31 0.35 0.30 0.22 0.16 0.13
0.23 0.14 0.09 0.06 0.04 0.02 0.01 0.03 0.03 0.04 0.05 0.06 0.10 0.10 0.06 0.05 0.03 0.03 0.02 0.02 0.02 0.01 0.00 0.01 0.01 0.08 0.22 0.26 0.31 0.30 0.27 0.22 0.19 0.24 0.33 0.32 0.30 0.32 0.30 0.29 0.29 0.30 0.27
0.16 0.09 0.04 0.02 0.01 0.00 0.00 0.00 0.00 0.02 0.04 0.07 0.12 0.19 0.16 0.09 0.06 0.05 0.04 0.05 0.06 0.08 0.07 0.01 0.00 0.03 0.10 0.19 0.25 0.24 0.23 0.26 0.22 0.20 0.24 0.24 0.25 0.30 0.46 0.34 0.34 0.37 0.31
0.08 0.02 0.00 0.01 0.00 0.00 0.00 0.00 0.00 0.00 0.01 0.04 0.05 0.04 0.02 0.04 0.04 0.03 0.02 0.03 0.07 0.11 0.16 0.15 0.08 0.04 0.05 0.07 0.14 0.20 0.26 0.24 0.23 0.25 0.24 0.19 0.20 0.21 0.32 0.47 0.48 0.55 0.58
0.00 0.00 0.00 0.00 0.00 0.00 0.00 0.00 0.00 0.00 0.00 0.00 0.00 0.01 0.01 0.01 0.02 0.03 0.02 0.01 0.01 0.03 0.08 0.10 0.13 0.13 0.11 0.11 0.12 0.16 0.22 0.30 0.42 0.37 0.34 0.38 0.37 0.26 0.24 0.23 0.32 0.54 0.88
0.00 0.00 0.00 0.00 0.00 0.00 0.00 0.00 0.00 0.00 0.00 0.00 0.00 0.00 0.00 0.02 0.02 0.03 0.03 0.02 0.02 0.02 0.02 0.04 0.05 0.07 0.11 0.19 0.26 0.26 0.26 0.23 0.25 0.53 1.01 1.06 0.69 0.54 0.53 0.44 0.31 0.32 0.55
0.00 0.00 0.00 0.00 0.00 0.00 0.00 0.00 0.00 0.00 0.00 0.00 0.01 0.00 0.00 0.00 0.01 0.04 0.05 0.08 0.08 0.07 0.05 0.05 0.06 0.04 0.04 0.09 0.17 0.30 0.37 0.37 0.33 0.32 0.37 0.86 1.52 1.25 0.79 0.63 0.63 0.49 0.42
0.00 0.00 0.00 0.00 0.00 0.00 0.00 0.00 0.00 0.00 0.00 0.00 0.01 0.01 0.00 0.00 0.00 0.01 0.03 0.07 0.08 0.12 0.12 0.08 0.08 0.07 0.03 0.02 0.02 0.07 0.21 0.48 0.54 0.44 0.46 0.64 0.76 1.02 1.15 0.89 0.77 0.76 0.75
0.00 0.00 0.00 0.00 0.00 0.00 0.00 0.00 0.00 0.00 0.00 0.00 0.00 0.02 0.02 0.01 0.01 0.00 0.01 0.05 0.07 0.07 0.08 0.09 0.08 0.09 0.06 0.04 0.05 0.06 0.06 0.09 0.18 0.30 0.35 0.49 0.89 1.40 1.27 1.03 0.69 0.55 0.56
0.00 0.00 0.00 0.00 0.00 0.00 0.00 0.00 0.00 0.00 0.00 0.00 0.00 0.00 0.02 0.05 0.05 0.03 0.00 0.00 0.04 0.07 0.11 0.13 0.14 0.14 0.13 0.11 0.11 0.15 0.09 0.04 0.06 0.11 0.20 0.33 0.52 0.70 1.12 1.38 1.29 0.94 0.65
0.00 0.00 0.00 0.00 0.00 0.00 0.00 0.00 0.00 0.00 0.00 0.00 0.00 0.00 0.01 0.01 0.02 0.07 0.05 0.02 0.03 0.05 0.06 0.11 0.15 0.21 0.26 0.28 0.21 0.14 0.12 0.10 0.08 0.07 0.13 0.19 0.35 0.58 0.76 0.84 0.88 1.09 1.13
0.00 0.00 0.00 0.00 0.00 0.00 0.00 0.00 0.00 0.00 0.00 0.01 0.01 0.03 0.05 0.06 0.06 0.09 0.14 0.08 0.05 0.07 0.04 0.07 0.08 0.12 0.18 0.28 0.33 0.26 0.14 0.11 0.14 0.15 0.17 0.21 0.23 0.36 0.52 0.80 0.96 0.82 0.78
0.00 0.00 0.01 0.01 0.00 0.01 0.01 0.01 0.02 0.03 0.06 0.11 0.14 0.19 0.27 0.31 0.33 0.35 0.36 0.23 0.14 0.13 0.11 0.04 0.06 0.05 0.07 0.20 0.38 0.43 0.34 0.25 0.14 0.14 0.21 0.25 0.28 0.38 0.59 0.73 0.87 1.15 1.22
0.02 0.03 0.03 0.03 0.05 0.05 0.03 0.08 0.14 0.22 0.36 0.50 0.54 0.54 0.51 0.46 0.41 0.37 0.41 0.43 0.34 0.09 0.05 0.08 0.07 0.11 0.11 0.13 0.26 0.35 0.29 0.28 0.35 0.34 0.21 0.18 0.30 0.36 0.42 0.54 0.78 0.85 0.88
0.02 0.02 0.07 0.10 0.10 0.11 0.16 0.20 0.25 0.33 0.39 0.35 0.33 0.31 0.26 0.24 0.22 0.18 0.17 0.24 0.37 0.21 0.02 0.00 0.02 0.05 0.11 0.15 0.21 0.35 0.47 0.44 0.37 0.35 0.38 0.33 0.25 0.28 0.50 0.62 0.68 0.81 1.01
0.05 0.10 0.14 0.20 0.21 0.17 0.13 0.14 0.15 0.15 0.16 0.16 0.14 0.11 0.09 0.07 0.06 0.08 0.09 0.08 0.09 0.16 0.09 0.00 0.00 0.00 0.00 0.03 0.09 0.19 0.40 0.51 0.34 0.29 0.35 0.41 0.44 0.42 0.38 0.58 0.86 0.91 0.94
0.09 0.15 0.16 0.10 0.07 0.09 0.09 0.10 0.09 0.07 0.06 0.04 0.02 0.02 0.02 0.02 0.01 0.01 0.02 0.03 0.05 0.07 0.04 0.00 0.00 0.00 0.00 0.01 0.03 0.10 0.22 0.43 0.54 0.38 0.27 0.33 0.41 0.47 0.53 0.47 0.51 0.85 1.20
0.09 0.03 0.04 0.09 0.11 0.09 0.07 0.05 0.03 0.01 0.00 0.00 0.01 0.00 0.00 0.00 0.00 0.00 0.01 0.01 0.01 0.01 0.03 0.01 0.00 0.00 0.00 0.00 0.01 0.03 0.10 0.24 0.42 0.53 0.49 0.31 0.26 0.33 0.42 0.55 0.56 0.55 0.71
0.04 0.08 0.12 0.08 0.04 0.02 0.01 0.00 0.00 0.00 0.00 0.00 0.00 0.00 0.00 0.00 0.00 0.00 0.00 0.01 0.01 0.01 0.02 0.03 0.01 0.00 0.00 0.00 0.00 0.02 0.03 0.07 0.16 0.30 0.43 0.55 0.45 0.28 0.28 0.32 0.42 0.53 0.50
0.07 0.07 0.05 0.03 0.01 0.01 0.02 0.01 0.00 0.00 0.00 0.00 0.01 0.01 0.00 0.00 0.00 0.00 0.01 0.01 0.01 0.03 0.03 0.03 0.01 0.00 0.00 0.00 0.02 0.03 0.04 0.05 0.06 0.13 0.31 0.49 0.55 0.48 0.31 0.24 0.28 0.31 0.40
0.04 0.03 0.03 0.02 0.03 0.04 0.02 0.00 0.00 0.00 0.01 0.01 0.00 0.00 0.00 0.00 0.00 0.01 0.02 0.01 0.03 0.04 0.04 0.05 0.04 0.03 0.02 0.02 0.04 0.06 0.08 0.06 0.07 0.09 0.18 0.36 0.52 0.60 0.61 0.38 0.22 0.25 0.31
0.06 0.06 0.04 0.04 0.01 0.00 0.00 0.00 0.00 0.00 0.00 0.01 0.01 0.00 0.00 0.00 0.01 0.01 0.00 0.00 0.01 0.05 0.10 0.12 0.12 0.10 0.06 0.06 0.10 0.15 0.14 0.12 0.12 0.11 0.16 0.27 0.43 0.54 0.66 0.69 0.51 0.35 0.27
0.06 0.03 0.01 0.00 0.01 0.03 0.00 0.00 0.00 0.00 0.01 0.01 0.01 0.01 0.01 0.00 0.00 0.01 0.01 0.01 0.01 0.02 0.09 0.17 0.26 0.16 0.15 0.11 0.12 0.17 0.14 0.16 0.13 0.08 0.16 0.26 0.35 0.46 0.50 0.68 0.72 0.52 0.44
0.03 0.01 0.00 0.01 0.02 0.03 0.00 0.00 0.00 0.01 0.01 0.01 0.01 0.01 0.02 0.01 0.01 0.03 0.07 0.13 0.09 0.05 0.04 0.05 0.14 0.12 0.08 0.07 0.13 0.18 0.25 0.29 0.20 0.07 0.12 0.35 0.26 0.38 0.39 0.46 0.67 0.86 0.73
0.00 0.00 0.00 0.01 0.02 0.03 0.00 0.00 0.00 0.04 0.06 0.03 0.01 0.02 0.04 0.06 0.04 0.08 0.31 0.39 0.18 0.07 0.04 0.06 0.08 0.08 0.08 0.09 0.15 0.46 0.53 0.57 0.40 0.15 0.15 0.28 0.20 0.29 0.38 0.51 0.65 0.70 0.89
0.00 0.00 0.00 0.01 0.01 0.01 0.01 0.01 0.03 0.14 0.20 0.10 0.05 0.04 0.03 0.04 0.11 0.19 0.45 0.47 0.39 0.11 0.04 0.07 0.07 0.05 0.05 0.08 0.09 0.35 0.50 0.59 0.39 0.31 0.12 0.26 0.19 0.26 0.51 0.52 0.52 0.71 0.82

GFSMA_prec_precacc_072.txt.gz
Total_Precipitation_Accumulation
0.44 0.30 0.20 0.04 0.02 0.02 0.04 0.04 0.07 0.12 0.14 0.13 0.11 0.11 0.07 0.05 0.03 0.01 0.00 0.01 0.01 0.01 0.00 0.01 0.04 0.17 0.27 0.28 0.25 0.20 0.19 0.18 0.24 0.36 0.36 0.28 0.25 0.31 0.35 0.30 0.22 0.16 0.13
0.24 0.16 0.11 0.07 0.05 0.02 0.01 0.03 0.03 0.04 0.05 0.06 0.10 0.10 0.06 0.05 0.03 0.03 0.02 0.02 0.02 0.01 0.00 0.01 0.01 0.08 0.22 0.26 0.31 0.30 0.27 0.22 0.19 0.24 0.33 0.32 0.30 0.32 0.30 0.29 0.29 0.30 0.27
0.21 0.13 0.05 0.02 0.01 0.00 0.00 0.00 0.00 0.02 0.04 0.07 0.12 0.19 0.16 0.09 0.06 0.05 0.04 0.05 0.06 0.08 0.07 0.01 0.00 0.03 0.10 0.19 0.25 0.24 0.23 0.26 0.22 0.20 0.24 0.24 0.25 0.30 0.46 0.34 0.34 0.37 0.31
0.10 0.03 0.00 0.01 0.00 0.00 0.00 0.00 0.00 0.00 0.01 0.04 0.05 0.04 0.02 0.04 0.04 0.03 0.02 0.03 0.07 0.11 0.16 0.15 0.08 0.04 0.05 0.07 0.14 0.20 0.26 0.24 0.23 0.25 0.24 0.19 0.20 0.21 0.32 0.47 0.48 0.55 0.58
0.01 0.00 0.00 0.00 0.00 0.00 0.00 0.00 0.00 0.00 0.00 0.00 0.00 0.01 0.01 0.01 0.02 0.03 0.02 0.01 0.01 0.03 0.08 0.10 0.13 0.13 0.11 0.11 0.12 0.16 0.22 0.30 0.42 0.37 0.35 0.38 0.37 0.26 0.24 0.23 0.32 0.54 0.88
0.00 0.00 0.00 0.00 0.00 0.00 0.00 0.00 0.00 0.00 0.00 0.00 0.00 0.00 0.00 0.02 0.02 0.03 0.03 0.02 0.02 0.02 0.02 0.04 0.05 0.07 0.11 0.19 0.26 0.26 0.26 0.23 0.25 0.54 1.02 1.09 0.72 0.56 0.54 0.44 0.31 0.32 0.55
0.00 0.00 0.00 0.00 0.00 0.00 0.00 0.00 0.00 0.00 0.00 0.00 0.01 0.00 0.00 0.00 0.01 0.04 0.05 0.08 0.08 0.07 0.05 0.05 0.06 0.04 0.04 0.09 0.17 0.30 0.37 0.37 0.33 0.32 0.37 0.87 1.53 1.27 0.81 0.64 0.63 0.49 0.42
0.00 0.00 0.00 0.00 0.00 0.00 0.00 0.00 0.00 0.00 0.00 0.00 0.01 0.01 0.00 0.00 0.00 0.01 0.03 0.07 0.08 0.12 0.12 0.08 0.08 0.07 0.03 0.02 0.02 0.07 0.21 0.48 0.54 0.44 0.46 0.64 0.76 1.02 1.15 0.90 0.78 0.77 0.76
0.00 0.00 0.00 0.00 0.00 0.00 0.00 0.00 0.00 0.00 0.00 0.00 0.00 0.02 0.02 0.01 0.01 0.00 0.01 0.05 0.07 0.07 0.08 0.09 0.08 0.09 0.06 0.04 0.05 0.06 0.06 0.09 0.18 0.30 0.35 0.49 0.89 1.40 1.27 1.04 0.70 0.57 0.58
0.00 0.00 0.00 0.00 0.00 0.00 0.00 0.00 0.00 0.00 0.00 0.00 0.00 0.00 0.02 0.05 0.05 0.03 0.00 0.00 0.04 0.07 0.11 0.13 0.14 0.14 0.13 0.11 0.11 0.15 0.09 0.04 0.06 0.11 0.20 0.33 0.52 0.70 1.12 1.39 1.30 0.95 0.66
0.00 0.00 0.00 0.00 0.00 0.00 0.00 0.00 0.00 0.00 0.00 0.00 0.00 0.00 0.01 0.01 0.02 0.07 0.05 0.02 0.03 0.05 0.06 0.11 0.15 0.21 0.26 0.28 0.21 0.14 0.12 0.10 0.08 0.07 0.13 0.19 0.35 0.58 0.76 0.84 0.88 1.09 1.13
0.00 0.00 0.00 0.00 0.00 0.00 0.00 0.00 0.00 0.00 0.00 0.01 0.01 0.03 0.05 0.06 0.06 0.09 0.14 0.08 0.05 0.07 0.04 0.07 0.08 0.12 0.18 0.28 0.33 0.26 0.14 0.11 0.14 0.15 0.17 0.21 0.23 0.36 0.52 0.80 0.96 0.82 0.78
0.00 0.00 0.01 0.01 0.00 0.01 0.02 0.03 0.02 0.03 0.06 0.11 0.14 0.19 0.27 0.31 0.33 0.35 0.36 0.23 0.14 0.13 0.11 0.04 0.06 0.05 0.07 0.20 0.38 0.43 0.34 0.25 0.14 0.14 0.21 0.25 0.28 0.38 0.59 0.73 0.87 1.15 1.22
0.02 0.03 0.03 0.03 0.05 0.07 0.06 0.10 0.14 0.22 0.36 0.50 0.54 0.54 0.51 0.46 0.41 0.37 0.41 0.43 0.34 0.09 0.05 0.08 0.07 0.11 0.11 0.13 0.26 0.35 0.29 0.28 0.35 0.34 0.21 0.18 0.30 0.36 0.42 0.54 0.78 0.85 0.88
0.02 0.02 0.07 0.10 0.12 0.16 0.17 0.20 0.25 0.33 0.39 0.35 0.33 0.31 0.26 0.24 0.22 0.18 0.17 0.24 0.37 0.21 0.02 0.00 0.02 0.05 0.11 0.15 0.21 0.35 0.47 0.44 0.37 0.35 0.38 0.33 0.25 0.28 0.50 0.62 0.68 0.81 1.01
0.05 0.10 0.14 0.24 0.29 0.20 0.13 0.14 0.15 0.15 0.16 0.16 0.14 0.11 0.09 0.07 0.06 0.08 0.09 0.08 0.09 0.16 0.09 0.00 0.00 0.00 0.00 0.03 0.09 0.19 0.40 0.51 0.34 0.29 0.35 0.41 0.44 0.42 0.38 0.58 0.86 0.91 0.94
0.09 0.18 0.27 0.22 0.10 0.09 0.09 0.10 0.09 0.07 0.06 0.04 0.02 0.02 0.02 0.02 0.01 0.01 0.02 0.03 0.05 0.07 0.04 0.00 0.00 0.00 0.00 0.01 0.03 0.10 0.22 0.43 0.54 0.38 0.27 0.33 0.41 0.47 0.53 0.47 0.51 0.85 1.20
0.13 0.09 0.08 0.10 0.11 0.09 0.07 0.05 0.03 0.01 0.00 0.00 0.01 0.00 0.00 0.00 0.00 0.00 0.01 0.01 0.01 0.01 0.03 0.02 0.00 0.00 0.00 0.00 0.01 0.03 0.10 0.24 0.42 0.53 0.49 0.31 0.26 0.33 0.42 0.55 0.56 0.55 0.71
0.10 0.10 0.13 0.08 0.04 0.02 0.01 0.00 0.00 0.00 0.00 0.00 0.00 0.00 0.00 0.00 0.00 0.00 0.00 0.01 0.01 0.01 0.02 0.04 0.01 0.00 0.00 0.00 0.00 0.02 0.03 0.07 0.16 0.30 0.43 0.55 0.45 0.28 0.28 0.32 0.42 0.53 0.50
0.11 0.09 0.05 0.03 0.01 0.01 0.02 0.01 0.00 0.00 0.00 0.00 0.01 0.01 0.00 0.00 0.00 0.00 0.01 0.01 0.02 0.03 0.03 0.04 0.02 0.01 0.00 0.00 0.02 0.03 0.04 0.05 0.06 0.13 0.31 0.49 0.55 0.48 0.31 0.24 0.28 0.31 0.40
0.06 0.04 0.03 0.02 0.03 0.04 0.02 0.00 0.00 0.00 0.01 0.01 0.00 0.00 0.00 0.00 0.00 0.01 0.02 0.01 0.03 0.04 0.04 0.06 0.05 0.03 0.02 0.02 0.04 0.06 0.08 0.06 0.07 0.09 0.18 0.36 0.52 0.60 0.61 0.38 0.22 0.25 0.31
0.06 0.06 0.04 0.04 0.01 0.00 0.00 0.00 0.00 0.00 0.00 0.01 0.01 0.00 0.00 0.00 0.01 0.01 0.00 0.00 0.02 0.06 0.10 0.13 0.12 0.10 0.06 0.06 0.10 0.15 0.14 0.12 0.12 0.11 0.16 0.27 0.43 0.54 0.66 0.69 0.51 0.35 0.27
0.06 0.03 0.01 0.00 0.01 0.03 0.00 0.00 0.00 0.00 0.01 0.01 0.01 0.01 0.01 0.00 0.00 0.01 0.01 0.01 0.01 0.02 0.09 0.18 0.27 0.16 0.16 0.11 0.12 0.17 0.14 0.16 0.13 0.08 0.16 0.26 0.35 0.46 0.50 0.68 0.72 0.52 0.44
0.03 0.01 0.00 0.01 0.02 0.03 0.00 0.00 0.00 0.01 0.01 0.01 0.01 0.01 0.02 0.01 0.01 0.03 0.07 0.13 0.09 0.05 0.04 0.05 0.14 0.12 0.08 0.07 0.13 0.18 0.25 0.29 0.20 0.07 0.12 0.35 0.26 0.38 0.39 0.46 0.67 0.86 0.73
0.00 0.00 0.00 0.01 0.02 0.03 0.00 0.00 0.00 0.04 0.06 0.03 0.01 0.02 0.04 0.06 0.04 0.08 0.31 0.39 0.18 0.07 0.04 0.06 0.08 0.08 0.08 0.09 0.15 0.46 0.53 0.57 0.41 0.15 0.15 0.28 0.20 0.29 0.38 0.51 0.65 0.70 0.89
0.00 0.00 0.00 0.01 0.01 0.01 0.01 0.01 0.03 0.14 0.20 0.10 0.05 0.04 0.03 0.04 0.11 0.19 0.45 0.48 0.40 0.11 0.04 0.07 0.07 0.05 0.05 0.08 0.09 0.35 0.50 0.60 0.39 0.31 0.12 0.27 0.19 0.26 0.51 0.52 0.52 0.71 0.82

GFSMA_prec_precacc_075.txt.gz
Total_Precipitation_Accumulation
0.48 0.34 0.21 0.04 0.02 0.02 0.04 0.04 0.07 0.12 0.14 0.13 0.11 0.11 0.07 0.05 0.03 0.01 0.00 0.01 0.01 0.01 0.00 0.01 0.04 0.17 0.27 0.28 0.25 0.20 0.19 0.18 0.24 0.36 0.36 0.28 0.25 0.31 0.35 0.30 0.22 0.16 0.13
0.31 0.18 0.11 0.07 0.05 0.03 0.01 0.03 0.03 0.04 0.05 0.06 0.10 0.10 0.06 0.05 0.03 0.03 0.02 0.02 0.02 0.01 0.00 0.01 0.01 0.08 0.22 0.26 0.31 0.30 0.27 0.22 0.19 0.24 0.33 0.32 0.30 0.32 0.30 0.29 0.29 0.30 0.27
0.24 0.14 0.05 0.02 0.01 0.00 0.00 0.00 0.00 0.02 0.04 0.07 0.12 0.19 0.16 0.09 0.06 0.05 0.04 0.05 0.06 0.08 0.07 0.01 0.00 0.03 0.10 0.19 0.25 0.24 0.23 0.26 0.22 0.20 0.24 0.24 0.25 0.30 0.46 0.34 0.34 0.37 0.31
0.10 0.03 0.00 0.01 0.00 0.00 0.00 0.00 0.00 0.00 0.01 0.04 0.05 0.04 0.02 0.04 0.04 0.03 0.02 0.03 0.07 0.11 0.16 0.15 0.08 0.04 0.05 0.07 0.14 0.20 0.26 0.24 0.23 0.25 0.24 0.19 0.20 0.21 0.32 0.47 0.48 0.55 0.58
0.01 0.00 0.00 0.00 0.00 0.00 0.00 0.00 0.00 0.00 0.00 0.00 0.00 0.01 0.01 0.01 0.02 0.03 0.02 0.01 0.01 0.03 0.08 0.10 0.13 0.13 0.11 0.11 0.12 0.16 0.22 0.30 0.42 0.37 0.35 0.38 0.39 0.28 0.25 0.23 0.32 0.54 0.88
0.00 0.00 0.00 0.00 0.00 0.00 0.00 0.00 0.00 0.00 0.00 0.00 0.00 0.00 0.00 0.02 0.02 0.03 0.03 0.02 0.02 0.02 0.02 0.04 0.05 0.07 0.11 0.19 0.26 0.26 0.26 0.23 0.25 0.54 1.03 1.10 0.74 0.59 0.57 0.47 0.33 0.32 0.55
0.00 0.00 0.00 0.00 0.00 0.00 0.00 0.00 0.00 0.00 0.00 0.00 0.01 0.00 0.00 0.00 0.01 0.04 0.05 0.08 0.08 0.07 0.05 0.05 0.06 0.04 0.04 0.09 0.17 0.30 0.37 0.37 0.33 0.32 0.37 0.87 1.53 1.27 0.81 0.65 0.64 0.50 0.42
0.00 0.00 0.00 0.00 0.00 0.00 0.00 0.00 0.00 0.00 0.00 0.00 0.01 0.01 0.00 0.00 0.00 0.01 0.03 0.07 0.08 0.12 0.12 0.08 0.08 0.07 0.03 0.02 0.02 0.07 0.21 0.48 0.54 0.44 0.46 0.64 0.76 1.02 1.15 0.90 0.79 0.79 0.77
0.00 0.00 0.00 0.00 0.00 0.00 0.00 0.00 0.00 0.00 0.00 0.00 0.00 0.02 0.02 0.01 0.01 0.00 0.01 0.05 0.07 0.07 0.08 0.09 0.08 0.09 0.06 0.04 0.05 0.06 0.06 0.09 0.18 0.30 0.35 0.49 0.89 1.40 1.27 1.04 0.70 0.57 0.60
0.00 0.00 0.00 0.00 0.00 0.00 0.00 0.00 0.00 0.00 0.00 0.00 0.00 0.00 0.02 0.05 0.05 0.03 0.00 0.00 0.04 0.07 0.11 0.13 0.14 0.14 0.13 0.11 0.11 0.15 0.09 0.04 0.06 0.11 0.20 0.33 0.52 0.70 1.12 1.39 1.30 0.95 0.67
0.01 0.00 0.00 0.00 0.00 0.00 0.00 0.00 0.00 0.00 0.00 0.00 0.00 0.00 0.01 0.01 0.02 0.07 0.05 0.02 0.03 0.05 0.06 0.11 0.15 0.21 0.26 0.28 0.21 0.14 0.12 0.10 0.08 0.07 0.13 0.19 0.35 0.58 0.76 0.84 0.88 1.09 1.13
0.00 0.00 0.00 0.00 0.00 0.00 0.00 0.00 0.00 0.00 0.00 0.01 0.01 0.03 0.05 0.06 0.06 0.09 0.14 0.08 0.05 0.07 0.04 0.07 0.08 0.12 0.18 0.28 0.33 0.26 0.14 0.11 0.14 0.15 0.17 0.21 0.23 0.36 0.52 0.80 0.96 0.82 0.79
0.01 0.00 0.01 0.01 0.00 0.01 0.02 0.03 0.03 0.03 0.06 0.11 0.14 0.19 0.27 0.31 0.33 0.35 0.36 0.23 0.14 0.13 0.11 0.04 0.06 0.05 0.07 0.20 0.38 0.43 0.34 0.25 0.14 0.14 0.21 0.25 0.28 0.38 0.59 0.73 0.87 1.15 1.23
0.02 0.03 0.03 0.03 0.05 0.07 0.06 0.10 0.14 0.22 0.36 0.50 0.54 0.54 0.51 0.46 0.41 0.37 0.41 0.43 0.34 0.09 0.05 0.08 0.07 0.11 0.11 0.13 0.26 0.35 0.29 0.28 0.35 0.34 0.21 0.18 0.30 0.36 0.42 0.54 0.78 0.85 0.88
0.02 0.02 0.07 0.10 0.12 0.16 0.17 0.21 0.26 0.33 0.39 0.35 0.33 0.31 0.26 0.24 0.22 0.18 0.17 0.24 0.37 0.21 0.02 0.00 0.02 0.05 0.11 0.15 0.21 0.35 0.47 0.44 0.37 0.35 0.38 0.33 0.25 0.28 0.50 0.62 0.68 0.81 1.01
0.05 0.10 0.14 0.24 0.30 0.27 0.21 0.20 0.16 0.15 0.16 0.16 0.14 0.11 0.09 0.07 0.06 0.08 0.09 0.08 0.09 0.16 0.09 0.00 0.00 0.00 0.00 0.03 0.09 0.19 0.40 0.51 0.34 0.29 0.35 0.41 0.44 0.42 0.38 0.58 0.86 0.91 0.94
0.10 0.18 0.28 0.27 0.22 0.19 0.15 0.11 0.09 0.07 0.06 0.04 0.02 0.02 0.02 0.02 0.01 0.01 0.02 0.03 0.05 0.07 0.04 0.00 0.00 0.00 0.00 0.01 0.03 0.10 0.22 0.43 0.54 0.38 0.27 0.33 0.41 0.47 0.53 0.47 0.51 0.85 1.20
0.22 0.21 0.19 0.19 0.17 0.11 0.07 0.05 0.03 0.01 0.00 0.00 0.01 0.00 0.00 0.00 0.00 0.00 0.01 0.01 0.01 0.01 0.03 0.02 0.00 0.00 0.00 0.00 0.01 0.03 0.10 0.24 0.42 0.53 0.49 0.31 0.26 0.33 0.42 0.55 0.56 0.55 0.71
0.30 0.21 0.20 0.16 0.08 0.03 0.01 0.00 0.00 0.00 0.00 0.00 0.00 0.00 0.00 0.00 0.00 0.00 0.00 0.01 0.01 0.01 0.02 0.04 0.01 0.00 0.00 0.00 0.01 0.02 0.03 0.07 0.16 0.30 0.43 0.55 0.45 0.28 0.28 0.32 0.42 0.53 0.50
0.26 0.24 0.22 0.14 0.04 0.01 0.02 0.01 0.00 0.00 0.00 0.00 0.01 0.01 0.00 0.00 0.00 0.00 0.01 0.01 0.02 0.03 0.03 0.04 0.02 0.01 0.00 0.00 0.03 0.04 0.04 0.06 0.06 0.13 0.31 0.49 0.55 0.48 0.31 0.24 0.28 0.31 0.40
0.11 0.07 0.05 0.02 0.03 0.04 0.02 0.00 0.00 0.00 0.01 0.01 0.00 0.00 0.00 0.00 0.00 0.01 0.02 0.01 0.03 0.04 0.04 0.06 0.05 0.04 0.03 0.03 0.06 0.08 0.09 0.07 0.07 0.09 0.18 0.36 0.52 0.60 0.61 0.38 0.22 0.25 0.31
0.06 0.06 0.04 0.04 0.01 0.00 0.00 0.00 0.00 0.00 0.00 0.01 0.01 0.00 0.00 0.00 0.01 0.01 0.00 0.00 0.02 0.06 0.11 0.14 0.14 0.13 0.08 0.08 0.12 0.16 0.14 0.12 0.12 0.11 0.16 0.27 0.43 0.54 0.66 0.69 0.51 0.35 0.27
0.06 0.03 0.01 0.00 0.01 0.03 0.00 0.00 0.00 0.00 0.01 0.01 0.01 0.01 0.01 0.00 0.00 0.01 0.01 0.01 0.01 0.02 0.09 0.18 0.28 0.18 0.18 0.13 0.13 0.17 0.14 0.16 0.13 0.08 0.16 0.26 0.35 0.46 0.50 0.68 0.72 0.52 0.44
0.03 0.01 0.00 0.01 0.02 0.03 0.00 0.00 0.00 0.01 0.01 0.01 0.01 0.01 0.02 0.01 0.01 0.03 0.07 0.14 0.09 0.06 0.05 0.05 0.15 0.13 0.08 0.08 0.13 0.19 0.25 0.29 0.20 0.07 0.12 0.35 0.26 0.38 0.39 0.46 0.67 0.86 0.73
0.00 0.00 0.00 0.01 0.02 0.03 0.00 0.00 0.00 0.04 0.06 0.03 0.01 0.02 0.04 0.06 0.04 0.08 0.31 0.40 0.18 0.08 0.05 0.06 0.08 0.08 0.08 0.09 0.15 0.46 0.53 0.58 0.41 0.15 0.15 0.28 0.20 0.29 0.38 0.51 0.65 0.70 0.89
0.00 0.00 0.00 0.01 0.01 0.01 0.01 0.01 0.03 0.14 0.20 0.10 0.05 0.04 0.03 0.04 0.11 0.19 0.45 0.50 0.43 0.11 0.05 0.08 0.07 0.05 0.05 0.08 0.09 0.35 0.50 0.60 0.40 0.31 0.12 0.27 0.19 0.26 0.51 0.52 0.52 0.71 0.82

GFSMA_prec_precacc_078.txt.gz
Total_Precipitation_Accumulation
0.48 0.34 0.21 0.04 0.02 0.02 0.04 0.04 0.07 0.12 0.14 0.13 0.11 0.11 0.07 0.05 0.03 0.01 0.00 0.01 0.01 0.01 0.01 0.01 0.04 0.17 0.27 0.28 0.25 0.20 0.19 0.18 0.24 0.36 0.36 0.28 0.25 0.31 0.35 0.30 0.22 0.16 0.13
0.34 0.21 0.12 0.07 0.05 0.03 0.01 0.03 0.03 0.04 0.05 0.06 0.10 0.10 0.06 0.05 0.03 0.03 0.02 0.02 0.02 0.01 0.00 0.01 0.01 0.08 0.22 0.26 0.31 0.30 0.27 0.22 0.19 0.24 0.33 0.32 0.30 0.32 0.30 0.29 0.29 0.30 0.27
0.28 0.15 0.05 0.02 0.01 0.00 0.00 0.00 0.00 0.02 0.04 0.07 0.12 0.19 0.16 0.09 0.06 0.05 0.04 0.05 0.06 0.08 0.07 0.01 0.00 0.03 0.10 0.19 0.25 0.24 0.23 0.26 0.22 0.20 0.24 0.24 0.25 0.30 0.46 0.34 0.34 0.37 0.31
0.11 0.03 0.00 0.01 0.00 0.00 0.00 0.00 0.00 0.00 0.01 0.04 0.05 0.04 0.02 0.04 0.04 0.03 0.02 0.03 0.07 0.11 0.16 0.15 0.08 0.04 0.05 0.07 0.14 0.20 0.26 0.24 0.23 0.25 0.24 0.19 0.20 0.22 0.32 0.47 0.48 0.55 0.58
0.01 0.04 0.01 0.00 0.00 0.00 0.00 0.00 0.00 0.00 0.00 0.00 0.00 0.01 0.01 0.01 0.02 0.03 0.02 0.01 0.01 0.03 0.08 0.10 0.13 0.13 0.11 0.11 0.12 0.16 0.22 0.30 0.42 0.37 0.35 0.39 0.39 0.30 0.26 0.25 0.34 0.55 0.88
0.01 0.08 0.02 0.00 0.00 0.00 0.00 0.00 0.00 0.00 0.00 0.00 0.00 0.00 0.00 0.02 0.02 0.03 0.03 0.02 0.02 0.02 0.02 0.04 0.05 0.07 0.11 0.19 0.26 0.26 0.26 0.23 0.25 0.54 1.03 1.10 0.74 0.59 0.57 0.47 0.34 0.33 0.55
0.00 0.02 0.01 0.00 0.00 0.00 0.00 0.00 0.00 0.00 0.00 0.00 0.01 0.00 0.00 0.00 0.01 0.04 0.05 0.08 0.08 0.07 0.05 0.05 0.06 0.04 0.04 0.09 0.17 0.30 0.37 0.37 0.33 0.32 0.37 0.87 1.53 1.27 0.81 0.65 0.64 0.50 0.42
0.07 0.01 0.01 0.00 0.00 0.00 0.00 0.00 0.00 0.00 0.00 0.00 0.01 0.01 0.00 0.00 0.00 0.01 0.03 0.07 0.08 0.12 0.12 0.08 0.08 0.07 0.03 0.02 0.02 0.07 0.21 0.48 0.54 0.44 0.46 0.64 0.76 1.02 1.15 0.90 0.79 0.79 0.77
0.05 0.02 0.00 0.00 0.00 0.00 0.00 0.00 0.00 0.00 0.00 0.00 0.00 0.02 0.02 0.01 0.01 0.00 0.01 0.05 0.07 0.07 0.08 0.09 0.08 0.09 0.06 0.04 0.05 0.06 0.06 0.09 0.18 0.30 0.35 0.49 0.89 1.40 1.27 1.04 0.70 0.57 0.60
0.02 0.01 0.01 0.00 0.00 0.00 0.00 0.00 0.00 0.00 0.00 0.00 0.00 0.00 0.02 0.05 0.05 0.03 0.00 0.00 0.04 0.07 0.11 0.13 0.14 0.14 0.13 0.11 0.11 0.15 0.09 0.04 0.06 0.11 0.20 0.33 0.52 0.70 1.12 1.39 1.30 0.95 0.67
0.05 0.06 0.01 0.00 0.00 0.00 0.00 0.00 0.00 0.00 0.00 0.00 0.00 0.00 0.01 0.01 0.02 0.07 0.05 0.02 0.03 0.05 0.06 0.11 0.15 0.21 0.26 0.28 0.21 0.14 0.12 0.10 0.08 0.07 0.13 0.19 0.35 0.58 0.76 0.84 0.88 1.09 1.13
0.03 0.00 0.00 0.00 0.00 0.00 0.00 0.00 0.00 0.00 0.00 0.01 0.01 0.03 0.05 0.06 0.06 0.09 0.14 0.08 0.05 0.07 0.04 0.07 0.08 0.12 0.18 0.28 0.33 0.26 0.14 0.11 0.14 0.15 0.17 0.21 0.23 0.36 0.52 0.80 0.96 0.82 0.79
0.02 0.01 0.01 0.01 0.00 0.01 0.02 0.03 0.03 0.03 0.06 0.11 0.14 0.19 0.27 0.31 0.33 0.35 0.36 0.23 0.14 0.13 0.11 0.04 0.06 0.05 0.07 0.20 0.38 0.43 0.34 0.25 0.14 0.14 0.21 0.25 0.28 0.38 0.59 0.73 0.87 1.15 1.23
0.03 0.04 0.03 0.03 0.05 0.07 0.06 0.10 0.14 0.22 0.36 0.50 0.54 0.54 0.51 0.46 0.41 0.37 0.41 0.43 0.34 0.09 0.05 0.08 0.07 0.11 0.11 0.13 0.26 0.35 0.29 0.28 0.35 0.34 0.21 0.18 0.30 0.36 0.42 0.54 0.78 0.85 0.88
0.03 0.03 0.07 0.11 0.12 0.16 0.17 0.21 0.26 0.35 0.41 0.36 0.33 0.31 0.26 0.24 0.22 0.18 0.17 0.24 0.37 0.21 0.02 0.00 0.02 0.05 0.11 0.15 0.21 0.35 0.47 0.44 0.37 0.35 0.38 0.33 0.25 0.28 0.50 0.62 0.68 0.81 1.01
0.07 0.11 0.15 0.25 0.31 0.27 0.22 0.22 0.21 0.20 0.18 0.16 0.14 0.11 0.09 0.07 0.06 0.08 0.09 0.08 0.09 0.16 0.09 0.00 0.00 0.00 0.00 0.03 0.09 0.19 0.40 0.51 0.34 0.29 0.35 0.41 0.44 0.42 0.38 0.58 0.86 0.91 0.94
0.14 0.22 0.35 0.38 0.33 0.26 0.24 0.23 0.17 0.10 0.06 0.04 0.02 0.02 0.02 0.02 0.01 0.01 0.02 0.03 0.05 0.07 0.04 0.00 0.00 0.00 0.00 0.01 0.03 0.10 0.22 0.43 0.54 0.38 0.27 0.33 0.41 0.47 0.53 0.47 0.51 0.85 1.20
0.34 0.47 0.54 0.43 0.31 0.21 0.14 0.09 0.05 0.02 0.01 0.00 0.01 0.00 0.00 0.00 0.00 0.00 0.01 0.01 0.01 0.01 0.03 0.02 0.00 0.00 0.00 0.00 0.01 0.03 0.10 0.24 0.42 0.53 0.49 0.31 0.26 0.33 0.42 0.55 0.56 0.55 0.71
0.34 0.29 0.26 0.24 0.21 0.15 0.09 0.04 0.01 0.00 0.00 0.00 0.00 0.00 0.00 0.00 0.00 0.00 0.00 0.01 0.01 0.01 0.02 0.04 0.01 0.00 0.00 0.00 0.01 0.02 0.04 0.07 0.16 0.30 0.43 0.55 0.45 0.28 0.28 0.32 0.42 0.53 0.50
0.26 0.25 0.25 0.24 0.13 0.05 0.03 0.01 0.00 0.00 0.00 0.00 0.01 0.01 0.00 0.00 0.00 0.00 0.01 0.01 0.02 0.03 0.03 0.04 0.02 0.01 0.00 0.00 0.03 0.05 0.05 0.06 0.06 0.13 0.31 0.49 0.55 0.48 0.31 0.24 0.28 0.31 0.40
0.12 0.09 0.07 0.04 0.03 0.04 0.02 0.00 0.00 0.00 0.01 0.01 0.00 0.00 0.00 0.00 0.00 0.01 0.02 0.01 0.03 0.04 0.04 0.06 0.05 0.04 0.03 0.04 0.06 0.09 0.10 0.07 0.08 0.09 0.18 0.36 0.52 0.60 0.61 0.38 0.22 0.25 0.31
0.06 0.06 0.04 0.04 0.01 0.00 0.00 0.00 0.00 0.00 0.00 0.01 0.01 0.00 0.00 0.00 0.01 0.01 0.00 0.00 0.02 0.06 0.11 0.14 0.14 0.13 0.08 0.09 0.14 0.18 0.17 0.14 0.13 0.11 0.16 0.27 0.43 0.54 0.66 0.69 0.51 0.35 0.27
0.06 0.03 0.01 0.00 0.01 0.03 0.00 0.00 0.00 0.00 0.01 0.01 0.01 0.01 0.01 0.00 0.00 0.01 0.01 0.01 0.01 0.02 0.09 0.19 0.29 0.18 0.18 0.14 0.14 0.18 0.15 0.16 0.13 0.08 0.16 0.26 0.35 0.46 0.50 0.68 0.72 0.52 0.44
0.03 0.01 0.00 0.01 0.02 0.03 0.00 0.00 0.00 0.01 0.01 0.01 0.01 0.01 0.02 0.01 0.01 0.03 0.07 0.14 0.09 0.07 0.06 0.06 0.16 0.13 0.08 0.08 0.14 0.19 0.25 0.29 0.20 0.07 0.12 0.35 0.27 0.38 0.40 0.46 0.67 0.86 0.73
0.00 0.00 0.00 0.01 0.02 0.03 0.00 0.00 0.00 0.04 0.06 0.03 0.01 0.02 0.04 0.06 0.04 0.08 0.31 0.40 0.18 0.08 0.05 0.06 0.09 0.09 0.08 0.09 0.15 0.46 0.53 0.58 0.41 0.15 0.15 0.28 0.20 0.29 0.38 0.51 0.65 0.70 0.89
0.00 0.00 0.00 0.01 0.01 0.01 0.01 0.01 0.03 0.14 0.20 0.10 0.05 0.04 0.03 0.04 0.11 0.19 0.45 0.50 0.43 0.12 0.05 0.09 0.10 0.07 0.05 0.08 0.09 0.35 0.50 0.60 0.40 0.32 0.12 0.27 0.19 0.26 0.51 0.52 0.52 0.71 0.82

GFSMA_prec_precacc_084.txt.gz
Total_Precipitation_Accumulation
0.48 0.34 0.21 0.04 0.02 0.02 0.04 0.04 0.07 0.12 0.14 0.13 0.11 0.11 0.07 0.05 0.03 0.01 0.00 0.01 0.01 0.01 0.01 0.01 0.04 0.17 0.27 0.28 0.25 0.20 0.19 0.18 0.24 0.36 0.36 0.28 0.25 0.31 0.35 0.30 0.22 0.16 0.13
0.34 0.21 0.12 0.07 0.05 0.03 0.01 0.03 0.03 0.04 0.05 0.06 0.10 0.10 0.06 0.05 0.03 0.03 0.02 0.02 0.02 0.01 0.00 0.01 0.01 0.08 0.22 0.26 0.31 0.30 0.27 0.22 0.19 0.24 0.33 0.32 0.30 0.32 0.30 0.29 0.29 0.30 0.27
0.28 0.16 0.08 0.03 0.01 0.00 0.00 0.00 0.00 0.02 0.04 0.07 0.12 0.19 0.16 0.09 0.06 0.05 0.04 0.05 0.06 0.08 0.07 0.01 0.00 0.03 0.10 0.19 0.25 0.24 0.23 0.26 0.22 0.20 0.24 0.24 0.26 0.31 0.47 0.35 0.34 0.37 0.32
0.16 0.10 0.06 0.02 0.00 0.00 0.00 0.00 0.00 0.00 0.01 0.04 0.05 0.04 0.02 0.04 0.04 0.03 0.02 0.03 0.07 0.11 0.16 0.15 0.08 0.04 0.05 0.07 0.14 0.20 0.26 0.24 0.23 0.25 0.24 0.20 0.21 0.22 0.33 0.48 0.48 0.55 0.59
0.09 0.07 0.04 0.02 0.01 0.00 0.00 0.00 0.00 0.00 0.00 0.00 0.00 0.01 0.01 0.01 0.02 0.03 0.02 0.01 0.01 0.03 0.08 0.10 0.13 0.13 0.11 0.11 0.12 0.16 0.22 0.30 0.42 0.37 0.35 0.39 0.39 0.30 0.26 0.25 0.34 0.55 0.89
0.24 0.21 0.11 0.03 0.02 0.00 0.00 0.00 0.00 0.00 0.00 0.00 0.00 0.00 0.00 0.02 0.02 0.03 0.03 0.02 0.02 0.02 0.02 0.04 0.05 0.07 0.11 0.19 0.26 0.26 0.26 0.23 0.25 0.54 1.03 1.10 0.74 0.59 0.57 0.47 0.34 0.33 0.55
0.10 0.15 0.07 0.04 0.00 0.00 0.00 0.00 0.00 0.00 0.00 0.00 0.01 0.00 0.00 0.00 0.01 0.04 0.05 0.08 0.08 0.07 0.05 0.05 0.06 0.04 0.04 0.09 0.17 0.30 0.37 0.37 0.33 0.32 0.37 0.87 1.53 1.27 0.81 0.65 0.64 0.50 0.42
0.18 0.07 0.02 0.07 0.00 0.00 0.00 0.00 0.00 0.00 0.00 0.00 0.01 0.01 0.00 0.00 0.00 0.01 0.03 0.07 0.08 0.12 0.12 0.08 0.08 0.07 0.03 0.02 0.02 0.07 0.21 0.48 0.54 0.44 0.46 0.64 0.76 1.02 1.15 0.90 0.79 0.79 0.77
0.28 0.22 0.02 0.02 0.00 0.00 0.00 0.00 0.00 0.00 0.00 0.00 0.00 0.02 0.02 0.01 0.01 0.00 0.01 0.05 0.07 0.07 0.08 0.09 0.08 0.09 0.06 0.04 0.05 0.06 0.06 0.09 0.18 0.30 0.35 0.49 0.89 1.40 1.27 1.04 0.70 0.57 0.60
0.09 0.07 0.01 0.01 0.00 0.00 0.00 0.00 0.00 0.00 0.00 0.00 0.00 0.00 0.02 0.05 0.05 0.03 0.00 0.00 0.04 0.07 0.11 0.13 0.14 0.14 0.13 0.11 0.11 0.15 0.09 0.04 0.06 0.11 0.20 0.33 0.52 0.70 1.12 1.39 1.30 0.95 0.67
0.08 0.08 0.02 0.03 0.02 0.00 0.00 0.00 0.00 0.00 0.00 0.00 0.00 0.00 0.01 0.01 0.02 0.07 0.05 0.02 0.03 0.05 0.06 0.11 0.15 0.21 0.26 0.28 0.21 0.14 0.12 0.10 0.08 0.07 0.13 0.19 0.35 0.58 0.76 0.84 0.88 1.09 1.13
0.06 0.02 0.01 0.00 0.01 0.01 0.02 0.01 0.00 0.00 0.00 0.01 0.01 0.03 0.05 0.06 0.06 0.09 0.14 0.08 0.05 0.07 0.04 0.07 0.08 0.12 0.18 0.28 0.33 0.26 0.14 0.11 0.14 0.15 0.17 0.21 0.23 0.36 0.52 0.80 0.96 0.82 0.79
0.03 0.02 0.02 0.02 0.01 0.02 0.03 0.03 0.03 0.04 0.06 0.11 0.15 0.20 0.27 0.31 0.33 0.35 0.36 0.23 0.14 0.13 0.11 0.04 0.06 0.05 0.07 0.20 0.38 0.43 0.34 0.25 0.14 0.14 0.21 0.25 0.28 0.38 0.59 0.73 0.87 1.15 1.23
0.03 0.04 0.04 0.03 0.06 0.07 0.06 0.11 0.16 0.25 0.45 0.64 0.67 0.63 0.56 0.48 0.41 0.37 0.41 0.43 0.34 0.09 0.05 0.08 0.07 0.11 0.11 0.13 0.26 0.35 0.29 0.28 0.35 0.34 0.21 0.18 0.30 0.36 0.42 0.54 0.78 0.85 0.88
0.05 0.04 0.11 0.12 0.13 0.16 0.19 0.24 0.37 0.54 0.60 0.54 0.50 0.42 0.31 0.26 0.23 0.18 0.17 0.24 0.37 0.21 0.02 0.00 0.02 0.05 0.11 0.15 0.21 0.35 0.47 0.44 0.37 0.35 0.38 0.33 0.25 0.28 0.50 0.62 0.68 0.81 1.01
0.22 0.32 0.29 0.29 0.32 0.31 0.34 0.51 0.57 0.52 0.43 0.35 0.27 0.19 0.13 0.09 0.08 0.09 0.10 0.08 0.09 0.16 0.09 0.00 0.00 0.00 0.00 0.03 0.09 0.19 0.40 0.51 0.34 0.29 0.35 0.41 0.44 0.43 0.38 0.58 0.86 0.91 0.94
0.47 0.48 0.53 0.51 0.61 0.68 0.59 0.44 0.32 0.24 0.17 0.12 0.07 0.05 0.03 0.02 0.01 0.01 0.02 0.03 0.05 0.07 0.04 0.00 0.00 0.00 0.00 0.01 0.03 0.10 0.22 0.43 0.54 0.38 0.27 0.33 0.42 0.48 0.53 0.48 0.51 0.85 1.20
0.58 0.63 0.68 0.52 0.37 0.25 0.18 0.14 0.11 0.08 0.05 0.03 0.02 0.01 0.00 0.00 0.00 0.00 0.01 0.01 0.01 0.01 0.03 0.02 0.00 0.00 0.00 0.00 0.01 0.03 0.10 0.24 0.42 0.53 0.49 0.31 0.26 0.33 0.43 0.56 0.57 0.55 0.71
0.57 0.38 0.31 0.26 0.22 0.16 0.10 0.08 0.06 0.03 0.03 0.02 0.00 0.00 0.00 0.00 0.00 0.00 0.00 0.01 0.01 0.01 0.02 0.04 0.01 0.00 0.00 0.00 0.01 0.02 0.04 0.07 0.16 0.30 0.43 0.55 0.45 0.28 0.28 0.33 0.42 0.53 0.50
0.35 0.35 0.34 0.29 0.15 0.07 0.06 0.06 0.05 0.03 0.03 0.02 0.01 0.01 0.00 0.00 0.00 0.00 0.01 0.01 0.02 0.03 0.03 0.04 0.02 0.01 0.00 0.00 0.03 0.05 0.05 0.06 0.06 0.13 0.31 0.49 0.55 0.48 0.31 0.24 0.28 0.31 0.40
0.20 0.14 0.09 0.05 0.05 0.06 0.06 0.04 0.02 0.01 0.02 0.02 0.01 0.00 0.00 0.00 0.00 0.01 0.02 0.01 0.03 0.04 0.04 0.06 0.05 0.04 0.03 0.04 0.06 0.09 0.10 0.07 0.08 0.09 0.19 0.36 0.52 0.60 0.61 0.38 0.23 0.25 0.32
0.09 0.08 0.05 0.05 0.04 0.04 0.11 0.08 0.03 0.01 0.01 0.01 0.01 0.00 0.00 0.00 0.01 0.01 0.00 0.00 0.02 0.06 0.11 0.14 0.14 0.13 0.08 0.09 0.14 0.18 0.18 0.18 0.17 0.12 0.16 0.27 0.43 0.54 0.66 0.69 0.51 0.35 0.27
0.08 0.05 0.02 0.02 0.03 0.05 0.04 0.02 0.01 0.01 0.01 0.01 0.01 0.01 0.01 0.00 0.00 0.01 0.01 0.01 0.01 0.02 0.09 0.19 0.29 0.18 0.18 0.14 0.15 0.20 0.16 0.17 0.14 0.08 0.16 0.26 0.35 0.46 0.50 0.68 0.72 0.52 0.44
0.07 0.04 0.04 0.05 0.07 0.07 0.05 0.03 0.01 0.01 0.01 0.01 0.01 0.01 0.02 0.01 0.01 0.03 0.07 0.14 0.09 0.07 0.06 0.06 0.16 0.13 0.09 0.08 0.15 0.21 0.27 0.30 0.21 0.07 0.13 0.36 0.27 0.38 0.40 0.46 0.67 0.86 0.74
0.04 0.04 0.03 0.03 0.03 0.04 0.01 0.00 0.00 0.04 0.06 0.03 0.01 0.02 0.04 0.06 0.04 0.08 0.31 0.40 0.18 0.08 0.05 0.06 0.09 0.09 0.08 0.10 0.16 0.49 0.56 0.61 0.44 0.16 0.15 0.29 0.20 0.29 0.38 0.51 0.65 0.70 0.89
0.01 0.00 0.00 0.01 0.02 0.02 0.01 0.01 0.03 0.14 0.20 0.10 0.05 0.04 0.03 0.04 0.11 0.19 0.45 0.50 0.43 0.12 0.05 0.09 0.10 0.07 0.05 0.09 0.11 0.38 0.54 0.67 0.47 0.36 0.13 0.31 0.19 0.26 0.51 0.52 0.52 0.71 0.82

GFSMA_prec_precacc_087.txt.gz
Total_Precipitation_Accumulation
0.48 0.34 0.21 0.04 0.02 0.02 0.04 0.04 0.07 0.12 0.14 0.13 0.11 0.11 0.07 0.05 0.03 0.01 0.00 0.01 0.01 0.01 0.01 0.01 0.04 0.17 0.27 0.28 0.25 0.20 0.19 0.18 0.24 0.36 0.36 0.28 0.25 0.31 0.35 0.30 0.22 0.16 0.13
0.34 0.21 0.12 0.07 0.05 0.03 0.01 0.03 0.03 0.04 0.05 0.06 0.10 0.10 0.06 0.05 0.03 0.03 0.02 0.02 0.02 0.01 0.00 0.01 0.01 0.08 0.22 0.26 0.31 0.30 0.27 0.22 0.19 0.24 0.33 0.32 0.31 0.32 0.31 0.29 0.29 0.30 0.27
0.28 0.16 0.08 0.03 0.01 0.00 0.00 0.00 0.00 0.02 0.04 0.07 0.12 0.19 0.16 0.09 0.06 0.05 0.04 0.05 0.06 0.08 0.07 0.01 0.00 0.03 0.10 0.19 0.25 0.24 0.23 0.26 0.22 0.20 0.24 0.25 0.27 0.31 0.47 0.35 0.34 0.37 0.32
0.16 0.10 0.06 0.02 0.00 0.00 0.00 0.00 0.00 0.00 0.01 0.04 0.05 0.04 0.02 0.04 0.04 0.03 0.02 0.03 0.07 0.11 0.16 0.15 0.08 0.04 0.05 0.07 0.14 0.20 0.26 0.24 0.23 0.25 0.24 0.20 0.21 0.22 0.33 0.48 0.48 0.55 0.59
0.09 0.07 0.04 0.02 0.01 0.00 0.00 0.00 0.00 0.00 0.00 0.00 0.00 0.01 0.01 0.01 0.02 0.03 0.02 0.01 0.01 0.03 0.08 0.10 0.13 0.13 0.11 0.11 0.12 0.16 0.22 0.30 0.42 0.37 0.35 0.39 0.39 0.30 0.26 0.25 0.34 0.55 0.89
0.24 0.23 0.12 0.03 0.02 0.00 0.00 0.00 0.00 0.00 0.00 0.00 0.00 0.00 0.00 0.02 0.02 0.03 0.03 0.02 0.02 0.02 0.02 0.04 0.05 0.07 0.11 0.19 0.26 0.26 0.26 0.23 0.25 0.54 1.03 1.10 0.74 0.59 0.57 0.47 0.34 0.33 0.55
0.10 0.18 0.08 0.04 0.00 0.00 0.00 0.00 0.00 0.00 0.00 0.00 0.01 0.00 0.00 0.00 0.01 0.04 0.05 0.08 0.08 0.07 0.05 0.05 0.06 0.04 0.04 0.09 0.17 0.30 0.37 0.37 0.33 0.32 0.37 0.87 1.53 1.27 0.81 0.65 0.64 0.50 0.42
0.18 0.07 0.02 0.07 0.00 0.00 0.00 0.00 0.00 0.00 0.00 0.00 0.01 0.01 0.00 0.00 0.00 0.01 0.03 0.07 0.08 0.12 0.12 0.08 0.08 0.07 0.03 0.02 0.02 0.07 0.21 0.48 0.54 0.44 0.46 0.64 0.76 1.02 1.15 0.90 0.79 0.79 0.77
0.28 0.22 0.02 0.02 0.02 0.01 0.00 0.00 0.00 0.00 0.00 0.00 0.00 0.02 0.02 0.01 0.01 0.00 0.01 0.05 0.07 0.07 0.08 0.09 0.08 0.09 0.06 0.04 0.05 0.06 0.06 0.09 0.18 0.30 0.35 0.49 0.89 1.40 1.27 1.04 0.70 0.57 0.60
0.09 0.07 0.01 0.01 0.01 0.00 0.01 0.00 0.00 0.00 0.00 0.00 0.00 0.00 0.02 0.05 0.05 0.03 0.00 0.00 0.04 0.07 0.11 0.13 0.14 0.14 0.13 0.11 0.11 0.15 0.09 0.04 0.06 0.11 0.20 0.33 0.52 0.70 1.12 1.39 1.30 0.95 0.67
0.08 0.08 0.02 0.03 0.02 0.00 0.01 0.01 0.01 0.00 0.00 0.00 0.00 0.00 0.01 0.01 0.02 0.07 0.05 0.02 0.03 0.05 0.06 0.11 0.15 0.21 0.26 0.28 0.21 0.14 0.12 0.10 0.08 0.07 0.13 0.19 0.35 0.58 0.76 0.84 0.88 1.09 1.13
0.06 0.02 0.01 0.00 0.01 0.02 0.05 0.05 0.04 0.02 0.01 0.01 0.01 0.03 0.05 0.06 0.06 0.09 0.14 0.08 0.05 0.07 0.04 0.07 0.08 0.12 0.18 0.28 0.33 0.26 0.14 0.11 0.14 0.15 0.17 0.21 0.23 0.36 0.52 0.80 0.96 0.82 0.79
0.03 0.02 0.02 0.02 0.01 0.05 0.08 0.07 0.05 0.05 0.06 0.11 0.15 0.22 0.29 0.34 0.36 0.38 0.37 0.23 0.14 0.13 0.11 0.04 0.06 0.05 0.07 0.20 0.38 0.43 0.34 0.25 0.14 0.14 0.21 0.25 0.28 0.38 0.59 0.73 0.87 1.15 1.23
0.03 0.04 0.04 0.04 0.06 0.09 0.09 0.11 0.16 0.25 0.46 0.67 0.73 0.72 0.65 0.57 0.50 0.43 0.43 0.43 0.34 0.09 0.05 0.08 0.07 0.11 0.11 0.13 0.26 0.35 0.29 0.28 0.35 0.34 0.21 0.18 0.30 0.36 0.42 0.54 0.78 0.85 0.88
0.06 0.05 0.13 0.16 0.15 0.18 0.20 0.25 0.39 0.55 0.62 0.58 0.53 0.47 0.38 0.31 0.26 0.19 0.18 0.24 0.37 0.21 0.02 0.00 0.02 0.05 0.11 0.15 0.21 0.35 0.47 0.44 0.37 0.35 0.38 0.33 0.25 0.28 0.50 0.62 0.68 0.81 1.02
0.23 0.36 0.36 0.37 0.38 0.34 0.37 0.53 0.60 0.53 0.45 0.37 0.30 0.21 0.14 0.10 0.08 0.09 0.10 0.08 0.09 0.16 0.09 0.00 0.00 0.00 0.00 0.03 0.09 0.19 0.40 0.51 0.34 0.29 0.35 0.41 0.44 0.43 0.39 0.59 0.87 0.92 0.95
0.54 0.59 0.65 0.62 0.73 0.85 0.70 0.46 0.34 0.25 0.18 0.13 0.08 0.05 0.03 0.02 0.01 0.01 0.02 0.03 0.05 0.07 0.04 0.00 0.00 0.00 0.00 0.01 0.03 0.10 0.22 0.43 0.54 0.38 0.27 0.33 0.42 0.48 0.53 0.48 0.52 0.86 1.21
0.78 0.82 0.86 0.71 0.56 0.40 0.28 0.17 0.12 0.08 0.05 0.03 0.02 0.01 0.00 0.00 0.00 0.00 0.01 0.01 0.01 0.01 0.03 0.02 0.00 0.00 0.00 0.00 0.01 0.03 0.10 0.24 0.42 0.53 0.49 0.31 0.26 0.33 0.43 0.56 0.57 0.56 0.72
1.22 1.13 0.79 0.54 0.37 0.21 0.14 0.10 0.06 0.03 0.03 0.03 0.03 0.03 0.01 0.01 0.00 0.00 0.00 0.01 0.01 0.01 0.02 0.04 0.01 0.00 0.00 0.00 0.01 0.02 0.04 0.07 0.16 0.30 0.43 0.55 0.45 0.28 0.28 0.33 0.42 0.53 0.50
0.94 0.58 0.43 0.35 0.20 0.11 0.08 0.06 0.05 0.06 0.06 0.06 0.04 0.02 0.02 0.01 0.00 0.00 0.01 0.01 0.02 0.03 0.03 0.04 0.02 0.01 0.00 0.00 0.03 0.05 0.05 0.06 0.06 0.13 0.31 0.49 0.55 0.48 0.31 0.24 0.28 0.32 0.40
0.27 0.16 0.11 0.06 0.06 0.07 0.07 0.05 0.04 0.04 0.05 0.05 0.04 0.03 0.01 0.01 0.00 0.01 0.02 0.01 0.03 0.04 0.04 0.06 0.05 0.04 0.03 0.04 0.06 0.09 0.10 0.07 0.08 0.09 0.19 0.36 0.52 0.60 0.61 0.38 0.23 0.25 0.32
0.14 0.11 0.07 0.07 0.07 0.07 0.16 0.16 0.13 0.15 0.18 0.16 0.07 0.02 0.01 0.01 0.01 0.01 0.00 0.00 0.02 0.06 0.11 0.14 0.14 0.13 0.08 0.09 0.14 0.18 0.18 0.18 0.17 0.12 0.16 0.27 0.43 0.54 0.66 0.69 0.51 0.35 0.27
0.12 0.08 0.05 0.05 0.09 0.13 0.22 0.12 0.08 0.05 0.05 0.04 0.03 0.03 0.01 0.00 0.00 0.01 0.01 0.01 0.01 0.02 0.09 0.19 0.29 0.18 0.18 0.14 0.15 0.20 0.16 0.17 0.14 0.08 0.16 0.26 0.35 0.46 0.50 0.68 0.72 0.52 0.44
0.08 0.07 0.09 0.13 0.15 0.19 0.22 0.17 0.16 0.12 0.07 0.02 0.01 0.01 0.02 0.01 0.01 0.03 0.07 0.14 0.09 0.07 0.06 0.06 0.16 0.13 0.09 0.08 0.15 0.21 0.27 0.31 0.21 0.07 0.13 0.37 0.27 0.38 0.40 0.46 0.67 0.86 0.74
0.06 0.08 0.11 0.14 0.15 0.16 0.14 0.09 0.04 0.05 0.06 0.03 0.01 0.02 0.04 0.06 0.04 0.08 0.31 0.40 0.18 0.08 0.05 0.06 0.09 0.09 0.08 0.10 0.16 0.49 0.57 0.61 0.44 0.16 0.15 0.30 0.21 0.29 0.38 0.51 0.65 0.70 0.89
0.06 0.07 0.06 0.06 0.07 0.06 0.06 0.03 0.04 0.14 0.20 0.10 0.05 0.04 0.03 0.04 0.11 0.19 0.45 0.50 0.43 0.12 0.05 0.09 0.10 0.07 0.05 0.09 0.11 0.38 0.54 0.68 0.47 0.37 0.13 0.32 0.21 0.28 0.54 0.52 0.52 0.71 0.82

GFSMA_prec_precacc_090.txt.gz
Total_Precipitation_Accumulation
0.48 0.34 0.21 0.04 0.02 0.02 0.04 0.04 0.07 0.12 0.14 0.13 0.11 0.11 0.07 0.05 0.03 0.01 0.00 0.01 0.01 0.01 0.01 0.01 0.04 0.17 0.27 0.28 0.25 0.20 0.19 0.18 0.24 0.36 0.36 0.28 0.25 0.31 0.35 0.31 0.22 0.16 0.13
0.34 0.21 0.12 0.07 0.05 0.03 0.01 0.03 0.03 0.04 0.05 0.06 0.10 0.10 0.06 0.05 0.03 0.03 0.02 0.02 0.02 0.01 0.00 0.01 0.01 0.08 0.22 0.26 0.31 0.30 0.27 0.22 0.19 0.24 0.33 0.33 0.31 0.32 0.31 0.29 0.29 0.30 0.27
0.28 0.16 0.08 0.03 0.01 0.00 0.00 0.00 0.00 0.02 0.04 0.07 0.12 0.19 0.16 0.09 0.06 0.05 0.04 0.05 0.06 0.08 0.07 0.01 0.00 0.03 0.10 0.19 0.25 0.24 0.23 0.26 0.22 0.20 0.24 0.25 0.27 0.31 0.47 0.35 0.34 0.37 0.32
0.16 0.10 0.06 0.02 0.00 0.00 0.00 0.00 0.00 0.00 0.01 0.04 0.05 0.04 0.02 0.04 0.04 0.03 0.02 0.03 0.07 0.11 0.16 0.15 0.08 0.04 0.05 0.07 0.14 0.20 0.26 0.24 0.23 0.25 0.24 0.20 0.21 0.22 0.33 0.48 0.48 0.55 0.59
0.09 0.07 0.04 0.02 0.01 0.00 0.00 0.00 0.00 0.00 0.00 0.00 0.00 0.01 0.01 0.01 0.02 0.03 0.02 0.01 0.01 0.03 0.08 0.10 0.13 0.13 0.11 0.11 0.12 0.16 0.22 0.30 0.42 0.37 0.35 0.39 0.39 0.30 0.26 0.25 0.34 0.55 0.89
0.24 0.23 0.12 0.03 0.02 0.00 0.00 0.00 0.00 0.00 0.00 0.00 0.00 0.00 0.00 0.02 0.02 0.03 0.03 0.02 0.02 0.02 0.02 0.04 0.05 0.07 0.11 0.19 0.26 0.26 0.26 0.23 0.25 0.54 1.03 1.10 0.74 0.59 0.57 0.47 0.34 0.33 0.55
0.10 0.18 0.08 0.04 0.00 0.00 0.00 0.00 0.00 0.00 0.00 0.00 0.01 0.00 0.00 0.00 0.01 0.04 0.05 0.08 0.08 0.07 0.05 0.05 0.06 0.04 0.04 0.09 0.17 0.30 0.37 0.37 0.33 0.32 0.37 0.87 1.53 1.27 0.81 0.65 0.64 0.50 0.42
0.19 0.08 0.02 0.07 0.00 0.00 0.00 0.01 0.00 0.00 0.00 0.00 0.01 0.01 0.00 0.00 0.00 0.01 0.03 0.07 0.08 0.12 0.12 0.08 0.08 0.07 0.03 0.02 0.02 0.07 0.21 0.48 0.54 0.44 0.46 0.64 0.76 1.02 1.15 0.90 0.79 0.79 0.77
0.30 0.23 0.03 0.03 0.02 0.01 0.01 0.01 0.01 0.00 0.00 0.00 0.00 0.02 0.02 0.01 0.01 0.00 0.01 0.05 0.07 0.07 0.08 0.09 0.08 0.09 0.06 0.04 0.05 0.06 0.06 0.09 0.18 0.30 0.35 0.49 0.89 1.40 1.27 1.04 0.70 0.57 0.60
0.10 0.08 0.02 0.01 0.01 0.02 0.01 0.02 0.02 0.01 0.00 0.00 0.00 0.00 0.02 0.05 0.05 0.03 0.00 0.00 0.04 0.07 0.11 0.13 0.14 0.14 0.13 0.11 0.11 0.15 0.09 0.04 0.06 0.11 0.20 0.33 0.52 0.70 1.12 1.39 1.30 0.95 0.67
0.08 0.08 0.02 0.03 0.02 0.00 0.02 0.04 0.02 0.02 0.01 0.01 0.00 0.00 0.01 0.01 0.02 0.07 0.05 0.02 0.03 0.05 0.06 0.11 0.15 0.21 0.26 0.28 0.21 0.14 0.12 0.10 0.08 0.07 0.13 0.19 0.35 0.58 0.77 0.84 0.88 1.09 1.13
0.06 0.02 0.01 0.00 0.01 0.02 0.05 0.06 0.10 0.06 0.04 0.02 0.02 0.03 0.05 0.06 0.06 0.10 0.14 0.08 0.06 0.07 0.04 0.07 0.08 0.12 0.18 0.28 0.33 0.26 0.14 0.11 0.14 0.15 0.17 0.21 0.23 0.36 0.52 0.80 0.96 0.82 0.79
0.03 0.02 0.02 0.02 0.01 0.06 0.08 0.09 0.12 0.11 0.10 0.14 0.17 0.22 0.30 0.35 0.37 0.40 0.40 0.26 0.16 0.13 0.11 0.04 0.06 0.05 0.07 0.20 0.38 0.43 0.34 0.25 0.14 0.14 0.21 0.25 0.28 0.38 0.59 0.73 0.87 1.15 1.23
0.03 0.04 0.04 0.04 0.06 0.09 0.09 0.13 0.19 0.29 0.50 0.71 0.75 0.73 0.67 0.59 0.51 0.44 0.45 0.45 0.36 0.09 0.05 0.08 0.07 0.11 0.11 0.13 0.26 0.35 0.29 0.28 0.35 0.34 0.21 0.18 0.30 0.36 0.42 0.54 0.78 0.85 0.88
0.06 0.05 0.13 0.16 0.15 0.18 0.20 0.28 0.41 0.59 0.68 0.61 0.55 0.48 0.39 0.32 0.27 0.20 0.19 0.24 0.37 0.21 0.02 0.00 0.02 0.05 0.11 0.15 0.21 0.35 0.47 0.44 0.37 0.35 0.38 0.33 0.25 0.28 0.50 0.62 0.68 0.81 1.02
0.23 0.36 0.36 0.37 0.39 0.34 0.38 0.57 0.63 0.59 0.49 0.40 0.31 0.24 0.18 0.12 0.09 0.09 0.10 0.08 0.09 0.16 0.09 0.00 0.00 0.00 0.00 0.03 0.09 0.19 0.40 0.51 0.34 0.29 0.35 0.41 0.44 0.43 0.39 0.59 0.87 0.92 0.95
0.55 0.59 0.65 0.63 0.74 0.88 0.81 0.68 0.58 0.45 0.30 0.17 0.10 0.08 0.05 0.04 0.01 0.01 0.02 0.03 0.05 0.07 0.04 0.00 0.00 0.00 0.00 0.01 0.03 0.10 0.22 0.43 0.54 0.38 0.27 0.33 0.42 0.48 0.53 0.48 0.52 0.86 1.22
0.82 0.91 0.96 0.84 0.75 0.75 0.75 0.67 0.56 0.41 0.18 0.06 0.04 0.03 0.01 0.01 0.00 0.00 0.01 0.01 0.01 0.01 0.03 0.02 0.00 0.00 0.00 0.00 0.01 0.03 0.10 0.24 0.42 0.53 0.49 0.31 0.26 0.33 0.43 0.56 0.57 0.56 0.72
1.25 1.27 1.26 1.05 0.88 0.68 0.48 0.33 0.22 0.13 0.08 0.07 0.06 0.05 0.03 0.02 0.03 0.04 0.02 0.01 0.01 0.02 0.03 0.04 0.01 0.00 0.00 0.00 0.01 0.02 0.04 0.07 0.16 0.30 0.43 0.55 0.45 0.28 0.28 0.33 0.42 0.53 0.51
1.03 0.80 0.72 0.51 0.22 0.12 0.09 0.09 0.09 0.10 0.11 0.11 0.08 0.06 0.04 0.03 0.03 0.03 0.03 0.02 0.03 0.04 0.03 0.04 0.02 0.01 0.00 0.00 0.03 0.05 0.05 0.06 0.06 0.13 0.31 0.49 0.55 0.48 0.31 0.24 0.28 0.32 0.40
0.37 0.28 0.19 0.12 0.08 0.07 0.09 0.08 0.07 0.06 0.07 0.08 0.11 0.13 0.14 0.14 0.08 0.04 0.03 0.03 0.05 0.05 0.04 0.06 0.05 0.04 0.03 0.04 0.06 0.09 0.10 0.07 0.08 0.09 0.19 0.36 0.52 0.60 0.61 0.38 0.23 0.25 0.32
0.19 0.17 0.15 0.13 0.11 0.10 0.21 0.20 0.16 0.16 0.19 0.22 0.22 0.17 0.14 0.15 0.11 0.07 0.03 0.02 0.02 0.06 0.11 0.14 0.14 0.13 0.08 0.09 0.14 0.18 0.18 0.18 0.17 0.12 0.16 0.27 0.43 0.54 0.66 0.69 0.51 0.35 0.27
0.15 0.12 0.09 0.09 0.11 0.16 0.30 0.25 0.22 0.15 0.16 0.16 0.13 0.11 0.09 0.06 0.04 0.03 0.02 0.01 0.01 0.02 0.09 0.19 0.29 0.18 0.18 0.14 0.15 0.20 0.16 0.17 0.14 0.08 0.16 0.26 0.35 0.46 0.50 0.68 0.72 0.52 0.44
0.10 0.09 0.11 0.16 0.21 0.33 0.44 0.32 0.33 0.28 0.30 0.24 0.20 0.15 0.09 0.03 0.01 0.03 0.07 0.14 0.09 0.07 0.06 0.06 0.16 0.13 0.09 0.08 0.15 0.21 0.27 0.31 0.21 0.07 0.13 0.38 0.27 0.38 0.40 0.46 0.67 0.86 0.74
0.07 0.10 0.13 0.16 0.19 0.25 0.31 0.23 0.19 0.17 0.18 0.10 0.07 0.05 0.05 0.07 0.04 0.08 0.31 0.40 0.18 0.08 0.05 0.06 0.09 0.09 0.08 0.10 0.16 0.49 0.57 0.62 0.45 0.16 0.15 0.30 0.21 0.29 0.38 0.51 0.65 0.70 0.89
0.10 0.10 0.11 0.10 0.15 0.10 0.16 0.11 0.08 0.16 0.22 0.11 0.08 0.07 0.07 0.06 0.12 0.19 0.45 0.50 0.43 0.12 0.05 0.09 0.10 0.07 0.05 0.09 0.11 0.39 0.56 0.70 0.48 0.38 0.13 0.32 0.21 0.28 0.54 0.52 0.52 0.71 0.82

GFSMA_prec_precacc_093.txt.gz
Total_Precipitation_Accumulation
0.48 0.34 0.21 0.04 0.02 0.02 0.04 0.04 0.07 0.12 0.14 0.13 0.11 0.11 0.07 0.05 0.03 0.01 0.00 0.01 0.01 0.01 0.01 0.01 0.04 0.17 0.27 0.28 0.25 0.20 0.19 0.18 0.24 0.36 0.36 0.28 0.25 0.31 0.35 0.31 0.22 0.16 0.13
0.34 0.21 0.12 0.07 0.05 0.03 0.01 0.03 0.03 0.04 0.05 0.06 0.10 0.10 0.06 0.05 0.03 0.03 0.02 0.02 0.02 0.01 0.00 0.01 0.01 0.08 0.22 0.26 0.31 0.30 0.27 0.22 0.19 0.24 0.33 0.33 0.31 0.32 0.31 0.29 0.29 0.30 0.27
0.28 0.16 0.08 0.03 0.01 0.00 0.00 0.00 0.00 0.02 0.04 0.07 0.12 0.19 0.16 0.09 0.06 0.05 0.04 0.05 0.06 0.08 0.07 0.01 0.00 0.03 0.10 0.19 0.25 0.24 0.23 0.26 0.22 0.20 0.24 0.25 0.27 0.31 0.47 0.35 0.34 0.37 0.32
0.16 0.10 0.06 0.02 0.00 0.00 0.00 0.00 0.00 0.00 0.01 0.04 0.05 0.04 0.02 0.04 0.04 0.03 0.02 0.03 0.07 0.11 0.16 0.15 0.08 0.04 0.05 0.07 0.14 0.20 0.26 0.24 0.23 0.25 0.24 0.20 0.21 0.22 0.33 0.48 0.48 0.55 0.59
0.09 0.07 0.04 0.02 0.01 0.00 0.00 0.00 0.00 0.00 0.00 0.00 0.00 0.01 0.01 0.01 0.02 0.03 0.02 0.01 0.01 0.03 0.08 0.10 0.13 0.13 0.11 0.11 0.12 0.16 0.22 0.30 0.42 0.37 0.35 0.39 0.39 0.30 0.26 0.25 0.34 0.55 0.89
0.25 0.23 0.12 0.03 0.02 0.00 0.00 0.00 0.00 0.00 0.00 0.00 0.00 0.00 0.00 0.02 0.02 0.03 0.03 0.02 0.02 0.02 0.02 0.04 0.05 0.07 0.11 0.19 0.26 0.26 0.26 0.23 0.25 0.54 1.03 1.10 0.74 0.59 0.57 0.47 0.34 0.33 0.55
0.12 0.19 0.08 0.04 0.00 0.00 0.00 0.00 0.00 0.01 0.01 0.00 0.01 0.00 0.00 0.00 0.01 0.04 0.05 0.08 0.08 0.07 0.05 0.05 0.06 0.04 0.04 0.09 0.17 0.30 0.37 0.37 0.33 0.32 0.37 0.87 1.53 1.27 0.81 0.65 0.64 0.50 0.42
0.20 0.09 0.02 0.07 0.00 0.00 0.00 0.01 0.01 0.02 0.01 0.00 0.01 0.01 0.00 0.00 0.00 0.01 0.03 0.07 0.08 0.12 0.12 0.08 0.08 0.07 0.03 0.02 0.02 0.07 0.21 0.48 0.54 0.44 0.46 0.64 0.76 1.02 1.15 0.90 0.79 0.79 0.77
0.31 0.24 0.04 0.03 0.02 0.01 0.01 0.01 0.01 0.01 0.01 0.00 0.00 0.02 0.02 0.01 0.01 0.00 0.01 0.05 0.07 0.07 0.08 0.09 0.08 0.09 0.06 0.04 0.05 0.06 0.06 0.09 0.18 0.30 0.35 0.49 0.89 1.40 1.27 1.04 0.70 0.57 0.60
0.10 0.10 0.03 0.02 0.02 0.02 0.01 0.03 0.03 0.03 0.02 0.01 0.00 0.00 0.02 0.05 0.05 0.03 0.00 0.00 0.04 0.07 0.11 0.13 0.14 0.14 0.13 0.11 0.11 0.15 0.09 0.04 0.06 0.11 0.20 0.33 0.52 0.70 1.12 1.39 1.30 0.95 0.67
0.09 0.08 0.04 0.05 0.04 0.01 0.06 0.06 0.03 0.04 0.05 0.04 0.03 0.01 0.01 0.01 0.02 0.07 0.05 0.02 0.03 0.05 0.06 0.11 0.15 0.21 0.26 0.28 0.21 0.14 0.12 0.10 0.08 0.07 0.13 0.19 0.35 0.58 0.77 0.85 0.88 1.09 1.13
0.06 0.02 0.01 0.01 0.01 0.02 0.06 0.08 0.13 0.10 0.08 0.06 0.04 0.05 0.07 0.08 0.09 0.13 0.15 0.09 0.06 0.07 0.04 0.07 0.08 0.12 0.18 0.28 0.33 0.26 0.14 0.11 0.14 0.15 0.17 0.21 0.23 0.36 0.52 0.80 0.96 0.82 0.80
0.03 0.02 0.02 0.02 0.01 0.06 0.08 0.09 0.12 0.13 0.13 0.16 0.20 0.26 0.34 0.38 0.39 0.41 0.41 0.26 0.17 0.13 0.12 0.04 0.06 0.05 0.07 0.20 0.38 0.43 0.34 0.25 0.14 0.14 0.21 0.25 0.28 0.38 0.59 0.73 0.87 1.15 1.23
0.03 0.04 0.04 0.04 0.06 0.09 0.09 0.13 0.19 0.29 0.51 0.74 0.79 0.78 0.73 0.61 0.52 0.45 0.46 0.46 0.36 0.09 0.05 0.08 0.07 0.11 0.11 0.13 0.26 0.35 0.29 0.28 0.35 0.34 0.21 0.18 0.30 0.36 0.42 0.54 0.78 0.85 0.88
0.06 0.05 0.13 0.16 0.15 0.18 0.20 0.28 0.41 0.59 0.69 0.63 0.58 0.52 0.43 0.34 0.27 0.21 0.20 0.25 0.38 0.22 0.02 0.00 0.02 0.05 0.11 0.15 0.21 0.35 0.47 0.44 0.37 0.35 0.38 0.33 0.25 0.28 0.50 0.62 0.68 0.81 1.02
0.23 0.36 0.36 0.37 0.39 0.34 0.38 0.57 0.64 0.59 0.50 0.43 0.35 0.28 0.21 0.15 0.13 0.16 0.18 0.14 0.12 0.16 0.09 0.00 0.00 0.00 0.00 0.03 0.09 0.19 0.40 0.51 0.34 0.29 0.35 0.41 0.44 0.43 0.39 0.59 0.87 0.92 0.95
0.55 0.59 0.65 0.63 0.74 0.89 0.82 0.69 0.59 0.48 0.39 0.32 0.24 0.19 0.13 0.11 0.10 0.10 0.10 0.09 0.07 0.07 0.04 0.00 0.00 0.00 0.00 0.01 0.03 0.10 0.22 0.43 0.54 0.38 0.27 0.33 0.42 0.48 0.53 0.48 0.52 0.86 1.22
0.82 0.91 0.96 0.85 0.77 0.79 0.91 0.94 0.82 0.70 0.58 0.47 0.36 0.29 0.18 0.10 0.08 0.06 0.06 0.02 0.01 0.01 0.03 0.02 0.00 0.00 0.00 0.00 0.01 0.03 0.10 0.24 0.42 0.53 0.49 0.31 0.26 0.33 0.43 0.56 0.57 0.56 0.72
1.25 1.28 1.28 1.10 0.94 0.81 0.65 0.53 0.38 0.31 0.26 0.25 0.21 0.16 0.13 0.10 0.09 0.09 0.09 0.07 0.06 0.05 0.05 0.05 0.01 0.00 0.00 0.00 0.01 0.02 0.04 0.07 0.16 0.30 0.43 0.55 0.45 0.28 0.28 0.33 0.42 0.53 0.51
1.03 0.81 0.74 0.56 0.28 0.14 0.10 0.09 0.10 0.12 0.14 0.16 0.15 0.14 0.15 0.15 0.13 0.14 0.09 0.08 0.09 0.10 0.08 0.06 0.03 0.02 0.01 0.00 0.03 0.05 0.05 0.06 0.06 0.13 0.31 0.49 0.55 0.48 0.31 0.24 0.28 0.32 0.40
0.40 0.31 0.24 0.16 0.13 0.11 0.11 0.10 0.08 0.07 0.08 0.10 0.13 0.16 0.18 0.22 0.22 0.19 0.17 0.14 0.17 0.16 0.14 0.11 0.08 0.06 0.04 0.04 0.07 0.09 0.10 0.07 0.08 0.09 0.19 0.36 0.52 0.60 0.61 0.38 0.23 0.25 0.32
0.21 0.19 0.17 0.16 0.15 0.13 0.25 0.23 0.18 0.17 0.20 0.22 0.22 0.19 0.17 0.24 0.19 0.20 0.18 0.18 0.16 0.16 0.18 0.18 0.17 0.16 0.11 0.10 0.14 0.18 0.18 0.18 0.17 0.12 0.16 0.27 0.43 0.54 0.66 0.69 0.51 0.35 0.27
0.16 0.13 0.10 0.10 0.14 0.20 0.39 0.29 0.27 0.16 0.19 0.25 0.30 0.36 0.40 0.39 0.34 0.24 0.20 0.12 0.07 0.07 0.12 0.22 0.32 0.20 0.19 0.14 0.15 0.20 0.16 0.17 0.14 0.08 0.16 0.26 0.35 0.46 0.50 0.68 0.72 0.52 0.44
0.12 0.11 0.14 0.22 0.26 0.39 0.49 0.35 0.37 0.30 0.35 0.40 0.39 0.32 0.26 0.20 0.16 0.14 0.16 0.20 0.15 0.12 0.10 0.09 0.17 0.14 0.09 0.08 0.15 0.21 0.27 0.31 0.21 0.07 0.13 0.38 0.27 0.38 0.40 0.46 0.67 0.86 0.74
0.11 0.15 0.17 0.19 0.21 0.27 0.35 0.24 0.20 0.17 0.19 0.16 0.12 0.11 0.12 0.13 0.13 0.16 0.39 0.46 0.23 0.11 0.06 0.06 0.10 0.09 0.08 0.10 0.17 0.50 0.58 0.62 0.45 0.16 0.15 0.30 0.21 0.29 0.38 0.51 0.65 0.70 0.89
0.12 0.11 0.13 0.12 0.16 0.12 0.19 0.14 0.11 0.17 0.25 0.15 0.13 0.13 0.15 0.11 0.16 0.22 0.47 0.52 0.45 0.14 0.07 0.12 0.11 0.08 0.06 0.09 0.11 0.40 0.57 0.71 0.49 0.38 0.13 0.32 0.21 0.29 0.55 0.52 0.52 0.71 0.82

GFSMA_prec_precacc_099.txt.gz
Total_Precipitation_Accumulation
0.53 0.37 0.22 0.04 0.02 0.02 0.04 0.04 0.07 0.12 0.14 0.13 0.11 0.11 0.07 0.05 0.03 0.01 0.00 0.01 0.01 0.01 0.01 0.01 0.04 0.17 0.27 0.28 0.25 0.20 0.19 0.18 0.24 0.36 0.36 0.28 0.26 0.31 0.35 0.31 0.22 0.16 0.13
0.36 0.21 0.13 0.07 0.05 0.03 0.01 0.03 0.03 0.04 0.05 0.06 0.10 0.10 0.06 0.05 0.03 0.03 0.02 0.02 0.02 0.01 0.00 0.01 0.01 0.08 0.22 0.26 0.31 0.30 0.27 0.22 0.19 0.24 0.33 0.33 0.31 0.32 0.31 0.29 0.29 0.30 0.27
0.28 0.16 0.08 0.03 0.01 0.00 0.00 0.00 0.00 0.02 0.04 0.07 0.12 0.19 0.16 0.09 0.06 0.05 0.04 0.05 0.06 0.08 0.07 0.01 0.00 0.03 0.10 0.19 0.25 0.24 0.23 0.26 0.22 0.20 0.24 0.25 0.27 0.31 0.47 0.35 0.34 0.37 0.32
0.16 0.10 0.06 0.02 0.00 0.00 0.00 0.00 0.00 0.00 0.01 0.04 0.05 0.04 0.02 0.04 0.04 0.03 0.02 0.03 0.07 0.11 0.16 0.15 0.08 0.04 0.05 0.07 0.14 0.20 0.26 0.24 0.23 0.25 0.24 0.20 0.21 0.22 0.33 0.48 0.48 0.55 0.59
0.10 0.07 0.04 0.02 0.01 0.00 0.00 0.00 0.00 0.00 0.00 0.00 0.00 0.01 0.01 0.01 0.02 0.03 0.02 0.01 0.01 0.03 0.08 0.10 0.13 0.13 0.11 0.11 0.12 0.16 0.22 0.30 0.42 0.37 0.35 0.39 0.39 0.30 0.26 0.25 0.34 0.55 0.89
0.28 0.23 0.12 0.03 0.02 0.00 0.00 0.00 0.00 0.00 0.00 0.00 0.00 0.00 0.00 0.02 0.02 0.03 0.03 0.02 0.02 0.02 0.02 0.04 0.05 0.07 0.11 0.19 0.26 0.26 0.26 0.23 0.25 0.54 1.03 1.10 0.74 0.59 0.57 0.47 0.34 0.33 0.55
0.17 0.21 0.08 0.05 0.00 0.00 0.00 0.00 0.00 0.01 0.01 0.01 0.01 0.00 0.00 0.00 0.01 0.04 0.05 0.08 0.08 0.07 0.05 0.05 0.06 0.04 0.04 0.09 0.17 0.30 0.37 0.37 0.33 0.32 0.37 0.87 1.53 1.27 0.81 0.65 0.64 0.50 0.42
0.26 0.11 0.03 0.07 0.00 0.00 0.00 0.01 0.01 0.02 0.02 0.02 0.03 0.02 0.00 0.00 0.00 0.01 0.03 0.07 0.08 0.12 0.12 0.08 0.08 0.07 0.03 0.02 0.02 0.07 0.21 0.48 0.54 0.44 0.46 0.64 0.76 1.02 1.15 0.90 0.79 0.79 0.77
0.35 0.26 0.06 0.03 0.02 0.01 0.01 0.01 0.01 0.01 0.02 0.02 0.02 0.03 0.02 0.01 0.01 0.00 0.01 0.05 0.07 0.07 0.08 0.09 0.08 0.09 0.06 0.04 0.05 0.06 0.06 0.09 0.18 0.30 0.35 0.50 0.90 1.40 1.27 1.04 0.70 0.57 0.60
0.14 0.11 0.05 0.03 0.02 0.02 0.01 0.03 0.03 0.03 0.02 0.02 0.02 0.01 0.03 0.05 0.05 0.03 0.00 0.00 0.04 0.07 0.11 0.13 0.14 0.14 0.13 0.11 0.11 0.15 0.09 0.04 0.06 0.11 0.20 0.33 0.52 0.71 1.12 1.39 1.30 0.95 0.67
0.15 0.11 0.06 0.05 0.04 0.02 0.06 0.06 0.04 0.04 0.05 0.04 0.04 0.04 0.03 0.02 0.03 0.07 0.06 0.02 0.03 0.05 0.06 0.11 0.15 0.21 0.26 0.28 0.21 0.14 0.12 0.10 0.08 0.07 0.13 0.19 0.35 0.58 0.77 0.86 0.90 1.11 1.15
0.09 0.05 0.03 0.02 0.02 0.02 0.06 0.09 0.15 0.12 0.10 0.09 0.07 0.08 0.08 0.09 0.10 0.16 0.26 0.20 0.15 0.10 0.05 0.07 0.09 0.12 0.18 0.28 0.33 0.26 0.14 0.11 0.14 0.15 0.17 0.21 0.23 0.36 0.52 0.80 0.97 0.83 0.81
0.03 0.03 0.03 0.03 0.03 0.07 0.10 0.12 0.16 0.18 0.16 0.19 0.22 0.31 0.40 0.42 0.44 0.50 0.53 0.38 0.25 0.18 0.15 0.06 0.06 0.05 0.07 0.20 0.38 0.43 0.34 0.25 0.14 0.14 0.21 0.25 0.28 0.38 0.59 0.73 0.87 1.15 1.23
0.03 0.04 0.04 0.04 0.07 0.11 0.12 0.19 0.29 0.37 0.57 0.78 0.81 0.78 0.75 0.66 0.57 0.50 0.51 0.52 0.46 0.14 0.10 0.11 0.08 0.13 0.12 0.14 0.26 0.35 0.29 0.28 0.35 0.34 0.21 0.18 0.30 0.36 0.42 0.54 0.78 0.85 0.88
0.06 0.05 0.13 0.16 0.15 0.19 0.22 0.32 0.45 0.62 0.75 0.68 0.62 0.56 0.47 0.37 0.31 0.25 0.24 0.30 0.45 0.29 0.07 0.02 0.03 0.06 0.13 0.20 0.28 0.38 0.48 0.44 0.37 0.35 0.38 0.33 0.25 0.28 0.50 0.62 0.68 0.81 1.02
0.23 0.36 0.36 0.37 0.39 0.35 0.38 0.58 0.65 0.61 0.55 0.46 0.38 0.30 0.22 0.16 0.15 0.18 0.21 0.18 0.22 0.36 0.39 0.17 0.10 0.07 0.09 0.13 0.15 0.23 0.42 0.52 0.34 0.29 0.35 0.41 0.44 0.43 0.39 0.59 0.87 0.92 0.95
0.55 0.59 0.65 0.63 0.74 0.89 0.82 0.69 0.59 0.48 0.40 0.33 0.25 0.23 0.22 0.22 0.25 0.26 0.30 0.35 0.42 0.48 0.50 0.25 0.12 0.10 0.09 0.07 0.05 0.13 0.24 0.43 0.54 0.38 0.27 0.33 0.42 0.48 0.53 0.48 0.52 0.86 1.22
0.82 0.91 0.96 0.85 0.77 0.79 0.91 0.94 0.83 0.71 0.62 0.55 0.48 0.48 0.45 0.43 0.45 0.37 0.33 0.29 0.26 0.25 0.32 0.30 0.14 0.11 0.09 0.06 0.04 0.05 0.12 0.25 0.42 0.53 0.49 0.31 0.26 0.33 0.43 0.56 0.57 0.56 0.72
1.25 1.28 1.28 1.10 0.94 0.81 0.65 0.56 0.47 0.37 0.29 0.27 0.25 0.26 0.22 0.23 0.23 0.21 0.22 0.24 0.26 0.23 0.26 0.25 0.19 0.15 0.12 0.08 0.06 0.06 0.07 0.09 0.17 0.31 0.45 0.55 0.45 0.28 0.28 0.33 0.42 0.53 0.51
1.03 0.81 0.74 0.56 0.28 0.14 0.10 0.10 0.10 0.12 0.15 0.17 0.17 0.18 0.20 0.24 0.24 0.29 0.33 0.32 0.32 0.35 0.32 0.31 0.27 0.25 0.22 0.22 0.26 0.29 0.28 0.29 0.28 0.33 0.46 0.57 0.59 0.50 0.32 0.24 0.29 0.32 0.40
0.41 0.32 0.24 0.17 0.15 0.12 0.12 0.10 0.10 0.11 0.13 0.16 0.22 0.30 0.32 0.38 0.34 0.29 0.26 0.20 0.26 0.32 0.33 0.37 0.39 0.37 0.38 0.40 0.44 0.50 0.53 0.48 0.43 0.36 0.40 0.46 0.56 0.63 0.63 0.39 0.23 0.25 0.32
0.22 0.20 0.19 0.17 0.16 0.15 0.28 0.26 0.22 0.22 0.29 0.33 0.33 0.27 0.24 0.39 0.31 0.38 0.36 0.38 0.37 0.41 0.46 0.51 0.53 0.52 0.50 0.52 0.56 0.60 0.58 0.51 0.42 0.25 0.26 0.33 0.47 0.57 0.67 0.69 0.51 0.35 0.27
0.16 0.14 0.11 0.11 0.16 0.23 0.50 0.34 0.37 0.22 0.23 0.29 0.35 0.41 0.45 0.48 0.51 0.36 0.39 0.35 0.32 0.33 0.38 0.47 0.59 0.51 0.50 0.41 0.38 0.40 0.33 0.31 0.25 0.16 0.26 0.32 0.36 0.48 0.51 0.68 0.72 0.52 0.44
0.13 0.12 0.17 0.26 0.32 0.48 0.61 0.41 0.42 0.31 0.37 0.42 0.41 0.34 0.29 0.24 0.23 0.20 0.21 0.28 0.26 0.25 0.25 0.25 0.33 0.29 0.21 0.17 0.23 0.31 0.37 0.42 0.31 0.13 0.20 0.47 0.28 0.38 0.40 0.46 0.67 0.86 0.74
0.16 0.18 0.22 0.24 0.26 0.32 0.43 0.27 0.22 0.17 0.19 0.16 0.12 0.12 0.15 0.16 0.23 0.24 0.45 0.55 0.32 0.20 0.16 0.17 0.21 0.21 0.21 0.23 0.28 0.61 0.67 0.71 0.50 0.17 0.17 0.40 0.25 0.31 0.39 0.51 0.65 0.70 0.89
0.16 0.15 0.18 0.15 0.20 0.13 0.23 0.16 0.12 0.17 0.25 0.16 0.13 0.16 0.22 0.17 0.23 0.28 0.53 0.59 0.53 0.22 0.15 0.18 0.17 0.13 0.09 0.12 0.13 0.42 0.60 0.78 0.56 0.45 0.16 0.42 0.26 0.34 0.62 0.53 0.52 0.72 0.82

GFSMA_prec_precacc_102.txt.gz
Total_Precipitation_Accumulation
0.54 0.41 0.25 0.04 0.02 0.02 0.04 0.04 0.07 0.12 0.14 0.13 0.11 0.11 0.07 0.05 0.03 0.01 0.00 0.01 0.01 0.01 0.01 0.01 0.04 0.17 0.27 0.28 0.25 0.20 0.19 0.18 0.24 0.36 0.36 0.28 0.26 0.31 0.35 0.31 0.22 0.16 0.13
0.37 0.21 0.14 0.09 0.05 0.03 0.01 0.03 0.03 0.04 0.05 0.06 0.10 0.10 0.06 0.05 0.03 0.03 0.02 0.02 0.02 0.01 0.00 0.01 0.01 0.08 0.22 0.26 0.31 0.30 0.27 0.22 0.19 0.24 0.33 0.33 0.31 0.32 0.31 0.29 0.29 0.30 0.27
0.31 0.16 0.09 0.06 0.02 0.00 0.00 0.00 0.00 0.02 0.04 0.07 0.12 0.19 0.16 0.09 0.06 0.05 0.04 0.05 0.06 0.08 0.07 0.01 0.00 0.03 0.10 0.19 0.25 0.24 0.23 0.26 0.22 0.20 0.24 0.25 0.27 0.31 0.47 0.35 0.34 0.37 0.32
0.22 0.11 0.06 0.03 0.01 0.00 0.00 0.00 0.00 0.00 0.01 0.04 0.05 0.04 0.02 0.04 0.04 0.03 0.02 0.03 0.07 0.11 0.16 0.15 0.08 0.04 0.05 0.07 0.14 0.20 0.26 0.24 0.23 0.25 0.24 0.20 0.21 0.22 0.33 0.48 0.48 0.55 0.59
0.20 0.07 0.05 0.06 0.03 0.00 0.00 0.00 0.00 0.00 0.00 0.00 0.00 0.01 0.01 0.01 0.02 0.03 0.02 0.01 0.01 0.03 0.08 0.10 0.13 0.13 0.11 0.11 0.12 0.16 0.22 0.30 0.42 0.37 0.35 0.39 0.39 0.30 0.26 0.25 0.34 0.55 0.89
0.34 0.24 0.13 0.05 0.06 0.03 0.02 0.00 0.00 0.00 0.00 0.00 0.00 0.00 0.00 0.02 0.02 0.03 0.03 0.02 0.02 0.02 0.02 0.04 0.05 0.07 0.11 0.19 0.26 0.26 0.26 0.23 0.25 0.54 1.03 1.10 0.74 0.59 0.57 0.47 0.34 0.33 0.55
0.22 0.22 0.08 0.05 0.01 0.01 0.03 0.00 0.00 0.01 0.01 0.01 0.01 0.00 0.00 0.00 0.01 0.04 0.05 0.08 0.08 0.07 0.05 0.05 0.06 0.04 0.04 0.09 0.17 0.30 0.37 0.37 0.33 0.32 0.37 0.87 1.53 1.27 0.81 0.65 0.64 0.50 0.42
0.30 0.13 0.04 0.08 0.00 0.00 0.01 0.01 0.01 0.02 0.02 0.02 0.03 0.02 0.00 0.00 0.00 0.01 0.03 0.07 0.08 0.12 0.12 0.08 0.08 0.07 0.03 0.02 0.02 0.07 0.21 0.48 0.54 0.44 0.46 0.64 0.76 1.02 1.15 0.90 0.79 0.79 0.77
0.40 0.29 0.08 0.05 0.03 0.01 0.01 0.01 0.01 0.01 0.02 0.02 0.02 0.03 0.02 0.01 0.01 0.00 0.01 0.05 0.07 0.07 0.08 0.09 0.08 0.09 0.06 0.04 0.05 0.06 0.06 0.09 0.18 0.30 0.35 0.50 0.90 1.40 1.27 1.04 0.70 0.57 0.60
0.24 0.17 0.08 0.05 0.04 0.03 0.01 0.03 0.03 0.03 0.02 0.02 0.02 0.01 0.03 0.05 0.06 0.04 0.00 0.00 0.04 0.07 0.11 0.13 0.14 0.14 0.13 0.11 0.11 0.15 0.09 0.04 0.06 0.11 0.20 0.33 0.52 0.71 1.13 1.39 1.30 0.95 0.67
0.26 0.18 0.10 0.07 0.07 0.06 0.10 0.07 0.04 0.04 0.05 0.04 0.04 0.04 0.03 0.02 0.03 0.08 0.06 0.02 0.03 0.05 0.06 0.11 0.15 0.21 0.26 0.28 0.21 0.14 0.12 0.10 0.08 0.07 0.13 0.19 0.35 0.58 0.78 0.86 0.90 1.11 1.15
0.21 0.14 0.10 0.07 0.08 0.09 0.14 0.13 0.15 0.12 0.10 0.09 0.08 0.09 0.08 0.09 0.10 0.16 0.26 0.20 0.15 0.10 0.05 0.07 0.09 0.12 0.18 0.28 0.33 0.26 0.14 0.11 0.14 0.15 0.17 0.21 0.23 0.36 0.53 0.81 0.98 0.85 0.82
0.10 0.08 0.07 0.07 0.08 0.11 0.14 0.19 0.18 0.19 0.17 0.20 0.24 0.32 0.41 0.42 0.44 0.50 0.53 0.38 0.25 0.18 0.15 0.06 0.06 0.06 0.07 0.20 0.38 0.43 0.34 0.25 0.14 0.14 0.21 0.25 0.28 0.38 0.59 0.73 0.87 1.16 1.24
0.06 0.06 0.05 0.05 0.09 0.13 0.14 0.23 0.35 0.40 0.60 0.81 0.85 0.82 0.79 0.69 0.58 0.50 0.51 0.52 0.46 0.14 0.10 0.11 0.08 0.13 0.12 0.14 0.27 0.36 0.29 0.28 0.35 0.34 0.21 0.18 0.30 0.36 0.42 0.54 0.78 0.85 0.88
0.07 0.05 0.13 0.16 0.16 0.19 0.23 0.32 0.46 0.65 0.75 0.69 0.64 0.60 0.51 0.40 0.35 0.28 0.25 0.30 0.45 0.29 0.07 0.02 0.03 0.06 0.13 0.20 0.28 0.40 0.50 0.46 0.39 0.37 0.40 0.34 0.25 0.28 0.50 0.62 0.68 0.81 1.02
0.23 0.37 0.36 0.37 0.39 0.35 0.38 0.58 0.65 0.61 0.55 0.47 0.40 0.32 0.27 0.18 0.17 0.21 0.22 0.20 0.22 0.37 0.42 0.18 0.10 0.07 0.10 0.13 0.15 0.24 0.45 0.56 0.38 0.31 0.37 0.43 0.45 0.43 0.39 0.59 0.87 0.92 0.95
0.55 0.59 0.65 0.63 0.74 0.89 0.82 0.69 0.60 0.48 0.40 0.33 0.26 0.25 0.23 0.23 0.28 0.29 0.32 0.38 0.43 0.49 0.52 0.27 0.12 0.10 0.09 0.08 0.06 0.15 0.27 0.47 0.57 0.41 0.29 0.35 0.45 0.50 0.55 0.49 0.52 0.87 1.22
0.82 0.91 0.96 0.85 0.77 0.79 0.91 0.94 0.83 0.71 0.62 0.55 0.48 0.49 0.46 0.45 0.48 0.39 0.35 0.31 0.28 0.30 0.46 0.42 0.17 0.13 0.11 0.08 0.05 0.08 0.13 0.26 0.43 0.56 0.53 0.33 0.29 0.36 0.47 0.60 0.60 0.58 0.74
1.25 1.28 1.28 1.10 0.94 0.81 0.65 0.56 0.47 0.37 0.30 0.27 0.25 0.28 0.25 0.27 0.26 0.23 0.24 0.27 0.34 0.41 0.45 0.37 0.22 0.16 0.14 0.12 0.12 0.13 0.12 0.13 0.19 0.38 0.52 0.60 0.49 0.34 0.35 0.40 0.49 0.59 0.56
1.03 0.81 0.74 0.56 0.28 0.14 0.10 0.10 0.10 0.12 0.16 0.20 0.22 0.23 0.23 0.27 0.31 0.44 0.57 0.60 0.56 0.47 0.37 0.34 0.30 0.29 0.26 0.24 0.29 0.35 0.38 0.38 0.38 0.45 0.61 0.71 0.71 0.62 0.43 0.36 0.41 0.44 0.52
0.41 0.32 0.24 0.18 0.15 0.13 0.12 0.10 0.10 0.13 0.15 0.19 0.27 0.37 0.43 0.56 0.53 0.43 0.35 0.25 0.30 0.36 0.39 0.42 0.43 0.42 0.42 0.44 0.47 0.54 0.56 0.51 0.48 0.45 0.52 0.57 0.66 0.72 0.73 0.50 0.35 0.37 0.44
0.22 0.20 0.19 0.18 0.16 0.15 0.28 0.26 0.23 0.23 0.30 0.36 0.40 0.37 0.35 0.52 0.38 0.46 0.42 0.43 0.40 0.42 0.47 0.52 0.54 0.53 0.51 0.54 0.58 0.63 0.61 0.55 0.47 0.31 0.35 0.42 0.55 0.64 0.69 0.71 0.56 0.42 0.34
0.16 0.14 0.11 0.11 0.16 0.24 0.51 0.35 0.39 0.24 0.28 0.37 0.42 0.47 0.50 0.54 0.59 0.40 0.43 0.36 0.33 0.34 0.38 0.47 0.60 0.51 0.51 0.43 0.41 0.43 0.37 0.35 0.30 0.20 0.31 0.37 0.38 0.51 0.52 0.68 0.73 0.53 0.45
0.14 0.13 0.17 0.27 0.33 0.50 0.64 0.43 0.46 0.33 0.39 0.46 0.45 0.38 0.32 0.27 0.25 0.22 0.21 0.28 0.26 0.25 0.26 0.26 0.34 0.30 0.22 0.20 0.26 0.34 0.41 0.46 0.33 0.15 0.25 0.56 0.29 0.40 0.40 0.46 0.67 0.86 0.74
0.17 0.20 0.24 0.27 0.29 0.36 0.49 0.31 0.25 0.18 0.21 0.19 0.15 0.14 0.16 0.16 0.23 0.25 0.45 0.55 0.32 0.20 0.16 0.17 0.21 0.22 0.23 0.25 0.30 0.63 0.70 0.76 0.53 0.19 0.20 0.50 0.30 0.34 0.40 0.52 0.65 0.70 0.89
0.18 0.19 0.22 0.19 0.25 0.16 0.29 0.19 0.15 0.17 0.27 0.17 0.14 0.16 0.24 0.17 0.23 0.28 0.53 0.59 0.53 0.22 0.15 0.18 0.18 0.13 0.09 0.12 0.14 0.44 0.62 0.82 0.61 0.49 0.23 0.50 0.31 0.38 0.67 0.53 0.52 0.72 0.83

GFSMA_prec_precacc_105.txt.gz
Total_Precipitation_Accumulation
0.56 0.41 0.25 0.04 0.02 0.02 0.04 0.04 0.07 0.12 0.14 0.13 0.11 0.11 0.07 0.05 0.03 0.01 0.00 0.01 0.01 0.01 0.01 0.01 0.04 0.17 0.27 0.28 0.25 0.20 0.19 0.18 0.24 0.36 0.36 0.28 0.26 0.31 0.35 0.31 0.22 0.16 0.13
0.38 0.21 0.14 0.09 0.05 0.03 0.01 0.03 0.03 0.04 0.05 0.06 0.10 0.10 0.06 0.05 0.03 0.03 0.02 0.02 0.02 0.01 0.00 0.01 0.01 0.08 0.22 0.26 0.31 0.30 0.27 0.22 0.19 0.24 0.33 0.33 0.31 0.32 0.31 0.29 0.29 0.30 0.27
0.34 0.17 0.09 0.06 0.02 0.00 0.00 0.00 0.00 0.02 0.04 0.07 0.12 0.19 0.16 0.09 0.06 0.05 0.04 0.05 0.06 0.08 0.07 0.01 0.00 0.03 0.10 0.19 0.25 0.24 0.23 0.26 0.22 0.20 0.24 0.25 0.27 0.31 0.47 0.35 0.34 0.37 0.32
0.32 0.15 0.06 0.03 0.01 0.00 0.00 0.00 0.00 0.00 0.01 0.04 0.05 0.04 0.02 0.04 0.04 0.03 0.02 0.03 0.07 0.11 0.16 0.15 0.08 0.04 0.05 0.07 0.14 0.20 0.26 0.24 0.23 0.25 0.24 0.20 0.21 0.22 0.33 0.48 0.48 0.55 0.59
0.32 0.11 0.07 0.06 0.04 0.01 0.00 0.00 0.00 0.00 0.00 0.00 0.00 0.01 0.01 0.01 0.02 0.03 0.02 0.01 0.01 0.03 0.08 0.10 0.13 0.13 0.11 0.11 0.12 0.16 0.22 0.30 0.42 0.37 0.35 0.39 0.39 0.30 0.26 0.25 0.34 0.55 0.89
0.38 0.28 0.15 0.06 0.12 0.04 0.04 0.01 0.00 0.00 0.00 0.00 0.00 0.00 0.00 0.02 0.02 0.03 0.03 0.02 0.02 0.02 0.02 0.04 0.05 0.07 0.11 0.19 0.26 0.26 0.26 0.23 0.25 0.54 1.03 1.10 0.74 0.59 0.57 0.47 0.34 0.33 0.55
0.25 0.25 0.10 0.06 0.05 0.03 0.05 0.02 0.00 0.01 0.01 0.01 0.01 0.00 0.00 0.00 0.01 0.04 0.05 0.08 0.08 0.07 0.05 0.05 0.06 0.04 0.04 0.09 0.17 0.30 0.37 0.37 0.33 0.32 0.37 0.87 1.53 1.27 0.81 0.65 0.64 0.50 0.42
0.31 0.14 0.04 0.08 0.01 0.03 0.03 0.02 0.01 0.02 0.02 0.02 0.03 0.02 0.00 0.00 0.00 0.01 0.03 0.07 0.08 0.12 0.12 0.08 0.08 0.07 0.03 0.02 0.02 0.07 0.21 0.48 0.54 0.44 0.46 0.64 0.76 1.02 1.15 0.90 0.79 0.79 0.77
0.41 0.30 0.08 0.05 0.03 0.03 0.02 0.02 0.01 0.01 0.02 0.02 0.02 0.03 0.02 0.01 0.01 0.00 0.01 0.05 0.07 0.07 0.08 0.09 0.08 0.09 0.06 0.04 0.05 0.06 0.06 0.09 0.18 0.30 0.35 0.50 0.90 1.40 1.27 1.04 0.70 0.57 0.60
0.28 0.19 0.08 0.05 0.04 0.04 0.02 0.03 0.03 0.03 0.02 0.02 0.02 0.01 0.03 0.05 0.06 0.04 0.00 0.00 0.04 0.07 0.11 0.13 0.14 0.14 0.13 0.11 0.11 0.15 0.09 0.04 0.06 0.11 0.20 0.33 0.52 0.71 1.13 1.39 1.30 0.95 0.67
0.34 0.23 0.11 0.07 0.07 0.06 0.11 0.08 0.05 0.06 0.06 0.05 0.04 0.04 0.03 0.02 0.03 0.08 0.06 0.02 0.03 0.05 0.06 0.11 0.15 0.21 0.26 0.28 0.21 0.14 0.12 0.10 0.08 0.07 0.13 0.19 0.35 0.58 0.78 0.86 0.90 1.11 1.15
0.42 0.26 0.14 0.09 0.10 0.11 0.17 0.14 0.17 0.13 0.13 0.10 0.08 0.09 0.08 0.09 0.10 0.16 0.26 0.20 0.15 0.10 0.05 0.07 0.09 0.12 0.18 0.28 0.33 0.26 0.14 0.11 0.14 0.15 0.17 0.21 0.23 0.36 0.53 0.81 0.98 0.85 0.82
0.43 0.25 0.15 0.11 0.13 0.15 0.19 0.21 0.21 0.21 0.19 0.22 0.24 0.33 0.41 0.42 0.44 0.50 0.53 0.38 0.25 0.18 0.15 0.06 0.06 0.06 0.07 0.20 0.38 0.43 0.34 0.25 0.14 0.14 0.21 0.26 0.28 0.38 0.59 0.74 0.88 1.17 1.25
0.20 0.22 0.16 0.14 0.17 0.19 0.18 0.26 0.37 0.45 0.62 0.83 0.87 0.85 0.81 0.69 0.58 0.50 0.51 0.53 0.46 0.14 0.10 0.11 0.08 0.13 0.12 0.14 0.27 0.37 0.31 0.30 0.36 0.35 0.22 0.20 0.31 0.38 0.44 0.56 0.80 0.88 0.90
0.09 0.10 0.19 0.21 0.19 0.23 0.24 0.33 0.47 0.66 0.78 0.71 0.65 0.61 0.52 0.41 0.36 0.29 0.26 0.31 0.46 0.29 0.07 0.02 0.03 0.06 0.13 0.20 0.28 0.40 0.51 0.47 0.40 0.38 0.42 0.38 0.29 0.32 0.55 0.67 0.71 0.84 1.05
0.23 0.38 0.37 0.37 0.39 0.35 0.38 0.58 0.65 0.62 0.56 0.47 0.40 0.32 0.27 0.18 0.17 0.21 0.23 0.20 0.23 0.37 0.42 0.18 0.10 0.07 0.10 0.14 0.17 0.26 0.46 0.57 0.39 0.32 0.37 0.45 0.47 0.46 0.43 0.63 0.91 0.96 0.99
0.55 0.59 0.65 0.63 0.74 0.89 0.82 0.69 0.60 0.48 0.40 0.33 0.27 0.25 0.23 0.23 0.28 0.29 0.34 0.40 0.44 0.49 0.52 0.27 0.13 0.11 0.12 0.11 0.09 0.16 0.27 0.47 0.57 0.41 0.29 0.35 0.46 0.54 0.60 0.56 0.62 0.99 1.35
0.82 0.91 0.96 0.85 0.77 0.79 0.91 0.94 0.83 0.71 0.62 0.55 0.48 0.50 0.46 0.45 0.49 0.40 0.36 0.32 0.29 0.31 0.48 0.47 0.24 0.22 0.21 0.13 0.07 0.08 0.14 0.26 0.44 0.56 0.53 0.33 0.29 0.38 0.51 0.68 0.72 0.73 0.88
1.25 1.28 1.28 1.10 0.94 0.81 0.65 0.56 0.47 0.37 0.30 0.27 0.26 0.30 0.28 0.30 0.28 0.25 0.26 0.30 0.39 0.53 0.68 0.64 0.40 0.29 0.21 0.16 0.14 0.15 0.13 0.14 0.22 0.46 0.57 0.64 0.51 0.35 0.35 0.41 0.51 0.63 0.62
1.03 0.81 0.74 0.56 0.29 0.15 0.10 0.10 0.11 0.13 0.17 0.23 0.25 0.25 0.24 0.27 0.32 0.44 0.58 0.70 0.78 0.79 0.66 0.52 0.40 0.36 0.31 0.26 0.29 0.35 0.38 0.39 0.39 0.47 0.68 0.78 0.77 0.65 0.45 0.37 0.42 0.46 0.56
0.41 0.32 0.24 0.18 0.16 0.13 0.12 0.10 0.10 0.14 0.16 0.19 0.27 0.37 0.43 0.59 0.57 0.47 0.44 0.39 0.44 0.48 0.46 0.48 0.47 0.43 0.42 0.44 0.48 0.54 0.56 0.51 0.49 0.45 0.52 0.58 0.67 0.75 0.78 0.58 0.42 0.44 0.52
0.22 0.20 0.19 0.18 0.16 0.15 0.29 0.27 0.23 0.24 0.31 0.37 0.42 0.38 0.37 0.56 0.43 0.56 0.53 0.51 0.44 0.47 0.50 0.53 0.55 0.54 0.51 0.54 0.58 0.63 0.61 0.55 0.48 0.31 0.35 0.42 0.55 0.64 0.70 0.72 0.58 0.47 0.42
0.16 0.14 0.12 0.12 0.17 0.25 0.53 0.37 0.40 0.24 0.29 0.39 0.46 0.52 0.58 0.66 0.73 0.49 0.55 0.44 0.36 0.36 0.39 0.48 0.60 0.51 0.52 0.44 0.41 0.43 0.37 0.36 0.31 0.20 0.32 0.38 0.38 0.51 0.52 0.68 0.74 0.54 0.46
0.14 0.13 0.18 0.28 0.34 0.52 0.67 0.45 0.48 0.35 0.43 0.51 0.51 0.47 0.43 0.42 0.45 0.39 0.28 0.30 0.26 0.25 0.26 0.26 0.34 0.30 0.23 0.20 0.27 0.35 0.42 0.47 0.33 0.15 0.26 0.60 0.30 0.40 0.40 0.46 0.67 0.86 0.75
0.18 0.21 0.25 0.29 0.30 0.39 0.54 0.34 0.28 0.19 0.25 0.24 0.23 0.26 0.33 0.36 0.38 0.30 0.46 0.55 0.32 0.20 0.16 0.17 0.21 0.22 0.23 0.25 0.31 0.64 0.71 0.76 0.53 0.19 0.22 0.52 0.31 0.35 0.40 0.52 0.65 0.70 0.90
0.20 0.21 0.26 0.23 0.31 0.19 0.36 0.24 0.19 0.18 0.31 0.27 0.28 0.31 0.34 0.21 0.23 0.28 0.53 0.59 0.53 0.22 0.15 0.18 0.18 0.13 0.09 0.13 0.15 0.45 0.63 0.83 0.61 0.50 0.25 0.50 0.31 0.38 0.68 0.53 0.52 0.72 0.83